[[{"header":{"parameterUnit":"m.s-1","parameterCategory":1,"la1":30.6,"la2":28.766,"lo1":-90.7593,"lo2":-88.6598,"dy":0.0162,"dx":0.0183,"nx":116,"ny":114,"refTime":"2024-06-08T00:00:00:Z","depth":0,"parameterNumber":2,"parameterNumberName":"U-component_of_WINDS"},"data":[0.0,0.0,0.0,0.0,0.0,0.0,0.0,0.0,0.0,0.0,0.0,0.0,0.0,0.0,0.0,0.0,0.0,0.0,0.0,0.0,0.0,0.0,0.0,0.0,0.0,0.0,0.0,0.0,0.0,0.0,0.0,0.0,0.0,0.0,0.0,0.0,0.0,0.0,0.0,0.0,0.0,0.0,0.0,0.0,0.0,0.0,0.0,0.0,0.0,0.0,0.0,0.0,0.0,0.0,0.0,0.0,0.0,0.0,0.0,0.0,0.0,0.0,0.0,0.0,0.0,0.0,0.0,0.0,0.0,0.0,0.0,0.0,0.0,0.0,0.0,0.0,0.0,0.0,0.0,0.0,0.0,0.0,0.0,0.0,0.0,0.0,0.0,0.0,0.0,0.0,0.0,0.0,0.0,0.0,0.0,0.0,0.0,0.0,0.0,0.0,0.0,0.0,0.0,0.0,0.0,0.0,0.0,0.0,0.0,0.0,0.0,0.0,0.0,0.0,0.0,0.0,0.0,0.0,0.0,0.0,0.0,0.0,0.0,0.0,0.0,0.0,0.0,0.0,0.0,0.0,0.0,0.0,0.0,0.0,0.0,0.0,0.0,0.0,0.0,0.0,0.0,0.0,0.0,0.0,0.0,0.0,0.0,0.0,0.0,0.0,0.0,0.0,0.0,0.0,0.0,0.0,0.0,0.0,0.0,0.0,0.0,0.0,0.0,0.0,0.0,0.0,0.0,0.0,0.0,0.0,0.0,0.0,0.0,0.0,0.0,0.0,0.0,0.0,0.0,0.0,0.0,0.0,0.0,0.0,0.0,0.0,0.0,0.0,0.0,0.0,0.0,0.0,0.0,0.0,0.0,0.0,0.0,0.0,0.0,0.0,0.0,0.0,0.0,0.0,0.0,0.0,0.0,0.0,0.0,0.0,0.0,0.0,0.0,0.0,0.0,0.0,0.0,0.0,0.0,0.0,0.0,0.0,0.0,0.0,0.0,0.0,0.0,0.0,0.0,0.0,0.0,0.0,0.0,0.0,0.0,0.0,0.0,0.0,0.0,0.0,0.0,0.0,0.0,0.0,0.0,0.0,0.0,0.0,0.0,0.0,0.0,0.0,0.0,0.0,0.0,0.0,0.0,0.0,0.0,0.0,0.0,0.0,0.0,0.0,0.0,0.0,0.0,0.0,0.0,0.0,0.0,0.0,0.0,0.0,0.0,0.0,0.0,0.0,0.0,0.0,0.0,0.0,0.0,0.0,0.0,0.0,0.0,0.0,0.0,0.0,0.0,0.0,0.0,0.0,0.0,0.0,0.0,0.0,0.0,0.0,0.0,0.0,0.0,0.0,0.0,0.0,0.0,0.0,0.0,0.0,0.0,0.0,0.0,0.0,0.0,0.0,0.0,0.0,0.0,0.0,0.0,0.0,0.0,0.0,0.0,0.0,0.0,0.0,0.0,0.0,0.0,0.0,0.0,0.0,0.0,0.0,0.0,0.0,0.0,0.0,0.0,0.0,0.0,0.0,0.0,0.0,0.0,0.0,0.0,0.0,0.0,0.0,0.0,0.0,0.0,0.0,0.0,0.0,0.0,0.0,0.0,0.0,0.0,0.0,0.0,0.0,0.0,0.0,0.0,0.0,0.0,0.0,0.0,0.0,0.0,0.0,0.0,0.0,0.0,0.0,0.0,0.0,0.0,0.0,0.0,0.0,0.0,0.0,0.0,0.0,0.0,0.0,0.0,0.0,0.0,0.0,0.0,0.0,0.0,0.0,0.0,0.0,0.0,0.0,0.0,0.0,0.0,0.0,0.0,0.0,0.0,0.0,0.0,0.0,0.0,0.0,0.0,0.0,0.0,0.0,0.0,0.0,0.0,0.0,0.0,0.0,0.0,0.0,0.0,0.0,0.0,0.0,0.0,0.0,0.0,0.0,0.0,0.0,0.0,0.0,0.0,0.0,0.0,0.0,0.0,0.0,0.0,0.0,0.0,0.0,0.0,0.0,0.0,0.0,0.0,0.0,0.0,0.0,0.0,0.0,0.0,0.0,0.0,0.0,0.0,0.0,0.0,0.0,0.0,0.0,0.0,0.0,0.0,0.0,0.0,0.0,0.0,0.0,0.0,0.0,0.0,0.0,0.0,0.0,0.0,0.0,0.0,0.0,0.0,0.0,0.0,0.0,0.0,0.0,0.0,0.0,0.0,0.0,0.0,0.0,0.0,0.0,0.0,0.0,0.0,0.0,0.0,0.0,0.0,0.0,0.0,0.0,0.0,0.0,0.0,0.0,0.0,0.0,0.0,0.0,0.0,0.0,0.0,0.0,0.0,0.0,0.0,0.0,0.0,0.0,0.0,0.0,0.0,0.0,0.0,0.0,0.0,0.0,0.0,0.0,0.0,0.0,0.0,0.0,0.0,0.0,0.0,0.0,0.0,0.0,0.0,0.0,0.0,0.0,0.0,0.0,0.0,0.0,0.0,0.0,0.0,0.0,0.0,0.0,0.0,0.0,0.0,0.0,0.0,0.0,0.0,0.0,0.0,0.0,0.0,0.0,0.0,0.0,0.0,0.0,0.0,0.0,0.0,0.0,0.0,0.0,0.0,0.0,0.0,0.0,0.0,0.0,0.0,0.0,0.0,0.0,0.0,0.0,0.0,0.0,0.0,0.0,0.0,0.0,0.0,0.0,0.0,0.0,0.0,0.0,0.0,0.0,0.0,0.0,0.0,0.0,0.0,0.0,0.0,0.0,0.0,0.0,0.0,0.0,0.0,0.0,0.0,0.0,0.0,0.0,0.0,0.0,0.0,0.0,0.0,0.0,0.0,0.0,0.0,0.0,0.0,0.0,0.0,0.0,0.0,0.0,0.0,0.0,0.0,0.0,0.0,0.0,0.0,0.0,0.0,0.0,0.0,0.0,0.0,0.0,0.0,0.0,0.0,0.0,0.0,0.0,0.0,0.0,0.0,0.0,0.0,0.0,0.0,0.0,0.0,0.0,0.0,0.0,0.0,0.0,0.0,0.0,0.0,0.0,0.0,0.0,0.0,0.0,0.0,0.0,0.0,0.0,0.0,0.0,0.0,0.0,0.0,0.0,0.0,0.0,0.0,0.0,0.0,0.0,0.0,0.0,0.0,0.0,0.0,0.0,0.0,0.0,0.0,0.0,0.0,0.0,0.0,0.0,0.0,0.0,0.0,0.0,0.0,0.0,0.0,0.0,0.0,0.0,0.0,0.0,0.0,0.0,0.0,0.0,0.0,0.0,0.0,0.0,0.0,0.0,0.0,0.0,0.0,0.0,0.0,0.0,0.0,0.0,0.0,0.0,0.0,0.0,0.0,0.0,0.0,0.0,0.0,0.0,0.0,0.0,0.0,0.0,0.0,0.0,0.0,0.0,0.0,0.0,0.0,0.0,0.0,0.0,0.0,0.0,0.0,0.0,0.0,0.0,0.0,0.0,0.0,0.0,0.0,0.0,0.0,0.0,0.0,0.0,0.0,0.0,0.0,0.0,0.0,0.0,0.0,0.0,0.0,0.0,0.0,0.0,0.0,0.0,0.0,0.0,0.0,0.0,0.0,0.0,0.0,0.0,0.0,0.0,0.0,0.0,0.0,0.0,0.0,0.0,0.0,0.0,0.0,0.0,0.0,0.0,0.0,0.0,0.0,0.0,0.0,0.0,0.0,0.0,0.0,0.0,0.0,0.0,0.0,0.0,0.0,0.0,0.0,0.0,0.0,0.0,0.0,0.0,0.0,0.0,0.0,0.0,0.0,0.0,0.0,0.0,0.0,0.0,0.0,0.0,0.0,0.0,0.0,0.0,0.0,0.0,0.0,0.0,0.0,0.0,0.0,0.0,0.0,0.0,0.0,0.0,0.0,0.0,0.0,0.0,0.0,0.0,0.0,0.0,0.0,0.0,0.0,0.0,0.0,0.0,0.0,0.0,0.0,0.0,0.0,0.0,0.0,0.0,0.0,0.0,0.0,0.0,0.0,0.0,0.0,0.0,0.0,0.0,0.0,0.0,0.0,0.0,0.0,0.0,0.0,0.0,0.0,0.0,0.0,0.0,0.0,0.0,0.0,0.0,0.0,0.0,0.0,0.0,0.0,0.0,0.0,0.0,0.0,0.0,0.0,0.0,0.0,0.0,0.0,0.0,0.0,0.0,0.0,0.0,0.0,0.0,0.0,0.0,0.0,0.0,0.0,0.0,0.0,0.0,0.0,0.0,0.0,0.0,0.0,0.0,0.0,0.0,0.0,0.0,0.0,0.0,0.0,0.0,0.0,0.0,0.0,0.0,0.0,0.0,0.0,0.0,0.0,0.0,0.0,0.0,0.0,0.0,0.0,0.0,0.0,0.0,0.0,0.0,0.0,0.0,0.0,0.0,0.0,0.0,0.0,0.0,0.0,0.0,0.0,0.0,0.0,0.0,0.0,0.0,0.0,0.0,0.0,0.0,0.0,0.0,0.0,0.0,0.0,0.0,0.0,0.0,0.0,0.0,0.0,0.0,0.0,0.0,0.0,0.0,0.0,0.0,0.0,0.0,0.0,0.0,0.0,0.0,0.0,0.0,0.0,0.0,0.0,0.0,0.0,0.0,0.0,0.0,0.0,0.0,0.0,0.0,0.0,0.0,0.0,0.0,0.0,0.0,0.0,0.0,0.0,0.0,0.0,0.0,0.0,0.0,0.0,0.0,0.0,0.0,0.0,0.0,0.0,0.0,0.0,0.0,0.0,0.0,0.0,0.0,0.0,0.0,0.0,0.0,0.0,0.0,0.0,0.0,0.0,0.0,0.0,0.0,0.0,0.0,0.0,0.0,0.0,0.0,0.0,0.0,0.0,0.0,0.0,0.0,0.0,0.0,0.0,0.0,0.0,0.0,0.0,0.0,0.0,0.0,0.0,0.0,0.0,0.0,0.0,0.0,0.0,0.0,0.0,0.0,0.0,0.0,0.0,0.0,0.0,0.0,0.0,0.0,0.0,0.0,0.0,0.0,0.0,0.0,0.0,0.0,0.0,0.0,0.0,0.0,0.0,0.0,0.0,0.0,0.0,0.0,0.0,0.0,0.0,0.0,0.0,0.0,0.0,0.0,0.0,0.0,0.0,0.0,0.0,0.0,0.0,0.0,0.0,0.0,0.0,0.0,0.0,0.0,0.0,0.0,0.0,0.0,0.0,0.0,0.0,0.0,0.0,0.0,0.0,0.0,0.0,0.0,0.0,0.0,0.0,0.0,0.0,0.0,0.0,0.0,0.0,0.0,0.0,0.0,0.0,0.0,0.0,0.0,0.0,0.0,0.0,0.0,0.0,0.0,0.0,0.0,0.0,0.0,0.0,0.0,0.0,0.0,0.0,0.0,0.0,0.0,0.0,0.0,0.0,0.0,0.0,0.0,0.0,0.0,0.0,0.0,0.0,0.0,0.0,0.0,0.0,0.0,0.0,0.0,0.0,0.0,0.0,0.0,0.0,0.0,0.0,0.0,0.0,0.0,0.0,0.0,0.0,0.0,0.0,0.0,0.0,0.0,0.0,0.0,0.0,0.0,0.0,0.0,0.0,0.0,0.0,0.0,0.0,0.0,0.0,0.0,0.0,0.0,0.0,0.0,0.0,0.0,0.0,0.0,0.0,0.0,0.0,0.0,0.0,0.0,0.0,0.0,0.0,0.0,0.0,0.0,0.0,0.0,0.0,0.0,0.0,0.0,0.0,0.0,0.0,0.0,0.0,0.0,0.0,0.0,0.0,0.0,0.0,0.0,0.0,0.0,0.0,0.0,0.0,0.0,0.0,0.0,0.0,0.0,0.0,0.0,0.0,0.0,0.0,0.0,0.0,0.0,0.0,0.0,0.0,0.0,0.0,0.0,0.0,0.0,0.0,0.0,0.0,0.0,0.0,0.0,0.0,0.0,0.0,0.0,0.0,0.0,0.0,0.0,0.0,0.0,0.0,0.0,0.0,0.0,0.0,0.0,0.0,0.0,0.0,0.0,0.0,0.0,0.0,0.0,0.0,0.0,0.0,0.0,0.0,0.0,0.0,0.0,0.0,0.0,0.0,0.0,0.0,0.0,0.0,0.0,0.0,0.0,0.0,0.0,0.0,0.0,0.0,0.0,-0.9576,0.0,0.0,0.0,0.0,0.0,0.0,0.0,0.0,0.0,0.0,0.0,0.0,0.0,0.0,0.0,0.0,0.0,0.0,0.0,0.0,0.0,0.0,0.0,0.0,-0.9959,-0.9924,-0.986,-0.9755,-0.9702,-0.9744,0.0,0.0,0.0,0.0,0.0,-0.9496,-0.9426,-0.9623,-1.0073,-1.0,-1.0392,-1.1228,-1.1621,-1.1324,-1.0443,0.0,0.0,0.0,0.0,0.0,0.0,0.0,0.0,0.0,0.0,0.0,0.0,0.0,0.0,0.0,0.0,0.0,0.0,0.0,0.0,0.0,0.0,0.0,0.0,0.0,0.0,0.0,0.0,0.0,0.0,0.0,0.0,0.0,0.0,0.0,0.0,0.0,0.0,0.0,0.0,0.0,0.0,0.0,0.0,0.0,0.0,0.0,0.0,0.0,0.0,0.0,0.0,0.0,0.0,0.0,0.0,0.0,0.0,0.0,0.0,0.0,0.0,0.0,0.0,0.0,0.0,0.0,0.0,0.0,0.0,0.0,-1.1736,0.0,0.0,0.0,0.0,0.0,0.0,0.0,0.0,0.0,0.0,0.0,0.0,0.0,0.0,0.0,0.0,0.0,0.0,0.0,0.0,0.0,-1.009,-1.0018,-1.0001,-0.997,-0.9922,-0.9902,-0.9899,-0.9913,-0.985,0.0,0.0,0.0,-0.971,-0.9725,-0.9603,-1.0001,-1.0923,-1.1077,-1.2044,-1.3769,-1.444,-1.3995,-1.2601,-1.149,0.0,0.0,0.0,0.0,0.0,0.0,0.0,0.0,0.0,0.0,0.0,0.0,0.0,0.0,0.0,0.0,0.0,0.0,0.0,0.0,0.0,0.0,0.0,0.0,0.0,0.0,0.0,0.0,0.0,0.0,0.0,0.0,0.0,0.0,0.0,0.0,0.0,0.0,0.0,0.0,0.0,0.0,0.0,0.0,0.0,0.0,0.0,0.0,0.0,0.0,0.0,0.0,0.0,0.0,0.0,0.0,0.0,0.0,0.0,0.0,0.0,0.0,0.0,-1.7613,-1.8087,-1.8087,-1.8132,-1.8443,-1.8782,-1.6479,-1.5965,-1.6563,0.0,0.0,0.0,0.0,0.0,0.0,0.0,0.0,0.0,0.0,0.0,0.0,0.0,0.0,0.0,0.0,0.0,0.0,0.0,0.0,-1.0165,-1.0092,-1.0024,-0.9992,-0.9982,-0.9936,-0.9924,-0.9977,-0.9869,0.0,0.0,-0.9772,-0.9717,-0.9777,-0.9767,-1.0153,-1.0997,-1.2317,-1.384,-1.5559,-1.5666,-1.599,-1.6376,-1.3992,-1.3318,-1.3808,0.0,0.0,0.0,0.0,0.0,0.0,0.0,0.0,0.0,0.0,0.0,0.0,0.0,0.0,0.0,0.0,0.0,0.0,0.0,0.0,0.0,0.0,0.0,0.0,0.0,0.0,0.0,0.0,0.0,0.0,0.0,0.0,0.0,0.0,0.0,0.0,0.0,0.0,0.0,0.0,0.0,-1.0551,-1.1327,0.0,0.0,0.0,0.0,0.0,0.0,0.0,0.0,0.0,0.0,0.0,0.0,0.0,-1.6974,-1.7575,-1.9472,-2.0425,-2.0395,-2.173,-2.239,-2.239,-2.239,-2.2438,-2.2519,-2.2541,0.0,-1.8095,-1.7488,0.0,0.0,0.0,0.0,0.0,0.0,0.0,0.0,0.0,0.0,0.0,0.0,0.0,0.0,0.0,0.0,0.0,0.0,0.0,0.0,0.0,-1.0806,-1.0988,-1.1472,-1.1902,-1.176,-1.0852,-1.1111,-1.0913,-1.0001,-0.9857,-0.9828,-0.9863,-1.0348,-1.1433,-1.3189,-1.5766,-1.7404,-1.8168,-1.9066,-1.9645,-1.9835,-1.8229,-1.6602,-1.4928,-1.2964,0.0,0.0,0.0,0.0,0.0,0.0,0.0,0.0,0.0,0.0,0.0,0.0,0.0,0.0,0.0,0.0,0.0,0.0,0.0,0.0,0.0,0.0,0.0,0.0,0.0,0.0,0.0,0.0,0.0,0.0,0.0,0.0,0.0,0.0,0.0,0.0,0.0,0.0,0.0,-1.125,-1.2616,-1.319,-1.3914,-1.4124,0.0,0.0,0.0,0.0,0.0,0.0,0.0,0.0,0.0,-1.948,-1.9996,-2.0797,-2.1979,-2.2657,-2.302,-2.302,-2.3871,-2.4266,-2.4281,-2.446,-2.4545,-2.4562,-2.4758,-2.383,-2.2049,-2.0697,-1.9528,-1.8513,0.0,0.0,0.0,0.0,-1.7807,-1.8313,0.0,0.0,0.0,0.0,0.0,0.0,0.0,0.0,0.0,0.0,0.0,0.0,-1.1339,-1.1619,-1.2071,-1.2957,-1.3568,-1.3363,-1.2115,-1.214,-1.1646,-1.0381,-1.0055,-1.0021,-1.0254,-1.1522,-1.3409,-1.5894,-1.8595,-2.0106,-2.0548,-2.1801,-2.2242,-2.1984,-2.1426,-1.9541,-1.6659,-1.4848,-1.3551,-1.2626,0.0,0.0,0.0,0.0,0.0,0.0,0.0,0.0,0.0,0.0,0.0,0.0,0.0,0.0,0.0,0.0,0.0,0.0,0.0,0.0,0.0,0.0,0.0,0.0,0.0,0.0,0.0,0.0,0.0,0.0,0.0,0.0,0.0,0.0,0.0,0.0,0.0,-1.3026,-1.4509,-1.5182,-1.6387,-1.6834,0.0,0.0,0.0,0.0,0.0,0.0,-1.8731,-2.0008,-2.1432,-2.3021,-2.322,-2.3896,-2.5087,-2.4891,-2.4778,-2.4795,-2.527,-2.552,-2.552,-2.5771,-2.5934,-2.6029,-2.6029,-2.5952,-2.5642,-2.3524,-2.2276,-2.1599,-2.0312,-1.9531,-1.9273,-2.0568,-2.1191,-2.1628,0.0,0.0,0.0,0.0,0.0,0.0,0.0,0.0,0.0,0.0,0.0,-1.0526,-1.1407,-1.2189,-1.2997,-1.3863,-1.3904,-1.386,-1.3783,-1.226,-1.1329,-1.1233,-1.0385,-1.032,-1.1206,-1.3583,-1.6052,-1.8597,-1.9478,-2.0675,-2.2186,-2.2458,-2.2388,-2.2006,-2.2161,-2.1487,-2.0099,-1.7726,-1.6242,-1.5294,-1.296,0.0,0.0,0.0,0.0,0.0,0.0,0.0,0.0,0.0,0.0,0.0,0.0,0.0,0.0,0.0,0.0,0.0,0.0,0.0,0.0,0.0,0.0,0.0,0.0,0.0,0.0,0.0,0.0,0.0,0.0,0.0,0.0,0.0,0.0,0.0,0.0,0.0,0.0,-1.7197,-1.8465,0.0,0.0,0.0,0.0,-1.9598,-2.041,-2.1505,-2.2927,-2.3798,-2.4615,-2.5402,-2.5137,-2.5018,-2.5104,-2.5388,-2.5541,-2.5542,-2.6284,-2.6623,-2.6623,-2.6639,-2.6852,-2.7211,-2.7211,-2.7407,-2.7607,-2.5708,-2.4655,-2.4256,-2.4609,-2.4691,-2.4665,-2.5129,-2.5504,-2.5798,0.0,0.0,0.0,0.0,0.0,-1.0204,-1.0252,-1.0253,-1.0253,-1.0253,-1.0715,-1.1584,-1.3025,-1.3898,-1.4936,-1.6316,-1.6383,-1.5885,-1.4805,-1.3635,-1.2971,-1.2971,-1.2167,-1.2629,-1.4592,-1.6566,-1.8287,-1.9771,-2.1528,-2.2775,-2.3468,-2.3927,-2.4012,-2.3802,-2.3875,-2.324,-2.1942,-1.9491,-1.7986,-1.7032,-1.4628,-1.2842,0.0,0.0,0.0,0.0,0.0,0.0,0.0,0.0,0.0,0.0,0.0,0.0,0.0,0.0,0.0,0.0,0.0,0.0,0.0,0.0,0.0,0.0,0.0,0.0,0.0,0.0,0.0,0.0,0.0,0.0,0.0,0.0,0.0,0.0,0.0,0.0,0.0,-1.9605,-2.0898,0.0,-2.1234,-2.1666,-2.2278,-2.3049,-2.3658,-2.4313,-2.5068,-2.5368,-2.599,-2.6974,-2.7151,-2.7464,-2.7977,-2.8405,-2.8611,-2.8629,-2.9153,-2.9399,-2.9414,-2.9626,-2.9795,-2.9936,-2.9936,-2.9899,-2.9789,-2.9118,-2.7691,-2.5915,-2.5561,-2.5416,-2.5428,-2.5786,-2.6327,-2.6898,0.0,0.0,0.0,0.0,-1.0229,-1.0233,-1.0253,-1.0293,-1.0391,-1.0663,-1.117,-1.2278,-1.4329,-1.5263,-1.64,-1.8088,-1.7929,-1.7253,-1.6122,-1.4709,-1.3898,-1.3898,-1.3945,-1.5047,-1.7295,-1.8988,-2.0412,-2.1581,-2.315,-2.4047,-2.4353,-2.4851,-2.4923,-2.4599,-2.4738,-2.4276,-2.3281,-2.1363,-1.9913,-1.8713,-1.6585,-1.4915,-1.3576,0.0,0.0,0.0,0.0,0.0,0.0,0.0,0.0,0.0,0.0,0.0,0.0,0.0,0.0,0.0,0.0,0.0,0.0,0.0,0.0,0.0,0.0,0.0,0.0,0.0,0.0,0.0,0.0,0.0,0.0,0.0,0.0,0.0,0.0,0.0,-2.0219,-2.1514,-2.2831,-2.3621,-2.3545,-2.4224,-2.4893,-2.5437,-2.6002,-2.6441,-2.6647,-2.7197,-2.7825,-2.8594,-2.9014,-2.9498,-3.0035,-3.0219,-3.0308,-3.0308,-3.0563,-3.0697,-3.0711,-3.093,-3.1109,-3.1232,-3.1232,-3.1167,-3.1061,-3.1061,-2.9998,-2.8303,-2.7642,-2.7448,-2.7589,-2.781,-2.8274,-2.8865,0.0,0.0,0.0,-1.0207,-1.0253,-1.0273,-1.0209,-1.0253,-1.0586,-1.1401,-1.1523,-1.2536,-1.5156,-1.6153,-1.7305,-1.8961,-1.8304,-1.7761,-1.7667,-1.5308,-1.3918,-1.3975,-1.5692,-1.7411,-1.903,-2.0716,-2.2408,-2.411,-2.4125,-2.4367,-2.4825,-2.5138,-2.4904,-2.4237,-2.4623,-2.4586,-2.4153,-2.3373,-2.2107,-2.0474,-1.8823,-1.7686,-1.6688,0.0,0.0,0.0,0.0,0.0,0.0,0.0,0.0,0.0,0.0,0.0,0.0,0.0,0.0,0.0,0.0,0.0,0.0,0.0,0.0,0.0,0.0,0.0,0.0,0.0,0.0,0.0,0.0,0.0,0.0,0.0,0.0,0.0,-1.9103,-2.0298,-2.159,-2.2941,-2.4205,-2.5089,-2.5446,-2.6172,-2.6657,-2.6712,-2.7438,-2.789,-2.7908,-2.9384,-3.0246,-3.0246,-3.0693,-3.0948,-3.0948,-3.0588,-3.0409,-3.0409,-3.0409,-3.0409,-3.0409,-3.0409,-3.062,-3.1002,-3.1002,-3.1174,-3.147,-3.147,-3.147,-3.1445,-3.1066,-3.1114,-3.1397,-3.1397,-3.1577,-3.1835,0.0,0.0,-1.0273,-1.0273,-1.0293,-1.0293,-1.0273,-1.0293,-1.0605,-1.1464,-1.2129,-1.3496,-1.6055,-1.706,-1.7989,-1.9071,-1.833,-1.7528,-1.6878,-1.4997,-1.4459,-1.5734,-1.8581,-2.0331,-2.0792,-2.2509,-2.3624,-2.411,-2.4549,-2.4889,-2.5154,-2.5118,-2.493,-2.4639,-2.4753,-2.4586,-2.419,-2.3951,-2.3602,-2.2997,-2.0731,-1.9006,-1.7631,0.0,0.0,0.0,0.0,0.0,0.0,0.0,0.0,0.0,0.0,0.0,0.0,0.0,0.0,0.0,0.0,0.0,0.0,0.0,0.0,0.0,0.0,0.0,0.0,0.0,0.0,0.0,0.0,0.0,0.0,0.0,0.0,-2.1452,-2.1679,-2.2645,-2.3898,-2.5436,-2.5915,-2.6399,-2.7071,-2.7328,-2.7952,-2.9127,-2.942,-2.9787,-3.0387,-3.0827,-3.1072,-3.1072,-3.1754,-3.2122,-3.2122,-3.2602,-3.2853,-3.2853,-3.2853,-3.2853,-3.2853,-3.2853,-3.2894,-3.2994,-3.2994,-3.3048,-3.3128,-3.3128,-3.3246,-3.3283,-3.1837,-3.1321,-3.1397,-3.1397,-3.1577,-3.1835,0.0,-1.0222,-1.0273,-1.0293,-1.0293,-1.0293,-1.0253,-1.0273,-1.0605,-1.1444,-1.2344,-1.373,-1.5918,-1.6892,-1.7735,-1.8588,-1.7826,-1.7074,-1.6532,-1.5558,-1.5923,-1.8003,-2.0273,-2.1831,-2.2566,-2.3908,-2.4601,-2.4601,-2.4949,-2.5146,-2.5168,-2.5146,-2.4999,-2.4804,-2.4862,-2.4682,-2.433,-2.433,-2.4275,-2.4061,-2.263,-2.1281,-2.0034,-1.8852,-1.7825,-1.697,-1.6628,-1.6071,-1.5515,-1.5515,0.0,0.0,0.0,0.0,0.0,0.0,0.0,0.0,0.0,0.0,0.0,0.0,0.0,0.0,0.0,0.0,0.0,0.0,0.0,0.0,0.0,0.0,0.0,0.0,-2.2182,-2.3687,-2.4691,-2.5047,-2.5676,-2.6943,-2.7108,-2.7548,-2.8686,-2.8815,-2.9329,-3.0613,-3.0705,-3.0907,-3.1378,-3.1715,-3.1898,-3.1898,-3.2687,-3.3096,-3.3096,-3.3568,-3.3807,-3.3807,-3.3807,-3.3807,-3.3807,-3.3807,-3.3807,0.0,-3.3807,-3.3807,-3.382,-3.3928,-3.4068,0.0,0.0,0.0,0.0,0.0,-3.2967,-3.3072,0.0,-1.0195,-1.023,-1.0293,-1.0293,-1.0273,-1.0229,-1.0253,-1.0586,-1.1402,-1.2323,-1.3535,-1.5215,-1.6172,-1.6987,-1.7693,-1.7052,-1.6567,-1.6496,-1.6679,-1.783,-2.0192,-2.1254,-2.2528,-2.4072,-2.4889,-2.5308,-2.5308,-2.5308,-2.5208,-2.5034,-2.5214,-2.5132,-2.4821,-2.4943,-2.4824,-2.4537,-2.4512,-2.4401,-2.4237,-2.4199,-2.3731,-2.2841,-2.1355,-2.0731,-2.0548,-1.9848,-1.8665,-1.744,-1.744,0.0,0.0,0.0,0.0,0.0,0.0,0.0,0.0,0.0,0.0,0.0,0.0,0.0,0.0,0.0,0.0,0.0,0.0,0.0,0.0,0.0,0.0,0.0,0.0,-2.3969,-2.5346,-2.7504,-2.7255,-2.7145,-2.7842,-2.8018,-2.8631,-3.0063,-3.0283,-3.0668,-3.1458,-3.1544,-3.158,-3.1672,0.0,0.0,0.0,0.0,-3.3807,-3.3807,-3.3807,-3.3807,-3.3807,-3.3807,-3.3807,-3.3807,-3.3807,-3.3807,-3.3807,-3.3807,-3.3807,-3.3815,-3.4086,-3.4235,-3.4292,-3.4258,-3.4434,-3.4724,-3.4999,-3.4954,-3.4832,0.0,-1.0195,-1.023,-1.0293,-1.0293,-1.0293,-1.0273,-1.0293,-1.0605,-1.1465,-1.2344,-1.3535,-1.5215,-1.6172,-1.6734,-1.6847,-1.6706,-1.6567,-1.6496,-1.7779,-1.9046,-2.025,-2.2412,-2.3744,-2.4091,-2.4889,-2.5308,-2.5308,-2.5308,-2.5274,-2.5234,-2.5274,-2.5187,-2.4962,-2.4992,-2.4898,-2.4731,-2.4578,-2.4478,-2.4436,-2.4275,-2.3731,-2.2969,-2.2639,-2.2116,-2.1537,-2.1372,-2.1115,-2.0858,-2.0858,-1.9326,-1.7374,-1.7215,-1.5839,0.0,0.0,0.0,0.0,0.0,0.0,0.0,0.0,0.0,0.0,0.0,0.0,0.0,0.0,0.0,0.0,0.0,0.0,0.0,-2.373,-2.5731,-2.7284,-2.7732,-2.8216,-2.8601,-2.8748,-2.9347,-2.9861,-3.0173,-3.0797,-3.1494,-3.2307,-3.2375,-3.2651,-3.3293,-3.3476,0.0,-3.3568,-3.3715,-3.3807,-3.3807,-3.3807,-3.3807,-3.3807,0.0,0.0,-3.3807,-3.3807,-3.3807,-3.3807,-3.3807,-3.3807,-3.3815,-3.4086,-3.4481,-3.4907,-3.4685,-3.4643,-3.4724,-3.4999,-3.507,-3.507,-1.0184,-1.0205,-1.0219,-1.0231,-1.0273,-1.0293,-1.0293,-1.0293,-1.0469,-1.0898,-1.1719,-1.2578,-1.3418,-1.4277,-1.4763,-1.4696,-1.544,-1.6077,-1.6474,-1.8488,-2.0215,-2.1504,-2.3182,-2.4298,-2.4697,-2.5096,-2.5308,-2.5308,-2.5308,-2.5308,-2.5308,-2.5308,-2.5253,-2.5152,-2.5152,-2.5053,-2.4897,-2.4783,-2.464,-2.4495,-2.4393,-2.4045,-2.3602,-2.3602,-2.3345,-2.3006,-2.3006,-2.274,-2.2391,-2.2391,-2.1308,-1.9811,-1.8959,-1.7876,-1.6518,0.0,0.0,0.0,0.0,0.0,0.0,0.0,0.0,0.0,0.0,0.0,0.0,0.0,0.0,-1.9984,0.0,0.0,-2.4486,-2.5795,-2.6998,-2.7934,-2.8338,-2.8748,-2.9152,-2.9537,-2.9971,-3.0522,-3.1317,-3.177,-3.2339,-3.3146,-3.3201,-3.3385,-3.377,-3.3807,-3.3807,-3.3807,-3.3807,-3.3807,-3.3807,-3.3807,-3.3807,-3.3807,-3.3807,-3.4009,-3.4399,-3.4399,-3.4723,-3.5258,-3.5258,-3.5342,-3.5532,-3.5778,-3.5903,-3.589,-3.5738,-3.5378,-3.4935,-3.5207,-3.5215,-3.513,-1.0197,-1.0191,-1.0205,-1.0227,-1.0253,-1.0293,-1.0293,-1.0293,-1.0293,-1.0293,-1.1055,-1.1602,-1.1602,-1.2383,-1.2869,-1.2811,-1.4126,-1.5405,-1.6433,-1.8888,-2.1043,-2.274,-2.3778,-2.4639,-2.5288,-2.5308,-2.5308,-2.5308,-2.5308,-2.5308,-2.5308,-2.5308,-2.5308,-2.5308,-2.5308,-2.5214,-2.5046,-2.4986,-2.4816,-2.4543,-2.4469,-2.4339,-2.419,-2.419,-2.419,-2.4171,-2.4025,-2.3547,-2.2988,-2.2822,-2.2226,-2.1317,-1.9958,-1.9426,-1.8765,-1.6004,-1.5545,0.0,0.0,0.0,0.0,0.0,0.0,0.0,0.0,0.0,-1.9156,-2.0854,-2.1902,-2.2872,-2.4114,-2.5189,-2.6292,-2.7596,-2.8062,-2.8484,-2.9133,-2.9225,-2.9537,-3.0338,-3.043,-3.0944,-3.2234,-3.2638,-3.3096,-3.3752,-3.3807,-3.3807,-3.3807,-3.3807,-3.3807,-3.3807,-3.3807,-3.388,-3.4027,-3.4027,-3.4119,-3.4284,-3.4284,-3.4633,-3.5261,-3.5261,-3.5776,-3.6702,-3.6777,-3.6983,-3.7285,-3.7518,-3.733,-3.6942,-3.6942,-3.6431,-3.5646,-3.554,-3.5369,-3.5207,0.0,-1.0199,-1.0229,-1.0272,-1.0293,-1.0293,-1.0293,-1.0293,-1.0293,-1.0293,-1.1055,-1.1602,-1.1602,-1.2383,-1.2868,-1.2813,-1.3612,-1.4806,-1.6394,-1.8888,-2.1043,-2.274,-2.4312,-2.5212,-2.5308,-2.5308,-2.5308,-2.5308,-2.5308,-2.5308,-2.5308,-2.5308,-2.5308,-2.5308,-2.5308,-2.5298,-2.5253,-2.4949,-2.4811,-2.4738,-2.4375,-2.4218,-2.419,-2.419,-2.419,-2.4116,-2.3391,-2.3079,-2.2896,-2.218,-2.1363,-2.0621,-2.0419,-1.9877,-1.9095,-1.8005,-1.7245,-1.6725,-1.6542,-1.7154,-1.7997,-1.8695,-1.8844,-1.979,0.0,0.0,-2.2842,-2.5346,-2.5947,-2.6086,-2.624,-2.6969,-2.7596,-2.778,-2.8998,-2.9953,-3.0063,-3.0081,-3.0356,-3.1176,-3.1268,-3.1342,-3.1525,-3.2834,-3.3697,-3.3788,-3.3807,-3.3807,-3.3807,-3.3807,-3.3807,-3.3807,-3.3807,-3.4137,-3.4857,-3.4876,-3.5243,-3.6009,-3.6009,-3.6064,-3.6156,-3.6156,-3.6348,-3.6715,-3.7017,-3.7296,-3.7555,-3.7583,-3.7702,-3.7853,-3.7853,-3.7781,-3.7497,-3.6031,-3.5486,-3.5453,0.0,-1.0202,-1.0205,-1.0237,-1.0271,-1.0293,-1.0252,-1.0232,-1.0232,-1.0232,-1.0564,-1.0799,-1.084,-1.1172,-1.1364,-1.129,-1.2945,-1.4504,-1.566,-1.8596,-2.1043,-2.274,-2.3971,-2.4812,-2.5288,-2.5308,-2.5308,-2.5308,-2.5308,-2.5308,-2.5308,-2.5308,-2.5308,-2.5284,-2.5173,-2.5135,-2.5105,-2.4889,-2.4731,-2.4607,-2.4435,-2.4303,-2.4153,-2.3676,-2.3511,-2.3456,-2.3116,-2.2703,0.0,-2.1904,-2.1555,-2.1161,-2.0658,-1.995,-1.915,-1.8335,-1.8188,0.0,-2.0071,-2.0694,-2.1135,0.0,-2.2465,-2.3225,-2.4997,-2.5167,-2.5283,-2.6371,-2.6979,-2.7291,-2.7291,-2.7952,-2.865,0.0,-2.9769,-3.0356,-3.0834,-3.0503,-3.032,-3.065,-3.0705,-3.1072,-3.2008,-3.2706,-3.3311,-3.3752,-3.3807,-3.4009,-3.4472,-3.4491,-3.4743,-3.5238,-3.5238,-3.5422,-3.5752,-3.5771,-3.5936,-3.6303,-3.6303,-3.6556,-3.6997,-3.6997,-3.7507,-3.8411,-3.8918,-3.9186,-3.9301,-3.9301,-3.9073,-3.8757,-3.8757,-3.845,-3.7911,-3.7219,-3.6949,-3.6892,0.0,-1.0191,-1.0201,-1.019,-1.024,-1.0269,-1.0202,-1.0201,-1.0203,-1.0207,-1.0207,-1.023,-1.0293,-1.0273,-1.0249,-1.0198,-1.2308,-1.3988,-1.4791,-1.8038,-2.0581,-2.2043,-2.3394,-2.4375,-2.4966,-2.5192,-2.5308,-2.5308,-2.5308,-2.5308,-2.5308,-2.5308,-2.5308,-2.5284,-2.5152,-2.5046,-2.4998,-2.4862,-2.4685,-2.4495,-2.4435,-2.421,-2.3804,-2.3226,-2.2592,-2.2039,-2.1996,-2.1602,-2.1041,-2.0601,-2.0446,-2.0372,-1.996,-1.9436,-1.8941,-1.8805,-1.951,-2.0666,-2.2244,-2.3162,0.0,-2.4116,-2.497,-2.5797,-2.6017,-2.6502,-2.6998,-2.7207,-2.7732,-2.8136,-2.8136,-2.8601,-2.9262,-3.0081,-3.0393,-3.0815,-3.1623,-3.1035,-3.0522,-3.0522,-3.0136,-3.0491,-3.2106,-3.2472,-3.2931,-3.3733,-3.4009,-3.438,-3.4968,-3.5224,-3.5646,-3.6266,-3.6303,-3.6413,-3.6615,-3.6615,-3.6743,-3.6964,-3.6964,-3.7257,-3.7841,-3.7923,-3.8537,-3.9634,-4.0148,-4.0422,-4.0496,-4.0496,-4.0169,-3.9631,-3.9631,-3.9246,-3.8681,-3.8681,-3.8392,-3.7911,0.0,0.0,-1.0201,-1.019,-1.0196,-1.0197,-1.0196,-1.0196,-1.0205,-1.0205,-1.0207,-1.023,-1.0293,-1.0232,-1.0201,-1.0197,-1.1767,-1.3071,-1.3882,-1.7141,-1.9431,-2.0346,-2.2778,-2.411,-2.4149,-2.4909,-2.5308,-2.5308,-2.5308,-2.5308,-2.5308,-2.5308,-2.5308,-2.5308,-2.5284,-2.5173,-2.4998,-2.4862,-2.4685,-2.4486,-2.4284,-2.374,-2.3024,-2.3006,-2.1594,-1.9592,-1.946,-1.9407,-1.915,-1.7575,-1.7055,-1.7183,-1.7942,-1.817,0.0,-1.9979,-2.1593,-2.2731,-2.2033,0.0,-2.5154,-2.4392,-2.5383,-2.6778,-2.7559,-2.7761,-2.797,-2.8767,-2.895,-2.8968,-2.8968,-2.8987,-2.9262,-3.0081,-3.0852,-3.1641,-3.2454,-3.1861,-3.136,-3.136,-2.9989,-2.9666,0.0,-3.2137,-3.2931,-3.3733,-3.4509,-3.4968,-3.5004,-3.5807,-3.6266,-3.6303,-3.6303,-3.6684,-3.7456,-3.7456,-3.786,-3.8634,-3.8634,-3.8652,-3.8686,-3.892,-3.9245,-3.9622,-3.9953,-4.025,-4.0496,-4.0496,-4.0496,-4.0458,-4.0458,-4.0458,-4.0419,-4.0419,-3.94,-3.8007,0.0,0.0,0.0,-1.0122,-1.0124,-1.0124,-1.0124,-1.017,-1.0192,-1.0203,-1.0194,0.0,0.0,0.0,0.0,0.0,-1.1192,-1.2414,-1.3805,-1.6061,-1.8238,-2.0212,-2.1639,-2.2643,-2.322,-2.4067,-2.4509,-2.4509,-2.5038,-2.5308,-2.5308,-2.5308,-2.5308,-2.5284,-2.5157,-2.5052,-2.4973,-2.4708,-2.4551,-2.4449,-2.3704,-2.3244,-2.2951,-2.2516,-2.11,-1.9313,0.0,-1.8339,-1.7736,-1.7107,-1.6908,-1.7037,-1.7851,-1.7722,-1.7715,-1.9861,-2.13,-2.2492,-2.3832,0.0,-2.5595,-2.6403,-2.6998,-2.7603,-2.84,-2.8601,-2.851,-2.8264,-2.8209,-2.8044,-2.7501,-2.7842,-2.8466,-2.9262,-3.0522,-3.1678,-3.2491,-3.2375,-3.221,-3.221,-3.1256,0.0,0.0,0.0,0.0,-3.3697,-3.4546,-3.5261,-3.5844,-3.6652,-3.7331,-3.7881,-3.79,-3.8028,-3.8285,-3.8303,-3.8432,-3.8707,-3.8707,-3.8707,-3.8723,-3.8971,-3.9276,-3.9622,-3.9943,-4.0241,-4.0496,-4.0496,-4.0496,-4.0496,-4.0496,-4.0496,-4.0496,-4.0496,-4.015,-3.9592,0.0,0.0,0.0,0.0,0.0,0.0,0.0,0.0,0.0,0.0,0.0,0.0,0.0,0.0,0.0,0.0,0.0,-1.186,-1.2942,-1.4904,-1.6772,-1.8404,-1.9846,-2.0865,-2.1427,-2.2297,-2.2874,-2.3163,-2.3697,-2.4096,-2.4404,-2.4404,-2.4404,-2.4399,-2.4214,-2.4127,-2.4079,-2.375,-2.3609,-2.3512,-2.2515,-2.1924,-2.1601,-2.0877,-1.9552,0.0,-1.7597,-1.6915,-1.6222,-1.6085,-1.623,-1.6658,-1.7759,-1.8548,-1.9384,-2.0951,-2.2208,-2.341,-2.497,-2.5815,-2.6513,-2.7541,-2.8026,-2.8363,-2.8877,-2.8785,-2.8429,-2.7908,-2.7567,-2.7218,-2.6704,-2.7016,-2.7732,-2.8822,-3.0118,-3.1347,-3.2454,-3.2601,-3.2601,-3.2601,-3.188,-3.1715,0.0,0.0,0.0,-3.3697,-3.4821,-3.5701,-3.6266,-3.7331,-3.8175,-3.8689,-3.8707,-3.8707,-3.8707,-3.8707,-3.8707,-3.8707,-3.8707,-3.8747,-3.8859,-3.9022,-3.9339,-3.9786,-4.0002,-4.0241,-4.0496,-4.0496,-4.0496,-4.0496,-4.0496,-4.0496,-4.0496,-4.0496,-4.0496,-4.0439,0.0,0.0,0.0,0.0,0.0,0.0,0.0,0.0,0.0,0.0,0.0,0.0,0.0,0.0,0.0,0.0,0.0,0.0,-1.1408,-1.3695,-1.5096,-1.5135,-1.7535,-1.8862,-1.8862,-1.9769,-2.0615,-2.137,-2.1427,-2.187,-2.2663,-2.2663,-2.2663,-2.2677,-2.2546,-2.2459,-2.2378,-2.2031,-2.1891,-2.1804,-2.0784,-1.9932,-1.9168,-1.8405,-1.718,-1.5876,-1.5796,-1.5308,-1.4671,-1.4637,-1.5221,-1.6225,0.0,-2.0391,-2.2969,-2.3052,-2.4135,-2.5374,-2.5485,-2.6641,-2.7816,-2.7842,-2.8448,-2.8987,-2.895,-2.8356,-2.775,-2.7651,-2.7016,-2.6437,0.0,0.0,-2.6987,-2.8565,-2.9592,-3.076,-3.2307,-3.2601,-3.2674,0.0,0.0,0.0,0.0,0.0,0.0,-3.3862,0.0,-3.6321,-3.6358,-3.7845,-3.8707,-3.8707,-3.8707,-3.8707,-3.8707,-3.8707,-3.8707,-3.8707,-3.8707,-3.8844,-3.9112,-3.9112,-3.9481,-4.0101,-4.0101,-4.0241,-4.0496,-4.0496,-4.0496,-4.0496,-4.0496,-4.0496,-4.0496,-4.0496,-4.0496,-4.0496,0.0,0.0,0.0,0.0,0.0,0.0,0.0,0.0,0.0,0.0,0.0,0.0,0.0,0.0,0.0,0.0,0.0,0.0,-1.137,-1.262,-1.3599,-1.4209,-1.6096,-1.7138,-1.7138,-1.8577,-1.9423,-1.9646,-2.0292,-2.0712,-2.0946,-2.0946,-2.0946,-2.0942,-2.0894,-2.0881,-2.0845,-2.0603,-2.0443,-2.0264,-1.9271,-1.8682,-1.8393,-1.8333,-1.725,-1.5845,-1.6568,-1.5846,-1.4729,0.0,0.0,0.0,0.0,-2.0971,-2.2463,0.0,0.0,-2.4897,-2.6696,-2.7486,-2.7934,-2.8528,-2.8858,-2.884,-2.8246,-2.7952,-2.7291,-2.5493,-2.4942,-2.4447,0.0,0.0,0.0,-2.6146,-2.8503,0.0,-3.1549,-3.2742,0.0,-3.4325,0.0,-3.4417,-3.5275,-3.5367,0.0,0.0,-3.6064,-3.656,-3.7162,-3.8157,-3.8707,-3.8707,-3.8707,-3.8707,-3.8707,-3.8707,-3.8707,-3.8707,-3.8707,-3.8844,-3.9112,-3.9112,-3.9481,-4.0101,-4.0101,-4.0241,-4.0496,-4.0496,-4.0496,-4.0496,-4.0496,-4.0496,-4.0496,-4.0496,-4.0496,-4.0496,0.0,0.0,0.0,0.0,0.0,0.0,0.0,0.0,0.0,0.0,0.0,0.0,0.0,0.0,0.0,0.0,0.0,0.0,0.0,-1.1658,-1.2332,-1.2786,-1.4118,-1.4833,-1.4833,-1.6064,-1.6725,-1.6723,-1.7524,-1.814,-1.8508,-1.8528,-1.8751,-1.9119,-1.9088,-1.9092,-1.9143,-1.8849,-1.8709,0.0,0.0,-1.7112,-1.7027,-1.6781,-1.6053,-1.5251,-1.5805,-1.6263,0.0,0.0,0.0,-2.1421,-2.1954,-2.2814,-2.3839,-2.4919,0.0,-2.608,-2.742,-2.8062,-2.8448,-2.8895,-2.873,-2.8264,-2.7457,-2.6722,-2.5731,-2.4025,-2.3382,0.0,-2.1959,0.0,0.0,0.0,0.0,0.0,-3.125,-3.2779,-3.41,0.0,-3.5004,0.0,-3.6211,-3.6303,-3.645,0.0,-3.6831,-3.7015,-3.7474,-3.8267,-3.8707,-3.8707,-3.8707,-3.8707,-3.8707,-3.8707,-3.8707,-3.8707,-3.8707,-3.8844,-3.9093,-3.9251,-3.9611,-4.0101,0.0,-4.0364,-4.0496,-4.0496,-4.0496,-4.0496,-4.0496,-4.0496,-4.0496,-4.0496,-4.0496,-4.0496,0.0,0.0,0.0,0.0,0.0,0.0,0.0,0.0,0.0,0.0,0.0,0.0,0.0,0.0,0.0,0.0,0.0,0.0,0.0,0.0,-1.1235,-1.1235,-1.2065,-1.2524,-1.2519,-1.3248,-1.3618,-1.3615,-1.4369,-1.5111,-1.5871,-1.6032,-1.6518,-1.7234,-1.7189,-1.7224,-1.7304,-1.6958,-1.6862,-1.6869,-1.594,-1.557,-1.5454,0.0,-1.4493,-1.4493,-1.4493,-1.6426,0.0,0.0,-2.1232,-2.255,-2.3815,-2.4894,-2.582,-2.6418,-2.7163,-2.7824,-2.7934,-2.8473,-2.9005,-2.9005,-2.8411,-2.7548,-2.6649,-2.5199,-2.3749,-2.2712,0.0,-2.1445,-2.1335,-2.2152,-2.3364,-2.497,0.0,-2.9427,-3.1158,-3.2687,-3.4027,-3.5041,-3.5169,-3.5555,-3.6523,-3.6615,-3.6909,-3.7621,-3.7658,-3.7658,-3.7658,-3.8322,-3.8707,-3.8707,-3.8707,-3.8707,-3.8707,-3.8707,-3.8707,-3.8707,-3.8707,-3.8844,-3.9112,-3.9389,-3.9742,-4.011,0.0,0.0,-4.0496,-4.0496,-4.0496,-4.0496,-4.0496,-4.0496,-4.0496,-4.0496,-4.0496,-4.0496,0.0,0.0,0.0,0.0,0.0,0.0,0.0,0.0,0.0,0.0,-1.044,-1.0015,0.0,0.0,0.0,0.0,0.0,0.0,0.0,0.0,0.0,-1.0327,-1.1156,-1.1602,-1.1538,-1.2319,-1.2706,-1.2642,0.0,-1.3906,-1.4061,-1.4795,-1.5226,-1.5377,-1.5369,-1.5363,-1.538,-1.531,-1.524,-1.5134,-1.4953,-1.4814,-1.4695,-1.4548,0.0,0.0,-1.4493,-1.5716,-1.7539,-1.9014,-2.1536,-2.4079,-2.4164,-2.4894,-2.582,-2.6418,-2.7163,-2.7952,-2.8601,-2.8895,-2.9005,-2.9005,-2.8411,-2.7431,-2.5944,-2.4355,0.0,0.0,-1.9829,-1.9536,-1.8867,-2.0519,-2.2528,-2.4163,0.0,0.0,0.0,0.0,-3.361,0.0,0.0,0.0,0.0,0.0,0.0,0.0,0.0,-3.8487,-3.8487,-3.8615,-3.8707,-3.8707,-3.8707,-3.8707,-3.8707,-3.8707,-3.8707,-3.8707,-3.8707,-3.8844,-3.9093,-3.9165,-3.9529,-4.0101,-4.0148,0.0,-4.0496,-4.0496,-4.0496,-4.0496,-4.0496,-4.0496,-4.0496,-4.0496,-4.0496,-4.0496,0.0,0.0,0.0,0.0,0.0,0.0,0.0,-1.0713,-1.0953,-1.1771,-1.1449,-1.1001,-1.0617,-1.0196,0.0,0.0,0.0,0.0,0.0,0.0,0.0,0.0,-1.0426,-1.0605,-1.0576,0.0,0.0,0.0,0.0,0.0,0.0,0.0,0.0,0.0,0.0,0.0,0.0,-1.4822,-1.4761,-1.4683,0.0,0.0,0.0,0.0,0.0,0.0,0.0,0.0,-1.7649,-1.8427,-2.0912,-2.385,-2.4587,-2.5226,-2.5894,-2.6925,-2.7493,-2.797,-2.8785,-2.9005,-2.9005,-2.9005,-2.8069,-2.6741,-2.5136,0.0,0.0,0.0,-1.8335,-1.8052,-1.8089,-1.9399,0.0,-2.3235,0.0,0.0,0.0,0.0,0.0,0.0,0.0,0.0,0.0,0.0,0.0,0.0,0.0,-3.8707,-3.8707,-3.8707,-3.8707,-3.8707,-3.8707,-3.8707,-3.8707,-3.8707,-3.8707,-3.8707,-3.8707,-3.8777,-3.8913,-3.9036,-3.9276,-3.9587,-3.9765,0.0,-4.0285,-4.0285,-4.0372,-4.0496,-4.0496,-4.0496,-4.0496,-4.0496,-4.0496,-4.0496,0.0,0.0,0.0,0.0,0.0,0.0,0.0,-1.1267,-1.1538,-1.2551,-1.2416,-1.1975,-1.1371,-1.0616,-1.0084,0.0,0.0,0.0,0.0,0.0,0.0,0.0,0.0,0.0,0.0,0.0,0.0,0.0,0.0,0.0,0.0,0.0,0.0,0.0,0.0,0.0,0.0,0.0,0.0,0.0,0.0,0.0,0.0,0.0,0.0,0.0,0.0,0.0,0.0,0.0,-1.9814,-2.2254,-2.4052,-2.5078,-2.5847,-2.6951,-2.7541,-2.7934,-2.8565,-2.8877,-2.9005,-2.9005,-2.7794,-2.619,-2.4575,-2.2152,0.0,0.0,-1.7209,-1.689,-1.7686,0.0,-2.0105,0.0,-2.4208,-2.6274,0.0,0.0,0.0,0.0,0.0,0.0,0.0,0.0,0.0,0.0,0.0,0.0,-3.8707,-3.8707,-3.8707,-3.8707,-3.8707,-3.8707,-3.8707,-3.8707,-3.8707,-3.8707,-3.8707,-3.8707,-3.8707,-3.8923,-3.9049,-3.9107,-3.9377,0.0,0.0,-4.0101,-4.0269,-4.0496,-4.0496,-4.0496,-4.0496,-4.0496,-4.0496,-4.0496,0.0,0.0,0.0,0.0,0.0,0.0,0.0,-1.116,-1.1637,-1.3128,-1.2673,-1.215,-1.2022,-1.1344,-1.0606,0.0,0.0,0.0,0.0,0.0,0.0,0.0,0.0,0.0,0.0,0.0,0.0,0.0,0.0,0.0,0.0,0.0,0.0,0.0,0.0,0.0,0.0,0.0,0.0,0.0,0.0,0.0,0.0,0.0,0.0,0.0,0.0,0.0,0.0,0.0,0.0,-1.8977,-2.1372,-2.3649,-2.5441,-2.5586,0.0,0.0,-2.7879,-2.8436,-2.9005,-2.9005,-2.7794,-2.619,-2.4575,0.0,0.0,-1.733,-1.6365,-1.6059,-1.6853,-1.8262,-2.0105,-2.2602,-2.3749,-2.5438,0.0,0.0,0.0,0.0,0.0,0.0,0.0,0.0,0.0,0.0,0.0,0.0,-3.8707,-3.8707,-3.8707,-3.8707,-3.8707,-3.8707,-3.8707,-3.8707,-3.8707,-3.8707,-3.8707,-3.8707,-3.8707,-3.8719,-3.8869,-3.9093,-3.912,0.0,0.0,-4.0101,-4.0269,-4.0496,-4.0496,-4.0496,-4.0496,-4.0496,-4.0496,-4.0496,0.0,0.0,0.0,0.0,0.0,0.0,-1.113,-1.1131,-1.1614,-1.3258,-1.3109,-1.2842,-1.2826,-1.2137,-1.1152,-0.9899,0.0,0.0,0.0,0.0,0.0,0.0,0.0,0.0,0.0,0.0,0.0,0.0,0.0,0.0,0.0,0.0,0.0,0.0,0.0,0.0,0.0,0.0,0.0,0.0,0.0,0.0,0.0,0.0,0.0,0.0,0.0,0.0,0.0,0.0,0.0,0.0,-1.8695,-2.0519,0.0,0.0,-2.5823,-2.7181,-2.7658,-2.8393,-2.8877,-2.8411,-2.7438,-2.6051,-2.3942,0.0,-1.8831,-1.722,-1.6255,-1.5949,-1.6743,-1.7814,-1.9381,-2.1859,-2.2547,-2.3878,-2.7097,0.0,0.0,0.0,0.0,0.0,0.0,0.0,0.0,0.0,0.0,0.0,-3.8707,-3.8707,-3.8707,-3.8707,-3.8707,-3.8707,-3.8707,-3.8707,-3.8707,-3.8707,-3.8707,-3.8707,-3.8707,-3.8707,-3.8762,-3.8855,-3.8855,0.0,0.0,-3.9505,-3.9671,-3.9984,-4.0176,-4.025,-4.0286,-4.0449,-4.0496,-4.0496,0.0,0.0,0.0,0.0,0.0,-1.0242,-1.1085,-1.1075,-1.1478,-1.2905,-1.2991,-1.2949,-1.2949,-1.2228,-1.1314,-1.0224,-0.9901,0.0,0.0,0.0,0.0,0.0,0.0,0.0,0.0,0.0,0.0,0.0,0.0,0.0,0.0,0.0,0.0,0.0,0.0,0.0,0.0,0.0,0.0,0.0,0.0,0.0,0.0,0.0,0.0,0.0,0.0,0.0,0.0,0.0,0.0,0.0,0.0,0.0,-2.0272,0.0,-2.463,-2.608,-2.688,-2.7677,-2.8143,-2.7585,-2.6833,-2.5676,0.0,-2.1088,-1.8911,-1.7539,-1.6426,-1.6022,-1.7055,-1.7722,-1.8831,-2.1051,-2.1629,-2.2767,-2.5511,-2.63,0.0,0.0,0.0,0.0,0.0,0.0,0.0,0.0,0.0,0.0,0.0,-3.8707,-3.8707,-3.8707,-3.8707,-3.8707,-3.8707,-3.8707,-3.8707,-3.8707,-3.8707,-3.8707,-3.8707,-3.8707,-3.8707,-3.8707,0.0,0.0,0.0,-3.9112,-3.9289,-3.9634,-3.9972,-4.0101,-4.0129,-4.0397,-4.0496,-4.0496,0.0,0.0,0.0,0.0,0.0,0.0,-1.0886,-1.0951,-1.1191,-1.2008,-1.2113,-1.2113,-1.2113,-1.1393,-1.0912,-1.0893,-1.0153,0.0,0.0,0.0,0.0,0.0,0.0,0.0,0.0,0.0,0.0,0.0,0.0,0.0,0.0,0.0,0.0,0.0,0.0,0.0,0.0,0.0,0.0,0.0,0.0,0.0,0.0,0.0,0.0,0.0,0.0,0.0,0.0,0.0,0.0,0.0,0.0,-1.7458,-1.861,-2.1096,-2.2969,-2.4392,-2.5209,-2.6007,-2.662,-2.6602,-2.6007,-2.4989,-2.3373,-2.1088,-1.9077,-1.8262,-1.6812,-1.6188,-1.7784,-1.8089,-1.8621,-2.0254,-2.1235,-2.2363,-2.3988,-2.5603,0.0,0.0,0.0,0.0,0.0,0.0,0.0,0.0,0.0,0.0,0.0,-3.8707,-3.8707,-3.8707,-3.8707,-3.8707,-3.8707,-3.8707,-3.8707,-3.8707,-3.8707,-3.8707,-3.8707,-3.8707,-3.8707,0.0,0.0,0.0,0.0,-3.9112,-3.9289,-3.9634,-3.9972,-4.0101,-4.0129,-4.0397,-4.0496,-4.0496,0.0,0.0,0.0,0.0,0.0,0.0,0.0,-1.0143,-1.037,-1.1173,-1.1278,-1.1485,-1.204,-1.1375,-1.0893,-1.0893,-1.0149,0.0,0.0,0.0,0.0,0.0,0.0,0.0,0.0,0.0,-1.2375,-1.2913,-1.4523,0.0,0.0,0.0,0.0,0.0,0.0,0.0,0.0,0.0,0.0,0.0,0.0,0.0,0.0,0.0,0.0,0.0,0.0,0.0,0.0,0.0,0.0,0.0,0.0,0.0,0.0,-1.8052,-2.0786,0.0,-2.3694,-2.474,-2.5521,-2.44,-2.3942,-2.3327,-2.1667,-2.0262,-1.9077,-1.828,-1.7693,-1.7509,-1.8005,-1.8555,-1.9638,-2.185,-2.2437,-2.318,0.0,0.0,0.0,0.0,0.0,0.0,0.0,0.0,0.0,0.0,0.0,0.0,0.0,-3.8707,-3.8707,-3.8707,-3.8707,-3.8707,-3.8707,-3.8707,-3.8707,-3.8707,-3.8707,-3.8707,-3.8707,-3.8707,0.0,0.0,0.0,0.0,0.0,-3.8829,-3.8888,-3.9055,-3.9559,-3.9765,-3.9819,-4.0319,-4.0496,-4.0496,0.0,0.0,0.0,0.0,0.0,0.0,0.0,-0.9754,-0.9882,-1.0388,-1.0457,-1.0751,-1.1558,-1.0934,-1.0567,-1.0875,-1.0149,0.0,0.0,0.0,0.0,0.0,0.0,0.0,0.0,-1.136,-1.2571,-1.3752,-1.4977,-1.5671,-1.5818,-1.5818,0.0,0.0,0.0,0.0,0.0,0.0,0.0,0.0,0.0,0.0,0.0,0.0,0.0,0.0,0.0,0.0,0.0,0.0,0.0,0.0,0.0,0.0,0.0,0.0,-1.8474,-2.0896,-2.1813,-2.3033,-2.3795,-2.2795,-2.2556,-2.2116,-2.0419,-1.9371,-1.8509,-1.7709,-1.7519,-1.7636,-1.7928,-1.8701,-1.9811,-2.1345,-2.2134,0.0,0.0,0.0,0.0,0.0,0.0,0.0,0.0,0.0,0.0,0.0,0.0,0.0,0.0,-3.8707,-3.8707,-3.8707,-3.8707,-3.8707,-3.8707,-3.8707,-3.8707,-3.8707,-3.8707,-3.8707,-3.8707,-3.8707,0.0,0.0,0.0,0.0,0.0,-3.8707,-3.8707,-3.875,-3.9223,-3.9401,-3.9486,-4.012,-4.0347,-4.0364,0.0,0.0,0.0,0.0,0.0,0.0,0.0,-0.9706,-0.9702,-0.9702,-0.9702,-0.9988,-1.0728,-1.0153,-1.0007,-1.0746,0.0,0.0,0.0,0.0,0.0,0.0,0.0,0.0,0.0,-1.1453,-1.2676,-1.4458,-1.5141,-1.5832,-1.6538,-1.6538,-1.5912,-1.4779,0.0,0.0,0.0,0.0,0.0,0.0,0.0,0.0,0.0,0.0,0.0,0.0,0.0,0.0,0.0,0.0,0.0,0.0,0.0,0.0,0.0,0.0,0.0,0.0,0.0,-2.0823,-2.1519,-2.1464,-2.1445,-2.1041,-1.9465,-1.8398,0.0,-1.6765,-1.6656,-1.6943,-1.7762,-1.8721,-1.9444,-1.9627,-2.1005,0.0,0.0,0.0,0.0,0.0,0.0,0.0,0.0,0.0,0.0,0.0,0.0,0.0,0.0,-3.8707,-3.8707,-3.8707,-3.8707,-3.8707,-3.8707,-3.8707,-3.8707,-3.8707,-3.8707,-3.8707,-3.8707,-3.8707,0.0,0.0,0.0,0.0,0.0,-3.8707,-3.8707,-3.8719,-3.8999,-3.9112,-3.9173,-3.9838,-4.0081,-4.0129,0.0,0.0,0.0,0.0,0.0,0.0,0.0,0.0,0.0,0.0,-0.9702,-0.9772,-0.9951,-0.9808,-0.9772,0.0,0.0,0.0,0.0,0.0,0.0,0.0,0.0,0.0,0.0,-1.1123,-1.2538,-1.4038,-1.5422,-1.6383,-1.6965,-1.6965,-1.6095,-1.4568,-1.4753,0.0,0.0,0.0,0.0,0.0,0.0,0.0,0.0,0.0,0.0,0.0,0.0,-1.3878,0.0,0.0,0.0,0.0,0.0,0.0,0.0,0.0,-1.5123,-1.588,-1.645,0.0,-1.8831,-1.8218,-1.8052,-1.7906,0.0,-1.7162,-1.7001,-1.6671,-1.7213,-1.7983,-1.8796,-1.9651,-2.0841,-2.274,0.0,0.0,0.0,0.0,0.0,0.0,0.0,0.0,0.0,0.0,0.0,0.0,0.0,0.0,0.0,-3.8707,-3.8707,-3.8707,-3.8707,-3.8707,-3.8707,-3.8707,-3.8707,-3.8707,-3.8707,-3.8707,-3.8707,-3.8707,0.0,0.0,0.0,0.0,-3.8707,-3.8707,-3.8707,-3.8719,-3.8999,-3.9112,-3.9147,-3.9564,-3.988,-4.011,0.0,0.0,0.0,0.0,0.0,0.0,0.0,0.0,0.0,0.0,0.0,0.0,0.0,0.0,0.0,0.0,0.0,0.0,0.0,0.0,0.0,0.0,0.0,0.0,-1.0046,-1.1048,-1.2526,-1.4448,-1.5603,-1.6658,-1.7604,-1.7604,-1.6672,-1.4969,-1.4478,0.0,0.0,0.0,0.0,0.0,0.0,0.0,0.0,0.0,0.0,0.0,-1.3053,-1.3185,0.0,-1.3838,-1.4058,-1.4089,0.0,0.0,0.0,0.0,-1.4572,-1.4859,-1.4956,-1.6787,-1.8555,-1.8108,-1.8291,-1.8427,-1.795,-1.757,-1.7184,-1.67,-1.7329,-1.8231,-1.905,-1.992,0.0,0.0,0.0,0.0,0.0,0.0,0.0,0.0,0.0,0.0,0.0,0.0,0.0,0.0,0.0,0.0,0.0,-3.8707,-3.8707,-3.8707,-3.8707,-3.8707,-3.8707,-3.8707,-3.8707,-3.8707,-3.8707,-3.8707,-3.8707,-3.8707,-3.8707,0.0,0.0,0.0,-3.8707,-3.8707,-3.8707,-3.8704,-3.8855,-3.8923,-3.8947,-3.9257,-3.9493,-3.9698,0.0,0.0,0.0,0.0,0.0,0.0,0.0,0.0,0.0,0.0,0.0,0.0,0.0,0.0,0.0,0.0,0.0,0.0,0.0,0.0,0.0,0.0,0.0,-0.9879,-1.0767,-1.1123,-1.2512,-1.5017,-1.5749,-1.6801,-1.8135,-1.8256,-1.7333,-1.5554,-1.4298,-1.3658,0.0,0.0,0.0,0.0,0.0,0.0,0.0,0.0,0.0,0.0,0.0,0.0,0.0,-1.3401,-1.3757,-1.3874,-1.4051,0.0,0.0,0.0,0.0,0.0,-1.4709,-1.7012,-1.9205,-1.8838,-1.9455,-1.9953,-1.923,-1.8435,-1.768,-1.7098,-1.7628,-1.8483,0.0,-2.0363,0.0,0.0,0.0,0.0,0.0,0.0,0.0,0.0,0.0,0.0,0.0,0.0,0.0,0.0,0.0,0.0,0.0,-3.8707,-3.8707,-3.8707,-3.8707,-3.8707,-3.8707,-3.8707,-3.8707,-3.8707,-3.8707,-3.8707,-3.8707,-3.8707,-3.8707,0.0,0.0,0.0,-3.8707,-3.8707,-3.8707,-3.8707,-3.8707,-3.8707,-3.8719,-3.8961,-3.9058,-3.9186,0.0,0.0,0.0,0.0,0.0,0.0,0.0,0.0,0.0,0.0,0.0,0.0,0.0,0.0,0.0,0.0,0.0,0.0,0.0,0.0,0.0,0.0,-0.9345,-0.9912,-1.1177,-1.1276,-1.2383,-1.4587,-1.5938,-1.7023,-1.7878,-1.8506,-1.7652,-1.5561,-1.4726,-1.4024,-1.3429,0.0,0.0,0.0,0.0,0.0,0.0,0.0,0.0,0.0,0.0,0.0,0.0,-1.2632,-1.3124,-1.3646,-1.3676,0.0,0.0,0.0,0.0,0.0,-1.585,-1.7756,-1.8801,-1.6763,-1.7362,-1.839,-1.8107,-1.8033,-1.8188,-1.8618,0.0,0.0,0.0,-2.2621,-2.3933,0.0,0.0,0.0,0.0,0.0,0.0,0.0,0.0,0.0,0.0,0.0,0.0,0.0,0.0,0.0,0.0,-3.8707,-3.8707,-3.8707,-3.8707,-3.8707,-3.8707,-3.8707,-3.8707,-3.8707,-3.8707,-3.8707,-3.8707,-3.8707,-3.8707,0.0,0.0,-3.8707,-3.8707,-3.8707,-3.8707,-3.8707,-3.8707,-3.8707,-3.8707,-3.875,-3.8909,-3.9165,0.0,0.0,0.0,0.0,0.0,0.0,0.0,0.0,0.0,0.0,0.0,0.0,0.0,0.0,0.0,0.0,0.0,0.0,0.0,0.0,0.0,-0.9771,-0.9713,-1.0186,-1.1285,-1.2055,-1.3506,-1.568,-1.6762,-1.7676,-1.8386,-1.7523,-1.6559,-1.5544,-1.4411,-1.3726,-1.3396,0.0,0.0,0.0,0.0,0.0,0.0,0.0,0.0,0.0,0.0,0.0,0.0,0.0,-1.2663,-1.308,-1.3471,0.0,0.0,0.0,0.0,0.0,-1.5215,-1.7025,-1.839,-1.727,-1.8886,-2.0714,-2.062,-2.036,-2.0191,-2.05,0.0,0.0,0.0,0.0,0.0,0.0,0.0,0.0,0.0,0.0,0.0,0.0,0.0,0.0,0.0,0.0,0.0,0.0,0.0,0.0,0.0,0.0,-3.8707,-3.8707,-3.8707,-3.8707,-3.8707,-3.8707,-3.8707,-3.8707,-3.8707,-3.8707,-3.8707,-3.8707,-3.8707,-3.8707,0.0,-3.8707,-3.8707,-3.8707,-3.8707,-3.8707,-3.8707,-3.8707,-3.8707,-3.8707,-3.8869,-3.9125,0.0,0.0,0.0,0.0,0.0,0.0,0.0,0.0,0.0,0.0,0.0,0.0,0.0,0.0,0.0,0.0,0.0,0.0,0.0,0.0,-0.9519,-1.0128,-1.0216,-1.0822,-1.2018,-1.2944,-1.448,-1.6699,-1.7439,-1.8172,-1.886,-1.6982,-1.5933,-1.5544,-1.4234,-1.3557,-1.3396,-1.3396,-1.3396,0.0,0.0,0.0,0.0,0.0,0.0,0.0,0.0,0.0,0.0,0.0,0.0,0.0,0.0,0.0,0.0,-1.4065,-1.4136,-1.4272,-1.4898,-1.6503,-1.8137,-1.8559,-2.0548,-2.2566,-2.3153,-2.2666,-2.2235,-2.2804,-2.2914,0.0,0.0,0.0,0.0,0.0,0.0,0.0,0.0,0.0,0.0,0.0,0.0,0.0,0.0,0.0,0.0,0.0,0.0,0.0,0.0,0.0,-3.8505,-3.8689,-3.8707,-3.8707,-3.8707,-3.8707,-3.8707,-3.8707,-3.8707,-3.8707,-3.8707,-3.8707,-3.8707,-3.8707,-3.8707,-3.8707,-3.8707,-3.8707,-3.8707,-3.8707,-3.8707,-3.8707,-3.8707,-3.8707,-3.8829,-3.9013,0.0,0.0,0.0,0.0,0.0,0.0,0.0,0.0,0.0,0.0,0.0,0.0,0.0,0.0,0.0,0.0,0.0,0.0,0.0,0.0,-0.9376,-0.9992,-1.0656,-1.2043,-1.4208,-1.3692,-1.448,-1.6699,-1.7439,-1.8172,-1.8877,-1.8048,-1.6915,-1.5561,-1.4774,-1.4039,-1.3396,-1.3396,-1.3396,0.0,0.0,0.0,0.0,0.0,0.0,0.0,0.0,0.0,0.0,0.0,0.0,0.0,0.0,0.0,-1.3653,-1.3853,-1.3927,-1.4332,-1.6224,-1.7268,-1.8219,-1.9902,-2.0511,-2.1281,-2.3584,-2.3492,-2.3556,-2.5776,-2.6264,0.0,0.0,0.0,0.0,0.0,0.0,0.0,0.0,0.0,0.0,0.0,0.0,0.0,0.0,0.0,0.0,0.0,0.0,0.0,0.0,0.0,0.0,-3.8689,-3.8707,-3.8707,-3.8707,-3.8707,-3.8707,-3.8707,-3.8707,-3.8707,-3.8707,-3.8707,-3.8707,-3.8707,-3.8707,-3.8707,-3.8707,-3.8707,-3.8707,-3.8707,-3.8707,-3.8707,-3.8707,-3.8707,-3.8704,-3.8735,0.0,0.0,0.0,0.0,0.0,0.0,0.0,0.0,0.0,0.0,0.0,0.0,0.0,0.0,0.0,0.0,0.0,0.0,0.0,0.0,-0.9359,-0.9973,-1.0707,-1.1739,-1.31,-1.4208,-1.5859,-1.8076,-1.7896,-1.7935,-1.8172,-1.6515,-1.545,-1.4875,-1.4141,-1.3659,-1.3396,-1.3396,-1.3142,-1.2728,0.0,0.0,0.0,0.0,0.0,0.0,0.0,0.0,0.0,0.0,-1.0927,-1.1688,-1.2474,-1.3126,-1.3607,-1.3684,-1.3795,-1.4094,-1.4974,-1.6483,-1.8112,-1.9434,-2.0537,-2.1822,-2.3749,-2.474,-2.5629,-2.7053,-2.7346,0.0,0.0,0.0,0.0,0.0,0.0,0.0,0.0,0.0,0.0,0.0,0.0,0.0,0.0,0.0,0.0,0.0,0.0,0.0,0.0,0.0,0.0,-3.7202,-3.7202,-3.7441,-3.7936,-3.7936,-3.8193,-3.8707,-3.8707,-3.8707,-3.8707,-3.8707,-3.8707,-3.8707,-3.8707,-3.8707,-3.8707,-3.8707,-3.8707,-3.8707,-3.8707,-3.8707,-3.8707,-3.8707,-3.8707,-3.8707,0.0,0.0,0.0,0.0,0.0,0.0,0.0,0.0,0.0,0.0,0.0,0.0,0.0,0.0,0.0,0.0,0.0,0.0,0.0,-0.9052,-0.9332,-0.9973,-1.048,-1.135,-1.2626,-1.4133,-1.5876,-1.7862,-1.7591,-1.7337,-1.7073,-1.5315,-1.4622,-1.4791,-1.3828,-1.3532,-1.3726,-1.3498,-1.31,-1.266,-1.266,0.0,0.0,0.0,0.0,0.0,0.0,0.0,0.0,0.0,-1.0345,-1.0927,-1.1975,-1.2749,-1.3298,-1.3523,-1.4126,-1.4723,-1.4918,-1.6729,-1.8756,-1.9507,-2.1133,-2.2914,-2.4273,-2.5621,-2.6979,-2.8282,-2.8558,-2.8631,-2.89,0.0,0.0,0.0,0.0,0.0,0.0,0.0,0.0,0.0,0.0,0.0,0.0,0.0,0.0,0.0,0.0,0.0,0.0,0.0,0.0,0.0,-3.6303,-3.656,-3.7125,-3.7125,-3.7529,-3.8322,-3.8322,-3.845,-3.8707,-3.8707,-3.8707,-3.8707,-3.8707,-3.8707,-3.8707,-3.8707,-3.8707,-3.8707,-3.8707,-3.8707,-3.8707,-3.8707,-3.8707,-3.8707,0.0,0.0,0.0,0.0,0.0,0.0,0.0,0.0,0.0,0.0,0.0,0.0,0.0,0.0,0.0,0.0,0.0,0.0,-0.9093,-0.8979,-0.9224,-0.995,-1.0001,-1.1062,-1.3328,-1.3379,-1.4116,-1.5595,-1.6333,-1.6316,-1.5561,-1.4842,-1.4892,-1.5511,-1.4065,-1.3811,-1.4436,-1.3709,-1.3396,-1.3396,-1.3396,-1.2482,0.0,0.0,0.0,0.0,0.0,0.0,0.0,0.0,-1.0001,-1.0278,-1.1806,-1.2383,-1.2647,-1.3384,-1.4912,-1.6425,-1.6542,-1.8399,-2.0335,-2.0488,-2.2391,-2.441,-2.5246,-2.6043,-2.7328,-2.9732,-3.0228,-3.0467,-3.125,0.0,0.0,0.0,0.0,0.0,0.0,0.0,0.0,0.0,0.0,0.0,0.0,0.0,0.0,0.0,0.0,0.0,0.0,0.0,0.0,0.0,-3.6266,-3.6266,-3.6285,-3.6285,-3.6703,-3.7492,-3.7492,-3.7915,-3.8707,-3.8707,-3.8707,-3.8707,-3.8707,-3.8707,-3.8707,-3.8707,-3.8707,-3.8707,-3.8707,-3.8707,-3.8707,-3.8707,-3.8707,-3.8707,0.0,0.0,0.0,0.0,0.0,0.0,0.0,0.0,0.0,0.0,0.0,0.0,0.0,0.0,0.0,0.0,0.0,0.0,-0.8968,-0.8919,-0.8999,-0.9207,-0.972,-1.0328,-1.0988,-1.206,-1.3599,-1.5595,-1.5825,-1.5544,-1.4825,-1.4605,-1.4344,-1.4065,-1.4141,-1.4005,-1.3709,-1.3498,-1.31,-1.2626,-1.2626,-1.1705,0.0,0.0,0.0,0.0,0.0,0.0,0.0,0.0,0.0,0.0,-1.1147,-1.2224,-1.3181,-1.3402,-1.4589,-1.579,-1.5599,-1.7733,-2.0236,-2.1185,0.0,-2.5393,-2.6788,-2.8154,-2.9659,0.0,-3.1885,-3.1788,-3.147,0.0,0.0,0.0,0.0,0.0,0.0,0.0,0.0,0.0,0.0,0.0,0.0,0.0,0.0,0.0,0.0,0.0,0.0,0.0,0.0,0.0,-3.4541,-3.4816,-3.5371,-3.5389,-3.5807,-3.6666,-3.6666,-3.7367,-3.8707,-3.8707,-3.8707,-3.8707,-3.8707,-3.8707,-3.8707,-3.8707,-3.8707,-3.8707,-3.8707,-3.8707,-3.8707,-3.8707,-3.8707,-3.8707,0.0,0.0,0.0,0.0,0.0,0.0,0.0,0.0,0.0,0.0,0.0,0.0,0.0,0.0,0.0,0.0,0.0,0.0,0.0,0.0,-0.8897,-0.8897,-0.9326,-0.9844,-1.0413,-1.1942,-1.3252,-1.4293,-1.4293,-1.4056,-1.3625,-1.3938,-1.4141,-1.4285,-1.4733,-1.453,-1.3845,-1.3845,-1.3244,-1.2331,-1.2626,-1.1992,-1.0886,0.0,0.0,0.0,0.0,0.0,0.0,0.0,0.0,0.0,-1.0436,-1.1299,-1.2237,-1.3125,-1.4545,-1.5978,-1.679,-1.895,-2.1336,-2.2859,-2.4566,-2.6476,-2.8716,0.0,0.0,0.0,-3.2821,-3.2546,-3.2375,0.0,0.0,0.0,0.0,0.0,0.0,0.0,0.0,0.0,0.0,0.0,0.0,0.0,0.0,0.0,0.0,0.0,0.0,0.0,0.0,0.0,-3.3807,-3.4027,-3.4509,-3.4509,-3.4949,-3.5789,-3.5789,-3.6468,-3.7771,-3.8083,-3.8395,-3.8707,-3.8707,-3.8707,-3.8707,-3.8707,-3.8707,-3.8707,-3.8707,-3.8707,-3.8707,-3.8707,-3.8707,-3.8707,0.0,0.0,0.0,0.0,0.0,0.0,0.0,0.0,0.0,0.0,0.0,0.0,0.0,0.0,0.0,0.0,0.0,0.0,0.0,0.0,-0.8897,-0.8897,-0.9032,-0.9721,-1.1069,-1.2474,-1.2863,-1.2195,-1.2331,-1.2365,-1.2314,-1.3185,-1.4234,-1.5419,-1.5544,-1.5122,0.0,-1.4301,-1.3472,-1.2246,-1.2914,-1.2745,-1.2009,-1.1282,0.0,0.0,0.0,0.0,0.0,0.0,0.0,0.0,-0.977,-1.0051,-1.0514,-1.266,-1.4607,-1.658,-1.8979,-2.1022,-2.2918,-2.4862,-2.6088,0.0,-3.0699,-3.1397,-3.1856,-3.3476,0.0,-3.2931,0.0,0.0,0.0,0.0,0.0,0.0,0.0,0.0,0.0,0.0,0.0,0.0,0.0,0.0,0.0,0.0,0.0,0.0,0.0,0.0,0.0,-3.3807,-3.3807,-3.3807,-3.3807,-3.3807,-3.4174,0.0,-3.4894,-3.5334,-3.6211,-3.7015,-3.7804,-3.8487,-3.856,-3.8597,-3.8597,-3.867,-3.8707,-3.8707,-3.8707,-3.8707,-3.8707,-3.8707,-3.8707,-3.8707,0.0,0.0,0.0,0.0,0.0,0.0,0.0,0.0,0.0,0.0,0.0,0.0,0.0,0.0,0.0,0.0,0.0,0.0,0.0,0.0,-0.8897,-0.8897,-1.0009,-1.0781,-1.1079,-1.1424,-1.1526,-1.135,-1.2575,-1.2863,-1.2348,-1.4242,-1.4674,-1.3912,-1.508,-1.4546,-1.277,-1.277,-1.2229,-1.1367,-1.1526,-1.1147,-1.048,-1.0294,-0.9777,0.0,0.0,0.0,0.0,0.0,0.0,0.0,-0.977,-1.0396,-1.1079,-1.2212,-1.405,-1.6001,-1.7342,-1.9479,0.0,-2.4397,-2.676,-2.9005,-3.0944,-3.1397,-3.1856,-3.3476,-3.366,0.0,0.0,0.0,0.0,0.0,0.0,0.0,0.0,0.0,0.0,0.0,0.0,0.0,0.0,0.0,0.0,0.0,0.0,0.0,0.0,0.0,0.0,-3.3807,-3.3807,-3.3807,-3.3807,-3.3807,-3.3899,0.0,-3.4064,-3.4491,-3.5316,-3.6174,-3.6652,-3.6853,-3.7477,-3.7768,-3.7823,-3.8432,-3.8707,-3.8707,-3.8707,-3.8707,-3.8707,-3.8707,-3.8707,-3.8707,0.0,0.0,0.0,0.0,0.0,0.0,0.0,0.0,0.0,0.0,0.0,0.0,0.0,0.0,0.0,0.0,0.0,0.0,0.0,0.0,-0.8897,-0.8897,-0.9969,-1.0565,-1.0565,-1.0565,-1.0758,-1.1103,-1.1915,-1.2474,-1.2863,-1.4377,-1.5037,-1.5005,-1.5774,-1.4894,-1.2829,-1.2829,-1.1942,-1.0599,-1.0961,-1.0876,-1.048,-1.0136,-0.9754,-0.9377,-0.9027,0.0,0.0,0.0,0.0,0.0,0.0,0.0,-1.0808,-1.1959,-1.3371,-1.5125,-1.7735,-1.9694,0.0,-2.4907,0.0,-2.9317,-3.0558,-3.0834,-3.1274,-3.2889,0.0,0.0,0.0,0.0,0.0,0.0,0.0,0.0,0.0,0.0,0.0,0.0,0.0,0.0,0.0,0.0,0.0,0.0,0.0,0.0,0.0,-3.3807,-3.3807,-3.3807,-3.3807,-3.3807,-3.3807,-3.3807,-3.3807,-3.3807,-3.3807,-3.4027,-3.4472,-3.5734,-3.6303,-3.6321,-3.6725,-3.6942,-3.6997,-3.779,-3.812,-3.8157,-3.856,-3.8707,-3.8707,-3.8707,-3.8707,-3.8707,0.0,0.0,0.0,0.0,0.0,0.0,0.0,0.0,0.0,0.0,0.0,0.0,0.0,0.0,0.0,0.0,0.0,0.0,0.0,-0.8897,-0.8965,-0.9078,-0.9669,-1.0051,-1.0193,-1.0068,-1.043,-1.1306,-1.1045,-1.1966,-1.3989,-1.4462,-1.5341,-1.6512,-1.6512,-1.5283,-1.321,-1.3057,-1.1763,-0.9855,-1.047,-1.0714,-1.0646,-1.0041,-0.9804,-0.9737,-0.9111,-0.8897,-0.8914,-0.9044,0.0,0.0,0.0,0.0,-1.0254,-1.1536,-1.2525,-1.4016,-1.776,-1.986,-2.1916,-2.5664,-2.7703,0.0,-2.9989,-3.021,-3.0613,0.0,0.0,0.0,0.0,0.0,0.0,0.0,0.0,0.0,0.0,0.0,0.0,0.0,0.0,0.0,0.0,0.0,0.0,0.0,0.0,0.0,-3.3807,-3.3807,-3.3807,-3.3807,-3.3807,-3.3807,-3.3807,-3.3807,-3.3807,-3.3807,-3.3807,-3.3807,-3.3844,-3.5238,-3.5862,-3.5881,-3.6028,-3.6083,-3.6138,-3.696,-3.7364,-3.7566,-3.823,-3.8579,-3.8707,-3.8707,-3.8707,-3.8707,0.0,0.0,0.0,0.0,0.0,0.0,0.0,0.0,0.0,0.0,0.0,-0.9047,-0.8941,-0.8908,0.0,0.0,0.0,0.0,-0.8897,0.0,0.0,-0.9821,-0.995,-1.0294,-1.0944,-1.0328,-1.07,-1.2145,-1.0802,-1.2246,-1.6258,-1.5707,-1.5561,-1.5757,-1.5757,-1.4513,-1.2398,-1.1695,-1.0494,-0.9061,-0.9145,-0.9202,-0.9185,-0.9078,-0.9044,-0.9027,-0.8931,-0.8897,-0.8999,-0.9641,-0.9923,0.0,0.0,0.0,0.0,-1.0261,-1.1326,-1.271,-1.3939,0.0,-2.1967,0.0,-2.7291,-2.8356,0.0,0.0,-3.0467,0.0,0.0,0.0,0.0,0.0,0.0,0.0,0.0,0.0,0.0,0.0,0.0,0.0,0.0,0.0,0.0,0.0,0.0,0.0,0.0,0.0,-3.3807,-3.3807,-3.3807,-3.3807,-3.3807,-3.3807,-3.3807,-3.3807,-3.3807,-3.3807,-3.3807,-3.3807,-3.3807,-3.4027,-3.4137,-3.4174,-3.4876,-3.5169,-3.5243,-3.6101,-3.6868,-3.7511,-3.7621,-3.8098,-3.8707,-3.8707,-3.8707,-3.8707,0.0,0.0,0.0,0.0,0.0,0.0,0.0,0.0,0.0,0.0,0.0,-0.8968,-0.8902,-0.8897,0.0,0.0,0.0,0.0,-0.8794,-0.8852,0.0,0.0,-0.9346,-0.9529,-0.9857,-0.9546,-0.9912,-1.1004,-1.0322,-1.2094,-1.6079,-1.5747,-1.6475,-1.8003,-1.6762,-1.5453,-1.4022,-1.1966,-1.0487,-0.9472,-0.9061,-0.967,-1.0663,-0.9382,-0.9687,-1.0646,-0.9349,-0.8897,-0.901,-0.9754,-1.0278,-1.0531,-1.0119,0.0,0.0,0.0,-1.0768,-1.2321,-1.5557,-1.9144,-2.2626,0.0,-2.688,-2.8,-2.8686,0.0,0.0,0.0,0.0,0.0,0.0,0.0,0.0,0.0,0.0,0.0,0.0,0.0,0.0,0.0,0.0,0.0,0.0,0.0,0.0,0.0,0.0,-3.3807,-3.3807,-3.3807,-3.3807,-3.3807,-3.3807,-3.3807,-3.3807,-3.3807,-3.3807,-3.3807,-3.3807,-3.3807,-3.3807,-3.3807,-3.3807,-3.3825,-3.416,-3.4325,-3.438,-3.5224,-3.6064,-3.6868,-3.7327,-3.7988,-3.8707,-3.8707,-3.8707,-3.8707,0.0,0.0,0.0,0.0,0.0,0.0,0.0,0.0,0.0,0.0,0.0,0.0,-0.8897,0.0,0.0,0.0,0.0,0.0,-0.8754,0.0,0.0,0.0,0.0,-0.8897,-0.8897,-0.8897,-0.9258,-1.0001,-1.0001,-1.2019,-1.5876,-1.5876,-1.7557,-2.0487,-1.8251,-1.6637,-1.5443,0.0,0.0,-1.0825,-1.0263,-1.1059,-1.244,-1.111,-1.1661,-1.2872,-1.0788,-1.0043,0.0,0.0,0.0,0.0,0.0,0.0,0.0,0.0,0.0,-1.1617,0.0,0.0,-2.1377,-2.4056,-2.5761,-2.6962,0.0,0.0,0.0,0.0,0.0,0.0,0.0,0.0,0.0,0.0,0.0,0.0,0.0,0.0,0.0,0.0,0.0,0.0,0.0,0.0,0.0,0.0,0.0,-3.3807,-3.3807,-3.3807,-3.3807,-3.3807,-3.3807,-3.3807,-3.3807,-3.3807,-3.3807,-3.3807,-3.3807,-3.3807,-3.3807,-3.3807,-3.3807,-3.3807,-3.3807,-3.3807,-3.3844,-3.4454,-3.533,-3.6358,-3.696,-3.7808,-3.8707,-3.8707,-3.8707,-3.8707,0.0,0.0,0.0,0.0,0.0,0.0,0.0,0.0,0.0,0.0,0.0,0.0,0.0,0.0,0.0,0.0,0.0,0.0,0.0,0.0,0.0,0.0,0.0,0.0,-0.8897,-0.8897,-0.9258,-1.0001,-1.0001,-1.228,-1.6648,-1.6648,-1.8623,-2.2076,-1.9807,-1.7591,-1.5544,0.0,0.0,0.0,-1.3176,-1.3244,-1.3481,-1.4759,-1.5325,-1.5223,-1.3709,0.0,0.0,0.0,0.0,0.0,0.0,0.0,-1.0815,0.0,0.0,0.0,0.0,-1.5305,0.0,-2.1595,-2.343,0.0,0.0,0.0,0.0,0.0,0.0,0.0,0.0,0.0,0.0,0.0,0.0,0.0,0.0,0.0,0.0,0.0,0.0,0.0,0.0,0.0,0.0,0.0,0.0,-3.3807,-3.3807,-3.3807,-3.3807,-3.3807,-3.3807,-3.3807,-3.3807,-3.3807,-3.3807,-3.3807,-3.3807,-3.3807,-3.3807,-3.3807,-3.3807,-3.3807,-3.3807,-3.3807,-3.3807,-3.3844,-3.4835,-3.6303,-3.634,-3.7312,-3.8707,-3.8707,-3.8707,-3.8707,0.0,0.0,0.0,0.0,0.0,0.0,0.0,0.0,0.0,0.0,0.0,0.0,0.0,-0.8897,-0.8897,-0.8897,-0.8897,0.0,0.0,0.0,0.0,0.0,0.0,0.0,0.0,-0.8897,-0.9027,-0.9292,-0.9292,-1.111,-1.4582,-1.4582,-1.6062,-1.8685,-1.8352,-1.8014,-1.754,-1.4911,0.0,0.0,0.0,-1.4952,-1.6187,-1.5764,-1.6475,-1.7456,0.0,0.0,0.0,0.0,0.0,0.0,-1.2111,-1.1519,-1.0815,-0.9332,-0.9569,-1.0776,0.0,0.0,0.0,-1.9603,-2.1743,-2.3507,0.0,0.0,0.0,0.0,0.0,0.0,0.0,0.0,0.0,0.0,0.0,0.0,0.0,0.0,0.0,0.0,0.0,0.0,0.0,0.0,0.0,0.0,0.0,0.0,-3.3807,-3.3807,-3.3807,-3.3807,-3.3807,-3.3807,-3.3807,-3.3807,-3.3807,-3.3807,-3.3807,-3.3807,-3.3807,-3.3807,-3.3807,-3.3807,-3.3807,-3.3807,-3.3807,-3.3807,-3.4468,-3.5518,-3.6083,-3.6964,-3.7991,-3.8505,-3.8707,-3.8707,0.0,0.0,0.0,0.0,0.0,0.0,0.0,0.0,0.0,-0.8897,0.0,0.0,0.0,0.0,-0.8897,-0.8897,-0.8897,-0.8852,-0.8771,0.0,0.0,0.0,0.0,0.0,0.0,-0.8897,-0.8897,-0.8897,-0.9145,-1.0561,-1.3032,-1.3278,-1.4582,-1.6699,-1.6451,-1.7151,0.0,0.0,0.0,-1.5636,0.0,0.0,-1.8149,-1.7929,-1.8758,0.0,0.0,0.0,0.0,0.0,0.0,0.0,0.0,-1.1975,-1.0487,-0.9264,-0.9766,-1.0941,-1.1902,0.0,0.0,0.0,0.0,-2.1501,0.0,0.0,0.0,0.0,0.0,0.0,0.0,0.0,0.0,0.0,0.0,0.0,0.0,0.0,0.0,0.0,0.0,0.0,0.0,0.0,0.0,0.0,0.0,0.0,-3.2981,-3.2981,-3.2981,-3.2981,-3.3256,-3.3403,-3.3403,-3.3678,-3.3807,-3.3807,-3.3807,-3.3807,-3.3807,-3.3807,-3.3807,-3.3807,-3.3807,-3.3807,-3.3807,-3.3807,-3.427,-3.5096,-3.5973,-3.6795,-3.7603,-3.8395,-3.8707,-3.8707,0.0,0.0,0.0,0.0,0.0,0.0,0.0,0.0,-0.8931,-0.8931,0.0,0.0,0.0,0.0,0.0,-0.8931,-0.8931,-0.8931,-0.8897,-0.8897,0.0,0.0,0.0,0.0,0.0,-0.8897,-0.8897,-0.8897,-0.9624,-1.0734,-1.2246,-1.2965,-1.448,-1.6479,-1.4328,-1.4979,-1.7665,0.0,-1.7715,-1.785,0.0,-1.8922,-1.9198,0.0,0.0,0.0,-2.0623,-2.0052,0.0,-1.8374,0.0,0.0,0.0,-1.245,-0.9923,-0.9179,-0.9512,-1.0244,0.0,0.0,0.0,0.0,0.0,0.0,0.0,0.0,0.0,0.0,0.0,0.0,0.0,0.0,0.0,0.0,0.0,0.0,0.0,0.0,0.0,0.0,0.0,0.0,0.0,0.0,0.0,0.0,0.0,-3.1397,-3.1397,-3.1397,-3.1397,-3.1397,-3.2173,-3.2564,-3.2564,-3.3348,-3.3733,-3.3752,-3.3752,-3.377,-3.3807,-3.3807,-3.3807,-3.3807,-3.3807,-3.3807,-3.3807,-3.3807,-3.4266,-3.5059,-3.5917,-3.6758,-3.7566,-3.8377,-3.8689,-3.8707,0.0,0.0,0.0,0.0,0.0,-0.9523,-0.8982,-0.936,-0.9686,0.0,0.0,0.0,-0.9984,-0.9821,-0.9686,-0.9686,-0.9686,-0.9472,-0.8931,-0.8897,-0.8897,-0.8897,-0.8897,-0.8897,-0.8897,-0.8897,-0.8897,-0.8897,-0.9111,-0.9692,-1.0649,-1.0852,-1.1857,-1.3489,-1.288,-1.3354,-1.4623,-1.4623,0.0,-1.7817,-1.802,-1.9096,0.0,0.0,0.0,0.0,0.0,-2.1329,-2.0805,0.0,-1.9379,-1.7856,0.0,0.0,-1.1519,-1.0714,-1.1424,-1.2254,-1.1357,0.0,0.0,0.0,0.0,0.0,0.0,0.0,0.0,0.0,0.0,0.0,0.0,0.0,0.0,0.0,0.0,0.0,0.0,0.0,0.0,0.0,0.0,0.0,0.0,0.0,0.0,0.0,-3.1397,-3.1397,-3.1397,-3.1397,-3.1397,-3.1397,-3.1623,-3.1733,-3.1733,-3.1935,-3.2357,-3.2931,-3.2931,-3.3238,-3.3807,-3.3807,-3.3807,-3.3807,-3.3807,-3.3807,-3.3807,-3.3807,-3.3935,-3.4211,-3.5041,-3.5881,-3.6725,-3.7547,-3.8193,-3.8707,0.0,0.0,0.0,0.0,0.0,-1.0318,-0.989,-1.0183,-1.0463,0.0,0.0,0.0,-1.0463,-1.1309,-1.1487,-1.0531,-1.0176,-0.9821,-0.9393,-0.9078,-0.8897,-0.8897,-0.8897,-0.8897,-0.8897,-0.8897,-0.8897,-0.8897,-0.8897,-0.9128,-0.954,-0.954,-1.0183,-1.1333,-1.1018,-1.1645,-1.2914,-1.2575,0.0,0.0,-1.8222,0.0,0.0,-2.1397,-2.1921,0.0,0.0,0.0,-2.1701,-2.202,-2.0889,0.0,0.0,-1.4834,-1.3862,-1.2474,-1.3134,0.0,-1.2855,0.0,0.0,0.0,0.0,0.0,0.0,-1.9234,0.0,0.0,0.0,0.0,0.0,0.0,0.0,0.0,0.0,0.0,0.0,0.0,0.0,0.0,0.0,0.0,0.0,0.0,0.0,-3.0393,-3.0393,-3.0393,-3.0393,-3.0393,-3.0393,-3.0393,-3.0723,-3.0889,-3.0889,-3.1231,-3.1641,-3.21,-3.2436,-3.2839,-3.3311,-3.3642,-3.3807,-3.3807,-3.3807,-3.3807,-3.3807,-3.3807,-3.3807,-3.388,-3.4692,-3.5518,-3.6395,-3.7199,-3.8025,-3.8707,0.0,0.0,-1.0035,-1.0109,-1.0741,-1.1231,-1.1231,-1.1231,-1.1282,0.0,-1.1553,-1.1654,-1.1823,-1.3422,-1.3726,-1.1773,-1.0785,-1.0227,-1.0125,-0.9427,-0.8982,-0.8897,-0.8897,-0.8897,-0.8897,-0.8897,-0.8897,-0.8897,-0.8897,-0.8897,-0.8897,-0.8897,-0.9241,-0.9855,-0.9196,-1.0077,-1.2009,-1.1553,0.0,-1.5832,-1.8544,-1.9828,0.0,0.0,-2.2243,0.0,-2.3139,-2.2987,-2.2516,-2.3173,-2.1992,0.0,0.0,-1.701,-1.6546,-1.4497,-1.4877,0.0,-1.5061,-1.5399,0.0,0.0,0.0,0.0,-1.9882,-1.904,0.0,0.0,0.0,0.0,0.0,0.0,0.0,0.0,0.0,0.0,0.0,0.0,0.0,0.0,0.0,0.0,0.0,-2.9005,-2.9005,-2.9005,-2.9005,-2.9005,-2.9005,-2.9005,-2.9005,-2.9005,-2.9684,-3.0081,-3.0081,-3.0779,-3.1182,-3.1286,-3.199,-3.2436,-3.2619,-3.3348,-3.3715,-3.3807,-3.3807,-3.3807,-3.3807,-3.3807,-3.3807,-3.3862,-3.4582,-3.5389,-3.6248,-3.707,-3.7878,-3.8579,0.0,-1.0318,-1.0193,-1.0775,-1.1536,-1.206,-1.206,-1.206,-1.25,-1.3675,-1.436,-1.5172,-1.6363,-1.5298,-1.4554,-1.4716,-1.2957,-1.1586,-1.0927,-1.0193,-0.9523,-0.8931,-0.8897,-0.8897,-0.8897,-0.8897,-0.8897,-0.8897,-0.8897,-0.8897,-0.8897,-0.8897,-0.8982,-0.9111,-0.8965,-0.9478,-1.0565,0.0,0.0,-1.5697,-1.6874,0.0,-2.1004,-2.1309,-2.1786,-2.2398,-2.3139,-2.3308,-2.3207,0.0,-2.2716,-2.1552,0.0,0.0,0.0,-1.7236,0.0,-1.8099,-1.736,-1.7693,-1.8054,-1.7214,0.0,0.0,0.0,-1.6623,0.0,0.0,0.0,0.0,0.0,0.0,0.0,0.0,0.0,0.0,0.0,0.0,0.0,0.0,0.0,0.0,0.0,-2.9005,-2.9005,-2.9005,-2.9005,-2.9005,-2.9005,-2.9005,-2.9005,-2.9005,-2.9152,-2.9225,-2.9225,-2.939,-2.9787,-3.0448,-3.0595,-3.1335,-3.2601,-3.2748,-3.3201,-3.3807,-3.3807,-3.3807,-3.3807,-3.3807,-3.3807,-3.3825,-3.3972,-3.4527,-3.5353,-3.6211,-3.7037,-3.7841,0.0,-1.113,-1.1383,-1.2118,-1.2872,-1.3523,-1.3887,-1.3954,-1.4344,-1.5443,-1.6881,-1.7648,-1.7287,-1.6915,-1.6255,-1.5155,-1.3701,-1.2525,-1.1756,-1.0633,-0.9838,-0.9455,-0.9095,-0.9078,-0.9438,-0.9095,-0.9078,-0.9438,-0.9078,-0.8897,-0.8897,-0.8897,-0.9298,-0.9992,-0.9613,-1.0487,-1.2306,0.0,-1.4454,-1.6282,-1.7743,0.0,-2.1241,-2.1613,-2.1989,-2.2431,-2.3545,-2.4171,-2.4374,-2.3646,-2.3156,0.0,0.0,-2.0893,-2.045,0.0,-1.9769,-1.9887,-1.9101,-1.9169,-1.927,-1.8538,0.0,0.0,0.0,0.0,-1.7021,0.0,0.0,0.0,0.0,0.0,0.0,0.0,0.0,0.0,0.0,0.0,0.0,0.0,0.0,0.0,0.0,-2.7794,-2.7959,-2.8374,-2.8767,-2.9005,-2.9005,-2.9005,-2.9005,-2.9005,-2.9005,-2.9005,-2.9005,-2.9005,-2.9207,-2.961,-3.0008,-3.0834,-3.2027,-3.2417,-3.3041,-3.3807,-3.3807,-3.3807,-3.3807,-3.3807,-3.3807,-3.3807,-3.3807,-3.4302,-3.5059,-3.5481,-3.6431,-3.7566,0.0,-1.1857,-1.2534,-1.3278,-1.4005,-1.4757,-1.5494,-1.5595,-1.5977,-1.6993,-1.8797,-1.9439,-1.7941,-1.8584,-1.8217,-1.5974,-1.4708,-1.3709,-1.2973,-1.1495,-1.0599,-1.0447,-0.9732,-0.9597,-1.0193,-0.9495,-0.9343,-0.9787,-0.9196,-0.8897,-0.8897,-0.8897,-0.962,-1.0876,-1.0413,0.0,0.0,0.0,0.0,-1.7501,0.0,-2.0302,-2.0852,-2.1752,-2.2192,-2.2499,-2.4135,-2.5186,-2.5592,-2.4103,0.0,-2.346,-2.2581,-2.2296,0.0,0.0,0.0,0.0,0.0,0.0,0.0,0.0,0.0,-1.8698,0.0,0.0,0.0,-1.9696,0.0,0.0,0.0,0.0,0.0,0.0,0.0,0.0,0.0,0.0,0.0,0.0,0.0,0.0,0.0,-2.6465,-2.6683,-2.7427,-2.7992,-2.8414,-2.8661,-2.8725,-2.884,-2.9005,-2.9005,-2.9005,-2.9005,-2.9005,-2.9005,-2.9005,-2.9647,-3.0393,-3.1213,-3.2008,-3.2776,-3.346,-3.3607,-3.362,-3.3564,-3.3652,-3.3694,-3.3694,-3.3762,-3.4197,-3.4784,-3.4949,-3.5862,-3.707,-1.1874,-1.2246,-1.2534,-1.3278,-1.4005,-1.4757,-1.5494,-1.5595,-1.6323,-1.8369,-1.9439,-2.0424,0.0,0.0,0.0,0.0,0.0,0.0,-1.5274,0.0,-1.2728,-1.2077,-1.1289,-1.09,-1.0961,-1.0244,-0.9591,-0.9027,-0.8948,-0.8897,-0.8897,-0.8897,-0.9343,-1.0159,-1.0724,0.0,0.0,0.0,-1.6988,0.0,-1.99,-1.9659,0.0,-2.0767,-2.1735,-2.2584,-2.4712,-2.5947,-2.6336,0.0,-2.4372,-2.4135,0.0,-2.2296,-2.2279,0.0,0.0,0.0,0.0,0.0,0.0,0.0,-2.091,0.0,0.0,0.0,-1.7623,-1.7252,0.0,0.0,0.0,0.0,0.0,0.0,0.0,0.0,0.0,0.0,0.0,0.0,0.0,0.0,0.0,0.0,-2.5758,-2.6252,-2.599,-2.6297,-2.7435,-2.7773,-2.8264,-2.8987,-2.9005,-2.9005,-2.9005,-2.9005,-2.9005,-2.9005,-2.9097,-2.9555,-3.0356,-3.1164,-3.1785,-3.2249,-3.2951,-3.3029,-3.2681,-3.309,-3.3273,-3.3302,-3.3666,-3.3862,-3.4027,-3.4747,-3.5133,-3.55,-1.2178,-1.2297,-1.2669,-1.3836,-1.4284,-1.4892,-1.6062,-1.7337,-1.8493,-1.9423,-2.0589,0.0,0.0,0.0,0.0,0.0,0.0,-1.7946,0.0,0.0,-1.4344,-1.3608,-1.2432,-1.2,-1.2431,-1.0842,-1.0058,-1.0178,-0.9315,-0.8897,-0.8914,-0.9343,-1.0402,-1.2017,-1.2737,0.0,-1.7067,0.0,-1.8234,0.0,0.0,0.0,0.0,-2.1732,-2.319,-2.434,-2.5271,-2.6065,-2.6539,0.0,-2.4847,0.0,0.0,0.0,0.0,0.0,0.0,0.0,0.0,0.0,0.0,0.0,0.0,0.0,-1.8533,0.0,-1.8201,0.0,0.0,0.0,0.0,0.0,0.0,0.0,0.0,0.0,0.0,0.0,0.0,0.0,0.0,0.0,0.0,0.0,0.0,0.0,0.0,-2.5546,-2.6549,-2.7192,-2.7739,-2.829,-2.8767,-2.9005,-2.9005,-2.9005,-2.8875,-2.8658,-2.8658,-2.8969,-2.9593,-3.034,-3.1045,-3.1684,-3.2454,-3.2681,-3.2517,-3.2713,-3.2793,-3.2809,-3.2981,-3.3343,-3.3844,-3.4192,-3.4601,-3.5096,-1.2263,0.0,0.0,-1.4022,-1.4368,-1.5061,-1.6756,-1.8538,-1.9845,-2.0268,0.0,0.0,-2.2564,-2.2598,0.0,0.0,-2.1045,-2.0082,0.0,0.0,-1.6272,-1.5721,-1.4107,0.0,0.0,-1.1992,-1.0994,-1.1103,-0.9817,-0.9298,-0.9501,-0.9838,-1.1113,-1.3151,-1.4293,-1.6221,-1.8623,0.0,0.0,-1.9875,-2.042,-2.0981,-2.1688,-2.3139,-2.4492,-2.5642,-2.5828,-2.6251,-2.659,-2.5862,-2.5236,0.0,-2.5186,0.0,0.0,0.0,0.0,0.0,-2.2398,0.0,0.0,0.0,0.0,0.0,0.0,0.0,0.0,0.0,0.0,0.0,0.0,0.0,0.0,0.0,0.0,0.0,0.0,0.0,0.0,0.0,0.0,0.0,0.0,0.0,0.0,0.0,0.0,0.0,-2.5559,-2.6483,-2.7222,-2.7787,-2.8583,-2.894,-2.8839,-2.8839,-2.8645,-2.8264,-2.8264,-2.8429,-2.8791,-2.9771,-3.0437,-3.094,-3.1893,-3.2248,-3.2162,-3.2265,-3.2316,-3.2333,-3.2451,-3.2965,-3.3652,-3.3652,-3.4004,-3.4585,-1.2145,-1.2863,0.0,0.0,0.0,-1.5247,-1.7428,-1.8437,-1.9469,0.0,0.0,0.0,0.0,0.0,0.0,0.0,0.0,-2.2663,-2.114,0.0,-1.8775,-1.8758,-1.6661,-1.5511,0.0,-1.4065,-1.2575,-1.1103,-1.0345,-1.0328,-1.1011,-1.0328,-1.0835,-1.2432,-1.4597,-1.6407,-1.7918,-1.936,-2.0826,-2.2195,-2.2212,-2.3513,-2.5355,0.0,-2.4948,-2.5693,-2.6404,0.0,0.0,-2.5862,-2.5576,0.0,0.0,0.0,0.0,0.0,0.0,0.0,0.0,0.0,0.0,-2.0775,0.0,0.0,0.0,0.0,-1.9947,0.0,0.0,0.0,0.0,0.0,0.0,-2.1054,0.0,0.0,0.0,0.0,0.0,0.0,0.0,0.0,0.0,0.0,0.0,0.0,0.0,0.0,-2.4312,-2.553,-2.6647,-2.7769,-2.8583,-2.8797,-2.8433,-2.842,-2.825,-2.7926,-2.7926,-2.7911,-2.7986,-2.9508,-2.9966,-2.9643,-3.1167,-3.1603,-3.1271,-3.166,-3.1825,-3.1879,-3.2315,-3.2793,-3.3214,-3.3214,-3.3247,-3.3544,0.0,0.0,0.0,0.0,0.0,-1.5247,-1.7462,-1.9283,0.0,0.0,0.0,0.0,0.0,-2.4864,-2.4966,0.0,0.0,-2.4239,-2.275,-2.1718,0.0,0.0,0.0,-1.7777,0.0,0.0,-1.4606,-1.4073,-1.2365,-1.1654,-1.1891,-1.1637,-1.206,-1.3151,-1.5849,-1.7608,0.0,0.0,0.0,0.0,0.0,-2.4492,-2.5575,0.0,0.0,-2.6353,-2.6607,-2.6691,0.0,-2.6404,-2.5998,-2.5642,-2.5879,-2.5286,-2.4541,-2.4797,-2.4678,0.0,0.0,0.0,-2.4628,-2.2144,0.0,0.0,0.0,0.0,0.0,0.0,0.0,0.0,0.0,0.0,-2.2106,-2.1289,-2.0772,0.0,0.0,0.0,0.0,0.0,0.0,0.0,0.0,0.0,0.0,0.0,0.0,0.0,0.0,-2.4193,-2.5187,-2.6241,-2.711,-2.7709,-2.8061,-2.8061,-2.788,-2.75,-2.75,-2.7363,-2.7133,-2.8148,-2.8819,-2.9226,-3.0232,-3.087,-3.121,-3.1351,-3.1391,-3.1411,-3.1581,-3.1896,-3.2349,-3.2965,-3.3361,-3.3862,-1.4892,0.0,0.0,0.0,0.0,0.0,0.0,0.0,0.0,0.0,-2.3714,0.0,-2.6218,0.0,-2.6488,0.0,-2.681,-2.6065,-2.4306,-2.3748,0.0,-2.2037,-2.0771,0.0,0.0,0.0,-1.6661,-1.5595,-1.4174,-1.3219,-1.2694,-1.2694,-1.3083,0.0,0.0,-1.8217,-1.9046,0.0,-2.2448,0.0,0.0,-2.5321,0.0,0.0,-2.6285,-2.6691,0.0,-2.6691,-2.6691,-2.6691,-2.6387,-2.6065,-2.6539,-2.6048,-2.532,-2.5541,-2.5456,-2.5168,-2.4643,-2.5033,0.0,-2.3175,-2.2699,0.0,-2.0175,0.0,0.0,0.0,0.0,0.0,0.0,0.0,0.0,-2.1634,-2.0638,0.0,0.0,0.0,0.0,0.0,0.0,0.0,0.0,0.0,-1.8867,-1.9985,0.0,0.0,0.0,0.0,-2.4453,-2.5477,-2.6349,-2.7095,-2.7678,-2.7695,-2.7485,-2.7083,-2.7083,-2.6955,-2.6725,-2.7452,-2.8247,-2.9044,-2.9786,-3.0531,-3.119,-3.119,-3.119,-3.119,-3.119,-3.1449,-3.188,-3.2681,-3.3391,-3.4231,0.0,0.0,0.0,0.0,-1.6948,0.0,0.0,0.0,-2.2885,0.0,-2.522,-2.6252,-2.7705,-2.7858,-2.818,-2.8942,-2.8993,0.0,-2.5913,-2.571,0.0,0.0,-2.2835,-2.2073,-2.1376,0.0,0.0,0.0,-1.568,-1.4877,-1.3515,-1.3481,0.0,0.0,-1.6802,0.0,-1.8995,-2.1278,-2.2716,-2.3579,-2.5067,-2.6065,-2.6691,-2.6691,-2.6691,-2.6691,-2.6691,-2.6691,-2.6691,-2.6691,-2.6691,-2.6691,-2.6691,-2.6691,-2.6556,-2.5862,-2.615,-2.6387,-2.4982,-2.5118,-2.5321,-2.3866,0.0,0.0,0.0,0.0,-2.3241,0.0,0.0,0.0,0.0,0.0,0.0,-2.2006,-2.0519,0.0,0.0,0.0,0.0,0.0,0.0,0.0,0.0,0.0,-1.6343,-1.8966,-1.7887,0.0,0.0,0.0,-2.4304,-2.5407,-2.626,-2.6873,-2.727,-2.7272,-2.7083,-2.6691,-2.6691,-2.6691,-2.6725,-2.7452,-2.8247,-2.9044,-2.9786,-3.0531,-3.119,-3.119,-3.119,-3.119,-3.119,-3.1449,-3.1861,-3.2333,-3.3294,-3.4548,-1.7134,-1.8121,-1.8882,0.0,-1.8729,-1.9063,0.0,0.0,0.0,0.0,-2.6438,-2.7604,-2.8586,-2.8687,-2.879,-2.8976,-2.8993,0.0,0.0,0.0,0.0,-2.5862,-2.4626,-2.3848,-2.3661,-2.1833,0.0,-1.9752,0.0,0.0,-1.503,-1.4479,0.0,0.0,0.0,0.0,-1.8222,-2.05,-2.2544,-2.4355,-2.5812,-2.6522,0.0,0.0,-2.6691,-2.6691,-2.6691,-2.6691,-2.6691,-2.6691,-2.6691,-2.6691,-2.6691,-2.6691,-2.6657,-2.6471,-2.6539,-2.6607,-2.6251,-2.6268,-2.6201,-2.527,-2.4611,-2.3966,0.0,0.0,0.0,0.0,0.0,0.0,0.0,0.0,0.0,0.0,0.0,0.0,0.0,0.0,0.0,0.0,0.0,0.0,0.0,0.0,-1.7384,-1.7369,0.0,0.0,0.0,0.0,0.0,-2.4673,-2.4962,-2.567,-2.684,-2.6857,-2.6791,-2.6691,-2.6691,-2.6691,-2.6725,-2.7452,-2.8247,-2.9044,-2.9786,-3.0531,-3.119,-3.119,-3.119,-3.119,-3.119,-3.1449,-3.1861,-3.2333,-3.3045,-3.3944,-1.82,0.0,0.0,-2.0572,0.0,0.0,-2.2087,0.0,0.0,-2.5845,-2.708,0.0,-2.8908,-2.9585,-2.9974,-2.9974,-2.9974,0.0,-2.9044,0.0,0.0,-2.6742,-2.6201,-2.5642,-2.4983,-2.3441,0.0,-2.0686,0.0,0.0,-1.5122,0.0,0.0,0.0,0.0,-1.7676,0.0,-2.141,-2.3357,-2.4626,-2.6116,0.0,0.0,-2.6691,-2.6691,-2.6691,-2.6691,-2.6691,-2.6691,-2.6691,-2.6691,-2.6691,-2.6691,-2.6691,-2.6691,-2.6691,-2.6691,-2.6691,-2.6691,-2.6691,-2.659,-2.6184,-2.5761,-2.5269,-2.4526,-2.4678,-2.4847,0.0,0.0,0.0,0.0,0.0,0.0,0.0,0.0,0.0,0.0,0.0,0.0,0.0,0.0,0.0,0.0,0.0,0.0,0.0,0.0,0.0,0.0,0.0,0.0,-2.4423,-2.4491,-2.5218,-2.6691,-2.6691,-2.6691,-2.6691,-2.6691,-2.6691,-2.6725,-2.7452,-2.8247,-2.9044,-2.9786,-3.0531,-3.119,-3.119,-3.119,-3.119,-3.119,-3.1332,-3.1617,-3.2205,-3.2806,-3.3511,0.0,0.0,0.0,0.0,0.0,0.0,0.0,-2.39,0.0,-2.6725,0.0,-2.8518,-2.9213,-3.0429,-3.119,-3.119,0.0,-3.0649,-2.9365,-2.9803,-2.9228,-2.7232,-2.7672,-2.73,-2.5914,-2.4982,0.0,0.0,0.0,0.0,-1.4639,0.0,0.0,0.0,0.0,0.0,0.0,-2.2984,-2.4558,-2.4762,-2.6149,-2.6691,-2.6691,-2.6691,-2.6691,-2.6691,-2.6691,-2.6691,-2.6691,-2.6691,-2.6691,-2.6691,-2.6691,-2.6691,-2.6691,-2.6691,-2.6691,-2.6691,-2.6691,-2.6691,-2.6691,-2.6691,-2.6691,-2.6522,-2.5896,-2.5728,-2.5728,-2.5728,-2.522,-2.5151,0.0,0.0,0.0,0.0,0.0,0.0,0.0,0.0,0.0,0.0,0.0,0.0,0.0,0.0,0.0,0.0,0.0,0.0,0.0,0.0,0.0,-2.4305,-2.444,0.0,-2.6539,0.0,-2.6691,-2.6691,-2.6691,-2.6691,-2.6725,-2.757,-2.8349,-2.9044,-2.9871,-3.0615,-3.119,-3.119,-3.119,-3.119,-3.119,-3.1258,-3.1427,-3.2175,-3.2761,-3.3431,0.0,0.0,0.0,0.0,0.0,-2.4863,-2.5947,-2.6624,-2.7418,-2.8468,-2.977,-3.0649,-3.0804,-3.1038,-3.119,-3.119,-3.119,0.0,0.0,0.0,0.0,-2.9533,-2.9042,-2.8366,-2.7435,-2.549,-2.3661,0.0,0.0,0.0,-1.5392,0.0,0.0,0.0,0.0,0.0,-2.0953,-2.3441,0.0,-2.549,-2.6336,-2.6691,-2.6691,-2.6691,-2.6691,-2.6691,-2.6691,-2.6691,-2.6691,-2.6691,-2.6691,-2.6691,-2.6691,-2.6691,-2.6691,-2.6691,-2.6691,-2.6691,-2.6691,-2.6691,-2.6691,-2.6691,-2.6691,-2.6657,-2.6539,-2.6505,-2.6505,-2.6505,-2.6387,-2.6201,-2.5862,0.0,0.0,0.0,0.0,0.0,0.0,0.0,0.0,0.0,0.0,0.0,0.0,0.0,0.0,0.0,0.0,0.0,0.0,0.0,0.0,0.0,-2.4186,0.0,0.0,0.0,-2.6691,-2.6691,-2.6691,-2.6691,-2.6742,-2.8163,-2.8874,-2.9077,-3.0412,-3.1072,-3.119,-3.119,-3.119,-3.119,-3.119,-3.1582,-3.2209,-3.2933,-3.3639,-3.4304,0.0,0.0,0.0,0.0,0.0,0.0,0.0,-2.8381,0.0,-2.9007,-2.9619,-3.0076,-3.0076,-3.0734,-3.119,-3.119,-3.119,-3.119,-3.119,-3.0869,-3.0497,-3.0125,-2.9753,0.0,-2.8433,-2.659,-2.4931,-2.3427,0.0,0.0,-1.6147,-1.5426,0.0,-1.4605,0.0,-1.9299,0.0,0.0,0.0,-2.566,-2.6404,-2.6691,-2.6691,-2.6691,-2.6691,-2.6742,-2.7131,-2.7283,-2.7198,-2.6826,-2.6691,-2.6691,-2.6691,-2.6691,-2.6691,-2.6691,-2.6691,-2.6691,-2.6691,-2.6691,-2.6691,-2.6691,-2.6691,-2.6691,-2.6691,-2.6691,-2.6691,-2.6691,-2.6691,-2.6471,-2.5744,-2.5,0.0,0.0,0.0,0.0,0.0,0.0,0.0,0.0,0.0,0.0,0.0,0.0,0.0,0.0,0.0,0.0,0.0,0.0,0.0,0.0,0.0,0.0,0.0,0.0,0.0,-2.6691,-2.6691,-2.6894,-2.7317,-2.8468,-2.9213,-2.9634,-3.0717,-3.119,-3.119,-3.119,-3.119,-3.119,-3.119,-3.1667,-3.2395,-3.3136,-3.3863,-3.4539,0.0,-2.4875,0.0,0.0,-2.6507,0.0,-2.8454,-2.9914,-3.0592,-2.9597,-2.9467,-2.9467,-2.9467,-3.0497,-3.119,-3.119,-3.119,-3.119,-3.119,-3.119,-3.0937,-3.0362,-3.0345,-2.9989,-2.9264,-2.7706,-2.6116,0.0,0.0,0.0,0.0,-1.6407,0.0,0.0,0.0,0.0,0.0,0.0,-2.5389,-2.6116,-2.6877,-2.7182,-2.7182,-2.7182,-2.7182,-2.7249,-2.7858,-2.806,-2.7959,-2.7385,-2.7182,-2.7182,-2.7182,-2.7182,-2.7182,-2.7182,-2.7063,-2.6928,-2.6928,-2.6826,-2.6691,-2.6691,-2.6691,-2.6691,-2.6691,-2.6691,-2.6691,-2.6691,-2.6691,-2.6471,-2.5744,-2.5253,0.0,0.0,0.0,0.0,0.0,0.0,0.0,0.0,0.0,0.0,0.0,0.0,0.0,0.0,0.0,0.0,-1.7715,-1.8899,0.0,0.0,0.0,-2.4778,-2.5372,0.0,-2.6691,-2.6691,-2.686,-2.7249,-2.7841,-2.8789,-2.955,-3.0142,-3.0886,-3.119,-3.119,-3.119,-3.119,-3.119,-3.119,-3.1749,-3.2615,-3.3186,-3.3981,-3.481,0.0,0.0,0.0,0.0,0.0,0.0,0.0,-3.1771,-3.26,-3.1173,-3.0987,-3.0987,-3.0987,-3.1106,-3.119,-3.119,-3.119,-3.119,-3.119,-3.119,-3.1157,-3.1106,-3.1089,-3.0751,-3.0023,-2.8483,-2.6657,0.0,0.0,0.0,0.0,-1.7946,0.0,0.0,0.0,0.0,0.0,-2.5575,-2.6928,-2.7655,-2.845,-2.879,-2.879,-2.879,-2.879,-2.879,-2.8857,-2.8891,-2.8891,-2.8807,-2.879,-2.879,-2.879,-2.879,-2.879,-2.879,-2.8264,-2.7705,-2.7705,-2.7215,-2.6691,-2.6691,-2.6691,-2.6691,-2.6691,-2.6691,-2.6691,-2.6691,-2.6691,-2.6471,-2.5744,-2.6082,-2.6065,0.0,0.0,0.0,0.0,0.0,0.0,0.0,0.0,0.0,0.0,0.0,0.0,0.0,0.0,0.0,-1.7681,-1.7935,-1.9355,-2.2296,0.0,-2.4525,-2.4609,-2.6014,-2.6691,-2.6708,-2.7367,-2.7739,-2.7858,-2.9328,-3.0021,-3.0142,-3.0886,-3.119,-3.119,-3.119,-3.119,-3.119,-3.119,-3.2053,-3.3322,-3.3372,-3.4303,-3.5498,0.0,0.0,0.0,0.0,0.0,0.0,0.0,-3.1717,-3.2326,-3.2512,-3.2527,-3.2527,-3.2527,-3.2527,-3.2341,-3.1904,-3.187,-3.1684,-3.1224,-3.119,-3.119,-3.119,-3.119,-3.1055,-3.0768,-2.9736,-2.828,0.0,0.0,-2.2189,-2.0276,-1.9989,0.0,0.0,0.0,-2.4288,-2.5456,-2.681,-2.7824,-2.8552,-2.8874,-2.8993,-2.8993,-2.8993,-2.8993,-2.9061,-2.9499,-2.9651,-2.9736,-3.0159,-2.9738,-2.8993,-2.8993,-2.8993,-2.8993,-2.8993,-2.8755,-2.8518,-2.8518,-2.8316,-2.796,-2.7486,-2.735,-2.7232,-2.6793,-2.6691,-2.6691,-2.6691,-2.6691,-2.6607,-2.6302,-2.6133,-2.5981,0.0,0.0,0.0,0.0,0.0,0.0,0.0,0.0,0.0,0.0,0.0,0.0,0.0,0.0,0.0,0.0,0.0,0.0,-2.1563,0.0,-2.4491,-2.4491,-2.5963,-2.6691,-2.6708,-2.7452,-2.8043,-2.8552,-2.9617,-3.0345,-3.0784,-3.1072,-3.119,-3.119,-3.119,-3.119,-3.1241,-3.1701,-3.2493,-3.3457,-3.3897,-3.4726,-3.56,-2.9415,0.0,-2.9273,0.0,-3.0183,-3.0616,-3.2176,-3.2577,-3.3031,-3.3941,-3.4066,-3.3897,-3.3457,-3.3406,-3.3186,-3.2682,-3.2611,-3.2391,-3.1884,-3.185,-3.185,-3.185,-3.163,0.0,-3.1512,-3.0598,-2.9465,-2.8145,-2.6353,0.0,-2.2815,0.0,0.0,0.0,-2.5135,-2.6048,-2.7097,-2.806,-2.8787,-2.933,-2.9568,-2.9653,-2.9653,-2.9653,-2.9653,-2.9721,-3.0243,-3.0429,-3.0497,-3.1021,-3.0516,-2.9653,-2.9653,-2.9653,-2.9653,-2.9653,-2.9501,-2.9313,-2.9313,-2.9179,-2.8857,-2.8298,-2.7976,-2.7655,-2.7148,-2.686,-2.6691,-2.6691,-2.6691,-2.6691,-2.6691,-2.6268,-2.6031,-2.6336,0.0,0.0,0.0,0.0,0.0,0.0,0.0,-2.0805,0.0,0.0,0.0,0.0,0.0,0.0,0.0,0.0,0.0,0.0,0.0,0.0,0.0,-2.6082,-2.681,-2.7029,-2.7791,-2.8569,-2.9365,-3.0091,-3.0717,-3.119,-3.119,-3.119,-3.119,-3.119,-3.119,-3.1258,-3.2005,-3.2747,-3.3491,-3.4218,-3.4979,-3.56,-3.014,-3.0867,-3.1623,-3.2415,-3.3636,-3.4526,-3.4559,-3.5128,-3.5543,-3.5566,-3.5566,-3.5008,-3.3558,-3.3406,-3.3406,-3.3389,-3.3389,-3.3389,-3.3372,-3.3372,-3.3372,0.0,0.0,-3.2293,-3.2293,-3.0852,-2.9736,-2.8993,0.0,0.0,-2.6623,0.0,-2.664,-2.6691,-2.7435,-2.7773,-2.7891,-2.9413,-3.0072,-3.014,-3.0869,-3.1157,-3.1157,-3.1157,-3.1157,-3.1173,-3.1173,-3.119,-3.119,-3.119,-3.119,-3.1157,-3.1157,-3.1157,-3.1157,-3.1157,-3.0666,-3.0091,-3.0091,-2.955,-2.8993,-2.8993,-2.8383,-2.7807,-2.779,-2.7232,-2.6691,-2.6691,-2.6691,-2.6691,-2.6691,-2.6691,-2.6437,-2.5744,0.0,0.0,0.0,0.0,0.0,0.0,-2.0944,-2.0623,-2.2127,0.0,0.0,0.0,0.0,0.0,0.0,0.0,0.0,-2.3274,-2.4101,0.0,-2.5576,-2.6336,-2.7063,-2.7807,-2.8602,-2.9364,-3.0106,-3.0852,-3.119,-3.119,-3.119,-3.119,-3.119,-3.119,-3.119,-3.1258,-3.2005,-3.2747,-3.3491,-3.4218,-3.4979,-3.56,-3.1167,-3.172,-3.214,-3.1875,-3.2201,-3.281,-3.3786,-3.4087,-3.4544,-3.547,-3.56,-3.5414,-3.494,-3.489,-3.4687,0.0,-3.415,-3.3931,0.0,-3.3406,-3.3406,-3.3406,-3.3186,-3.3051,-3.3051,-3.2594,-3.1749,-3.0497,0.0,0.0,0.0,-2.7452,-2.774,-2.8299,-2.9042,-2.9362,-2.943,-3.0429,-3.0852,-3.0869,-3.1106,-3.119,-3.119,-3.119,-3.119,-3.119,-3.119,-3.119,-3.119,-3.119,-3.119,-3.119,-3.119,-3.119,-3.119,-3.119,-3.1021,-3.0852,-3.0852,-3.0666,-3.0378,-2.9871,-2.9567,-2.9092,-2.8043,-2.7232,-2.6691,-2.6691,-2.6691,-2.6691,-2.6691,-2.6691,-2.6623,-2.6387,-2.532,0.0,0.0,0.0,0.0,0.0,0.0,-2.1755,0.0,-2.0487,0.0,0.0,0.0,0.0,0.0,0.0,0.0,0.0,-2.434,0.0,-2.5592,-2.6826,-2.757,-2.7824,-2.9127,-3.0142,-3.0852,-3.1089,-3.119,-3.119,-3.119,-3.119,-3.119,-3.119,-3.1515,-3.2022,-3.2747,-3.3508,-3.4235,-3.4979,-3.5397,-3.56,-3.1582,-3.2092,-3.2532,-3.2339,-3.2501,-3.3035,-3.4178,-3.435,-3.4657,-3.5492,-3.56,-3.56,-3.56,-3.56,0.0,-3.4962,-3.4912,-3.4726,-3.4269,-3.4213,-3.4213,-3.4213,-3.3964,-3.3812,-3.3812,0.0,0.0,-3.2036,-3.1292,-3.0429,-2.9482,-2.9211,-2.9347,-2.9856,-3.0311,-3.0514,-3.0548,-3.1004,-3.136,-3.1596,-3.1596,-3.1765,-3.2002,-3.1735,-3.1596,-3.1562,-3.1292,-3.119,-3.119,-3.119,-3.119,-3.119,-3.119,-3.119,-3.119,-3.119,-3.119,-3.119,-3.119,-3.119,-3.1089,-3.0632,-3.0311,-2.9683,-2.8145,-2.7435,-2.7029,-2.6759,-2.6691,-2.6691,-2.6691,-2.6691,-2.6607,-2.6336,-2.5286,-2.4406,-2.4135,0.0,0.0,0.0,0.0,0.0,0.0,-2.1924,0.0,0.0,0.0,0.0,0.0,0.0,0.0,-2.3088,-2.5,0.0,-2.6421,-2.7638,-2.8399,-2.8686,-2.9922,-3.0751,-3.119,-3.119,-3.119,-3.119,-3.119,-3.119,-3.1207,-3.1515,-3.1887,-3.2395,-3.3406,-3.4083,-3.459,-3.5329,-3.56,-3.56,-3.1511,-3.2092,0.0,0.0,-3.4062,0.0,-3.5407,-3.5515,-3.5571,-3.5667,-3.5633,-3.5633,-3.5752,-3.5667,-3.5616,-3.5667,0.0,0.0,0.0,-3.56,-3.56,-3.56,-3.4945,-3.4573,-3.4573,-3.3897,-3.3541,-3.3491,-3.273,-3.2378,-3.2361,-3.1664,-3.1343,-3.1343,-3.1343,-3.1343,-3.1343,-3.1343,-3.1749,-3.2378,-3.2378,-3.278,-3.3339,-3.2649,-3.2378,-3.2293,-3.1616,-3.1343,-3.1343,-3.1343,-3.1343,-3.1343,-3.1343,-3.1309,-3.1258,-3.1207,-3.119,-3.119,-3.119,-3.119,-3.119,-3.119,-3.0649,-2.9717,-2.8297,-2.7925,-2.7672,-2.6928,-2.6776,-2.6759,-2.6708,-2.6691,-2.6454,-2.5711,-2.4983,-2.4237,-2.3494,0.0,0.0,0.0,0.0,0.0,0.0,-2.3646,-2.3864,0.0,0.0,0.0,0.0,0.0,-2.3241,-2.4609,-2.6015,-2.7131,-2.7874,-2.867,-2.9467,-3.0173,-3.0869,-3.119,-3.119,-3.119,-3.119,-3.119,-3.119,-3.1224,-3.1326,-3.2022,-3.2361,-3.2598,-3.3969,-3.4523,-3.4658,-3.5346,-3.56,-3.56,0.0,0.0,-3.2641,-3.2815,-3.2975,-3.3469,-3.4664,-3.4847,-3.5228,-3.6371,-3.5994,-3.6039,-3.7246,-3.6309,-3.5859,-3.6451,-3.596,-3.56,-3.56,-3.56,-3.56,-3.56,-3.543,-3.5329,-3.5329,-3.516,-3.4788,-3.4235,-3.3508,-3.3136,-3.3136,-3.2966,-3.2882,-3.2882,-3.2882,-3.2882,-3.2882,-3.2882,-3.2983,-3.3136,-3.3136,-3.3237,-3.3389,-3.322,-3.3136,-3.3119,-3.2949,-3.2882,-3.2882,-3.2882,-3.2882,-3.2882,-3.2882,-3.2493,-3.1938,-3.136,-3.119,-3.119,-3.119,-3.119,-3.119,-3.119,-3.0649,-2.9987,-2.9632,-2.9127,-2.8484,-2.7689,-2.7536,-2.7385,-2.6793,-2.6691,-2.6454,-2.5711,-2.4983,-2.4237,-2.3494,-2.3241,0.0,0.0,-2.3797,-2.4169,-2.4,-2.3797,-2.3526,0.0,0.0,0.0,0.0,-2.4831,-2.5812,-2.6183,-2.7063,-2.7908,-2.8722,-2.9465,-3.0209,-3.0937,-3.1106,-3.119,-3.119,-3.119,-3.119,-3.119,-3.119,-3.1532,-3.2056,-3.2226,-3.297,-3.402,-3.4353,-3.4844,-3.5346,-3.5532,-3.56,-3.56,-3.1582,-3.1824,-3.228,-3.2891,-3.3008,-3.347,-3.4849,-3.5052,-3.5352,-3.6148,-3.5861,-3.5926,-3.6759,-3.6091,-3.5778,-3.6215,-3.5844,-3.56,-3.56,-3.56,-3.547,-3.5161,-3.5144,-3.5005,-3.4681,-3.4681,-3.4483,-3.4086,-3.3354,-3.2984,-3.2968,-3.2638,-3.2473,-3.2473,-3.2473,-3.2646,-3.2944,-3.2944,-3.3319,-3.3897,-3.3897,-3.41,-3.4366,-3.4032,-3.3897,-3.3863,-3.3525,-3.3406,-3.3406,-3.3406,-3.3406,-3.3406,-3.3406,-3.3136,-3.2713,-3.2324,-3.1732,-3.119,-3.119,-3.119,-3.119,-3.119,-3.0903,-3.0514,-3.0192,-2.9786,-2.9279,-2.8518,-2.8349,-2.8041,-2.7054,-2.6868,-2.6347,-2.4728,-2.4133,-2.3489,-2.2447,-2.2565,0.0,-2.2763,-2.3671,-2.4165,-2.3852,-2.4066,-2.3935,-2.3259,-2.3836,0.0,-2.4578,-2.6049,-2.684,-2.6708,-2.8112,-2.9058,-2.9499,-3.0226,-3.0801,-3.119,-3.119,-3.119,-3.119,-3.119,-3.119,-3.1207,-3.1565,-3.1938,-3.2344,-3.3038,-3.3783,-3.4523,-3.4878,-3.5245,-3.56,-3.56,-3.56,-3.56,-3.1795,-3.1795,-3.2177,-3.3439,-3.3645,-3.4101,-3.5411,-3.5589,-3.5621,-3.576,-3.5653,-3.5669,-3.5903,-3.5744,-3.5621,-3.5776,-3.5663,-3.5555,-3.5461,-3.5461,-3.5145,-3.4496,-3.4455,-3.4186,-3.3608,-3.3582,-3.3582,-3.3582,-3.2981,-3.2668,-3.2652,-3.202,-3.1725,-3.1725,-3.1725,-3.2063,-3.2574,-3.2574,-3.328,-3.4359,-3.4359,-3.4745,-3.5226,-3.4611,-3.4359,-3.4275,-3.3649,-3.3496,-3.3578,-3.3475,-3.3496,-3.3561,-3.3453,-3.3429,-3.3388,-3.3285,-3.237,-3.1375,-3.1257,-3.1079,-3.0918,-3.0918,-3.0918,-3.0767,-3.0127,-3.0051,-2.9907,-2.9074,-2.9035,-2.8745,-2.7342,-2.7083,-2.6282,-2.372,-2.3287,-2.2752,-2.1295,0.0,-2.2283,-2.2189,-2.3419,-2.4005,-2.3394,-2.4532,-2.4845,-2.3713,-2.4762,-2.5735,-2.6416,-2.698,-2.721,-2.7078,-2.8947,-3.0008,-3.0126,-3.0847,-3.119,-3.119,-3.119,-3.119,-3.119,-3.119,-3.1258,-3.1393,-3.2039,-3.2429,-3.2733,-3.3986,-3.4556,-3.4726,-3.5368,-3.56,-3.56,-3.56,-3.56,-3.56,-3.3185,-3.3185,-3.3427,-3.4197,-3.4342,-3.4618,-3.5463,-3.5589,-3.5824,-3.6454,-3.5983,-3.6063,-3.7329,-3.6362,-3.5856,-3.6486,-3.5963,-3.5374,-3.4797,-3.4765,-3.4465,-3.3777,-3.3761,-3.371,-3.3582,-3.3582,-3.3582,-3.3582,-3.3486,-3.3438,-3.3438,-3.331,-3.3262,-3.3262,-3.3262,-3.3313,-3.3414,-3.3414,-3.3528,-3.375,-3.375,-3.3815,-3.3912,-3.3799,-3.375,-3.3734,-3.3596,-3.3933,-3.4334,-3.3762,-3.3958,-3.4294,-3.3738,-3.3525,-3.3357,-3.2813,-3.2434,-3.2095,-3.1515,-3.0544,-2.9673,-2.9673,-2.9673,-2.9641,-2.9544,-2.9917,-2.993,-2.8676,-2.9234,-2.9313,-2.7297,-2.701,-2.6483,-2.4593,-2.4092,-2.3383,-2.1739,0.0,-2.356,-2.3005,-2.4175,-2.4974,-2.4878,-2.5484,-2.6034,-2.6445,-2.6566,-2.7203,-2.8477,-2.8281,-2.8325,-2.8794,-2.9161,-2.9641,-3.0253,-3.0888,-3.119,-3.119,-3.119,-3.119,-3.119,-3.119,-3.1529,-3.2141,-3.2242,-3.3021,-3.4167,-3.4426,-3.4861,-3.543,-3.5549,-3.56,-3.56,-3.56,-3.56,-3.56,-3.3499,-3.3305,-3.3396,-3.4319,-3.4395,-3.4607,-3.543,-3.5567,-3.5675,-3.5998,-3.5752,-3.5798,-3.6477,-3.5967,-3.5675,-3.6014,-3.5737,-3.5259,-3.4579,-3.4916,-3.4827,-3.414,-3.4081,-3.3732,-3.3002,-3.2647,-3.2461,-3.2461,-3.2461,-3.2461,-3.2461,-3.2461,-3.2461,-3.2461,-3.2461,-3.2691,-3.3066,-3.3066,-3.3261,-3.3582,-3.3582,-3.3582,-3.3582,-3.3582,-3.3582,-3.3582,-3.3582,-3.3811,-3.4012,-3.371,-3.3811,-3.4012,-3.371,-3.3586,-3.3477,-3.3194,-3.2498,-3.1794,-3.1461,-3.0679,-2.9943,-2.9943,-2.9671,-2.9406,-2.9406,-2.9607,-2.9642,-2.9034,-2.934,-2.9221,-2.7529,-2.6971,-2.6286,-2.4798,-2.3858,0.0,0.0,-2.3138,-2.3731,-2.3407,-2.458,-2.5435,-2.5435,-2.5633,-2.5926,-2.6277,-2.6228,-2.6767,-2.8117,-2.7985,-2.8313,-2.9281,-2.9615,-2.9963,-3.0293,-3.0898,-3.119,-3.119,-3.119,-3.1413,-3.1802,-3.1802,-3.2192,-3.2899,-3.3305,-3.3884,-3.4523,-3.4928,-3.5301,-3.56,-3.56,-3.56,-3.56,-3.56,-3.56,-3.56,-3.3963,-3.3663,-3.3693,-3.4562,-3.4592,-3.4741,-3.54,-3.5504,-3.5504,-3.5504,-3.5504,-3.5504,-3.5504,-3.5504,-3.5504,-3.5504,-3.5504,-3.528,-3.4788,-3.5272,-3.5203,-3.4309,-3.4264,-3.3785,-3.2751,-3.2213,-3.1959,-3.1959,-3.1809,-3.1735,-3.1735,-3.157,-3.1511,-3.1511,-3.1511,-3.1824,-3.2355,-3.2355,-3.2652,-3.3103,-3.3103,-3.3103,-3.3103,-3.3103,-3.3103,-3.3103,-3.3103,-3.3235,-3.3339,-3.3182,-3.3235,-3.3339,-3.3182,-3.3235,-3.3339,-3.3156,-3.2295,-3.1445,-3.1446,-3.0844,-3.0202,-3.0202,-2.9706,-2.9225,-2.9225,-2.9215,-2.9157,-2.9019,-2.9203,-2.9003,-2.7719,-2.7069,-2.6337,-2.5104,0.0,0.0,0.0,-2.3651,-2.4014,-2.3849,-2.4881,-2.5615,-2.5615,-2.5875,-2.6044,-2.6044,-2.6195,-2.6764,-2.7889,-2.7682,-2.7961,-2.8957,-2.9717,-3.0102,-3.0102,-3.0539,-3.0781,-3.0777,-3.0944,-3.1312,-3.1867,-3.2013,-3.2498,-3.3211,-3.3957,-3.4359,-3.4577,-3.5301,-3.56,-3.56,-3.56,-3.56,-3.56,-3.56,-3.56,-3.56,-3.5355,-3.5325,-3.534,-3.5415,-3.5415,-3.5429,-3.5489,-3.5504,-3.5504,-3.5504,-3.5504,-3.5504,-3.5504,-3.5504,-3.5504,-3.5504,-3.5504,-3.5489,-3.5429,-3.5467,-3.4913,-3.3636,-3.3576,-3.3531,-3.3425,-3.338,-3.335,-3.335,-3.2736,-3.2437,-3.2392,-3.1795,-3.1511,-3.1511,-3.1511,-3.1524,-3.1582,-3.1582,-3.1611,-3.1653,-3.1653,-3.1653,-3.1653,-3.1653,-3.1653,-3.1653,-3.1653,-3.2076,-3.2559,-3.1894,-3.2104,-3.2559,-3.1881,-3.2104,-3.2532,-3.1853,-3.1593,-3.1509,-3.1566,-3.0628,-2.9651,-2.9651,-2.9155,-2.8673,-2.8673,-2.8599,-2.8415,-2.786,-2.8622,-2.898,-2.7643,-2.7426,-2.7088,-2.6067,0.0,0.0,-2.4301,-2.4933,-2.5217,-2.4605,-2.5158,-2.5615,-2.5615,-2.6673,-2.7357,-2.7357,-2.7953,-2.8561,-2.9236,-2.8203,-2.764,-2.7735,-2.8857,-2.9473,-2.9473,-2.9518,-2.954,-2.954,-3.0154,-3.0491,-3.0571,-3.1166,-3.1855,-3.2602,-3.3294,-3.3971,-3.4653,-3.5305,-3.56,-3.56,-3.56,-3.56,-3.56,-3.56,-3.56,-3.56,-3.5504,-3.5504,-3.5504,-3.5504,-3.5504,-3.5504,-3.5504,-3.5504,-3.5504,-3.5504,-3.5504,-3.5504,-3.5504,-3.5504,-3.5504,-3.5504,-3.5504,-3.5504,-3.5504,-3.5504,-3.528,-3.4756,-3.4337,-3.4098,-3.4098,-3.3709,-3.3499,-3.3499,-3.3245,-3.3125,-3.311,-3.2871,-3.2751,-3.2751,-3.2751,-3.2751,-3.2751,-3.2751,-3.2751,-3.2751,-3.2751,-3.2751,-3.2751,-3.2751,-3.2751,-3.2751,-3.2751,-3.2645,-3.2487,-3.2226,-3.2028,-3.1881,-3.1582,-3.1697,-3.1853,-3.1582,-3.1511,-3.1508,-3.1522,-3.0865,-3.0163,-3.0163,-2.9684,-2.9101,-2.8697,-2.8564,-2.8374,-2.7725,-2.7953,-2.8146,-2.761,-2.7191,-2.6944,-2.7002,0.0,-2.564,-2.5704,-2.6002,-2.6123,-2.5869,-2.6422,-2.6851,-2.6851,-2.7282,-2.7549,-2.7549,-2.7792,-2.8042,-2.8255,-2.7845,-2.776,-2.814,-2.8247,-2.8472,-2.885,-2.9203,-2.9406,-2.9422,-3.0064,-3.0623,-3.1102,-3.1789,-3.2492,-3.3198,-3.345,-3.3719,-3.4012,-3.4252,-3.435,-3.4399,-3.4823,-3.4965,-3.5028,-3.5447,-3.56,-3.56,-3.5504,-3.5504,-3.5504,-3.5504,-3.5504,-3.5504,-3.5504,-3.5504,-3.5504,-3.5504,-3.5504,-3.5504,-3.5504,-3.5504,-3.5504,-3.5504,-3.5504,-3.5504,-3.5504,-3.5504,-3.5504,-3.5504,-3.5055,-3.4801,-3.4801,-3.4352,-3.4128,-3.4128,-3.3903,-3.3799,-3.3799,-3.3589,-3.3499,-3.3499,-3.3499,-3.3499,-3.3499,-3.3499,-3.3499,-3.3499,-3.3499,-3.3499,-3.3499,-3.3499,-3.3499,-3.3499,-3.3499,-3.32,-3.2826,-3.2826,-3.2497,-3.2123,-3.2123,-3.1974,-3.1765,-3.157,-3.1511,-3.1511,-3.1511,-3.1152,-3.0821,-3.0821,-3.0342,-2.9744,-2.9295,-2.9041,-2.8771,-2.8319,-2.8229,-2.8169,-2.7959,-2.7555,-2.7315,-2.7555,-2.6836,-2.6378,-2.6866,-2.6926,-2.6926,-2.6926,-2.733,-2.76,-2.76,-2.76,-2.76,-2.76,-2.76,-2.76,-2.76,-2.76,-2.7785,-2.8198,-2.781,-2.7891,-2.8535,-2.8941,-2.9155,-2.9155,-3.0024,-3.0698,-3.1218,-3.1888,-3.2452,-3.2944,-3.3182,-3.3287,-3.3287,-3.3505,-3.3582,-3.3633,-3.4112,-3.4284,-3.4333,-3.48,-3.4958,-3.5005,-3.5504,-3.5504,-3.5504,-3.5504,-3.5504,-3.5504,-3.5504,-3.5504,-3.5504,-3.5504,-3.5504,-3.5504,-3.5504,-3.5504,-3.5504,-3.5504,-3.5504,-3.5504,-3.5504,-3.5504,-3.5504,-3.5504,-3.5504,-3.5504,-3.5504,-3.5504,-3.5504,-3.5504,-3.4816,-3.4518,-3.4503,-3.3814,-3.3514,-3.3514,-3.3514,-3.3514,-3.3514,-3.3514,-3.3514,-3.3514,-3.3514,-3.3514,-3.3514,-3.3514,-3.3514,-3.3514,-3.3514,-3.3499,-3.3499,-3.3499,-3.3499,-3.3499,-3.3499,-3.3036,-3.2392,-3.1705,-3.1511,-3.1511,-3.1511,-3.1511,-3.1511,-3.1511,-3.0987,-3.0507,-3.0507,-3.0028,-2.9621,-2.9606,-2.9606,-2.9412,-2.8727,-2.8607,-2.8382,-2.772,-2.76,-2.76,-2.76,-2.76,-2.76,-2.76,-2.76,-2.76,-2.76,-2.76,-2.76,-2.76,-2.76,-2.76,-2.76,-2.76,-2.76,-2.76,-2.76,-2.7944,-2.8607,-2.8607,-2.8607,-2.8622,-2.9894,-3.0507,-3.0522,-3.1182,-3.1511,-3.1524,-3.2272,-3.2586,-3.2641,-3.3313,-3.3582,-3.3582,-3.3582,-3.3582,-3.3582,-3.3582,-3.3582,-3.3684,-3.5504,-3.5504,-3.5504,-3.5504,-3.5504,-3.5504,-3.5504,-3.5504,-3.5504,-3.5504,-3.5504,-3.5504,-3.5504,-3.5504,-3.5504,-3.5504,-3.5504,-3.5504,-3.5504,-3.5504,-3.5504,-3.5504,-3.5504,-3.5504,-3.5504,-3.5504,-3.5504,-3.5504,-3.5295,-3.519,-3.519,-3.4996,-3.4906,-3.4906,-3.4906,-3.4906,-3.4906,-3.4906,-3.4906,-3.4906,-3.4906,-3.4906,-3.4906,-3.4906,-3.4906,-3.4906,-3.4906,-3.4592,-3.4219,-3.4219,-3.3873,-3.3499,-3.3499,-3.3365,-3.3155,-3.2961,-3.2557,-3.2183,-3.2183,-3.1854,-3.1511,-3.1511,-3.1346,-3.1077,-3.0612,-3.0357,-3.0103,-2.9696,-2.9606,-2.9547,-2.9352,-2.928,-2.9071,-2.8397,-2.8293,-2.8154,-2.766,-2.76,-2.76,-2.76,-2.76,-2.76,-2.76,-2.76,-2.76,-2.76,-2.76,-2.76,-2.76,-2.8064,-2.8293,-2.8293,-2.8768,-2.9112,-2.928,-2.8831,-2.8831,-2.9295,-3.0118,-3.0507,-3.0522,-3.1182,-3.1511,-3.1496,-3.1739,-3.1824,-3.1853,-3.2048,-3.2132,-3.2173,-3.2707,-3.2895,-3.2975,-3.3443,-3.3582,-3.3633,-3.5504,-3.5504,-3.5504,-3.5504,-3.5504,-3.5504,-3.5504,-3.5504,-3.5504,-3.5504,-3.5504,-3.5504,-3.5504,-3.5504,-3.5504,-3.5504,-3.5504,-3.5504,-3.5504,-3.5504,-3.5504,-3.5504,-3.5504,-3.5504,-3.5504,-3.5504,-3.5504,-3.5504,-3.5504,-3.5504,-3.5504,-3.5504,-3.5504,-3.5504,-3.5504,-3.5504,-3.5504,-3.5504,-3.5504,-3.5504,-3.5504,-3.5504,-3.5504,-3.5504,-3.5504,-3.5504,-3.5504,-3.5235,-3.4891,-3.4891,-3.4622,-3.4233,-3.3963,-3.3888,-3.3829,-3.3574,-3.3215,-3.2901,-3.2901,-3.2422,-3.1899,-3.1899,-3.1705,-3.1391,-3.0972,-3.0883,-3.0806,-3.0432,-3.0357,-3.0268,-2.9998,-2.9953,-2.9744,-2.9086,-2.8996,-2.8846,-2.8453,-2.8393,-2.8289,-2.8034,-2.8004,-2.7899,-2.763,-2.76,-2.7705,-2.7989,-2.8244,-2.8393,-2.8393,-2.8798,-2.8996,-2.8996,-2.9397,-2.9726,-2.9939,-2.9549,-2.9549,-2.9953,-3.0597,-3.0883,-3.0898,-3.1316,-3.1511,-3.1511,-3.1511,-3.1511,-3.1511,-3.1511,-3.1511,-3.1524,-3.1979,-3.216,-3.2216,-3.261,-3.2772,-3.2826,-3.5504,-3.5504,-3.5504,-3.5504,-3.5504,-3.5504,-3.5504,-3.5504,-3.5504,-3.5504,-3.5504,-3.5504,-3.5504,-3.5504,-3.5504,-3.5504,-3.5504,-3.5504,-3.5504,-3.5504,-3.5504,-3.5504,-3.5504,-3.5504,-3.5504,-3.5504,-3.5504,-3.5504,-3.5504,-3.5504,-3.5504,-3.5504,-3.5504,-3.5504,-3.5504,-3.5504,-3.5504,-3.5504,-3.5504,-3.5504,-3.5504,-3.5504,-3.5504,-3.5504,-3.5504,-3.5504,-3.5504,-3.5504,-3.5504,-3.5504,-3.5504,-3.5385,-3.4788,-3.4593,-3.4474,-3.3858,-3.3634,-3.3589,-3.3589,-3.3095,-3.2602,-3.2602,-3.2079,-3.157,-3.1511,-3.1511,-3.1511,-3.1511,-3.1511,-3.1316,-3.0717,-3.0597,-3.0387,-2.9786,-2.9696,-2.9666,-2.9621,-2.9606,-2.9355,-2.8757,-2.8682,-2.8442,-2.7839,-2.7779,-2.8034,-2.8637,-2.9235,-2.9606,-2.9606,-2.9666,-2.9696,-2.9696,-2.9756,-3.0028,-3.0597,-3.0597,-3.0597,-3.0612,-3.1212,-3.1511,-3.1511,-3.1511,-3.1511,-3.1511,-3.1511,-3.1511,-3.1511,-3.1511,-3.1511,-3.1511,-3.1511,-3.1511,-3.1511,-3.1511,-3.1511,-3.1582,-3.5504,-3.5504,-3.5504,-3.5504,-3.5504,-3.5504,-3.5504,-3.5504,-3.5504,-3.5504,-3.5504,-3.5504,-3.5504,-3.5504,-3.5504,-3.5504,-3.5504,-3.5504,-3.5504,-3.5504,-3.5504,-3.5504,-3.5504,-3.5504,-3.5504,-3.5504,-3.5504,-3.5504,-3.5504,-3.5504,-3.5504,-3.5504,-3.5504,-3.5504,-3.5504,-3.5504,-3.5504,-3.5504,-3.5504,-3.5504,-3.5504,-3.5504,-3.5504,-3.5504,-3.5504,-3.5504,-3.5504,-3.5504,-3.5504,-3.5504,-3.5504,-3.5474,-3.5325,-3.528,-3.525,-3.5115,-3.4681,-3.4294,-3.4294,-3.3784,-3.3275,-3.3275,-3.2781,-3.2138,-3.163,-3.1511,-3.1511,-3.1511,-3.1511,-3.1466,-3.1316,-3.1271,-3.1062,-3.0417,-3.0298,-3.0133,-2.9681,-2.9606,-2.9562,-2.9412,-2.937,-2.9337,-2.9187,-2.9172,-2.9232,-2.9355,-2.9532,-2.9606,-2.9606,-3.0043,-3.0298,-3.0298,-3.0793,-3.1152,-3.1271,-3.1271,-3.1271,-3.1286,-3.1436,-3.1511,-3.1511,-3.1511,-3.1511,-3.1511,-3.1511,-3.1511,-3.1511,-3.1511,-3.1511,-3.1511,-3.1511,-3.1511,-3.1511,-3.1511,-3.1511,-3.1524,-3.5504,-3.5504,-3.5504,-3.5504,-3.5504,-3.5504,-3.5504,-3.5504,-3.5504,-3.5504,-3.5504,-3.5504,-3.5504,-3.5504,-3.5504,-3.5504,-3.5504,-3.5504,-3.5504,-3.5504,-3.5504,-3.5504,-3.5504,-3.5504,-3.5504,-3.5504,-3.5504,-3.5504,-3.5504,-3.5504,-3.5504,-3.5504,-3.5504,-3.5504,-3.5504,-3.5504,-3.5504,-3.5504,-3.5504,-3.5504,-3.5504,-3.5504,-3.5504,-3.5504,-3.5504,-3.5504,-3.5504,-3.5504,-3.5504,-3.5504,-3.5504,-3.5504,-3.5504,-3.5504,-3.5504,-3.5504,-3.525,-3.4966,-3.4966,-3.4472,-3.3994,-3.3994,-3.3469,-3.2811,-3.2123,-3.1735,-3.1511,-3.1511,-3.1511,-3.1511,-3.1511,-3.1511,-3.1391,-3.1017,-3.0972,-3.0881,-3.0552,-3.0507,-3.0387,-3.0058,-3.0028,-2.9909,-2.9636,-2.9849,-3.0028,-3.0028,-3.0328,-3.0507,-3.0507,-3.0821,-3.0972,-3.0972,-3.1316,-3.1511,-3.1511,-3.1511,-3.1511,-3.1511,-3.1511,-3.1511,-3.1511,-3.1511,-3.1511,-3.1511,-3.1511,-3.1511,-3.1511,-3.1511,-3.1511,-3.1511,-3.1511,-3.1511,-3.1511,-3.1511,-3.1511,-3.1511,-3.5504,-3.5504,-3.5504,-3.5504,-3.5504,-3.5504,-3.5504,-3.5504,-3.5504,-3.5504,-3.5504,-3.5504,-3.5504,-3.5504,-3.5504,-3.5504,-3.5504,-3.5504,-3.5504,-3.5504,-3.5504,-3.5504,-3.5504,-3.5504,-3.5504,-3.5504,-3.5504,-3.5504,-3.5504,-3.5504,-3.5504,-3.5504,-3.5504,-3.5504,-3.5504,-3.5504,-3.5504,-3.5504,-3.5504,-3.5504,-3.5504,-3.5504,-3.5504,-3.5504,-3.5504,-3.5504,-3.5504,-3.5504,-3.5504,-3.5504,-3.5504,-3.5504,-3.5504,-3.5504,-3.5504,-3.5504,-3.5504,-3.5504,-3.5504,-3.5085,-3.4683,-3.4683,-3.4189,-3.3529,-3.2976,-3.2303,-3.1809,-3.169,-3.1675,-3.1645,-3.1525,-3.1511,-3.1511,-3.1511,-3.1511,-3.1511,-3.1511,-3.1511,-3.1286,-3.0746,-3.0672,-3.0477,-2.9968,-3.0372,-3.0672,-3.0672,-3.1182,-3.1511,-3.1511,-3.1511,-3.1511,-3.1511,-3.1511,-3.1511,-3.1511,-3.1511,-3.1511,-3.1511,-3.1511,-3.1511,-3.1511,-3.1511,-3.1511,-3.1511,-3.1511,-3.1511,-3.1511,-3.1511,-3.1511,-3.1511,-3.1511,-3.1511,-3.1511,-3.1511,-3.1511,-3.1525,-3.5504,-3.5504,-3.5504,-3.5504,-3.5504,-3.5504,-3.5504,-3.5504,-3.5504,-3.5504,-3.5504,-3.5504,-3.5504,-3.5504,-3.5504,-3.5504,-3.5504,-3.5504,-3.5504,-3.5504,-3.5504,-3.5504,-3.5504,-3.5504,-3.5504,-3.5504,-3.5504,-3.5504,-3.5504,-3.5504,-3.5504,-3.5504,-3.5504,-3.5504,-3.5504,-3.5504,-3.5504,-3.5504,-3.5504,-3.5504,-3.5504,-3.5504,-3.5504,-3.5504,-3.5504,-3.5504,-3.5504,-3.5504,-3.5504,-3.5504,-3.5504,-3.5504,-3.5504,-3.5504,-3.5504,-3.5504,-3.5504,-3.5504,-3.5504,-3.5429,-3.537,-3.537,-3.4846,-3.4354,-3.4264,-3.3709,-3.3066,-3.2467,-3.2348,-3.2183,-3.1615,-3.1511,-3.1511,-3.1511,-3.1511,-3.1511,-3.1511,-3.1511,-3.1466,-3.1376,-3.1361,-3.1331,-3.1256,-3.1316,-3.1361,-3.1361,-3.1451,-3.1511,-3.1511,-3.1511,-3.1511,-3.1511,-3.1511,-3.1511,-3.1511,-3.1511,-3.1511,-3.1511,-3.1511,-3.1511,-3.1511,-3.1511,-3.1511,-3.1511,-3.1511,-3.1511,-3.1511,-3.1511,-3.1511,-3.1511,-3.1511,-3.1511,-3.1511,-3.1511,-3.1511,-3.1585,-3.5504,-3.5504,-3.5504,-3.5504,-3.5504,-3.5504,-3.5504,-3.5504,-3.5504,-3.5504,-3.5504,-3.5504,-3.5504,-3.5504,-3.5504,-3.5504,-3.5504,-3.5504,-3.5504,-3.5504,-3.5504,-3.5504,-3.5504,-3.5504,-3.5504,-3.5504,-3.5504,-3.5504,-3.5504,-3.5504,-3.5504,-3.5504,-3.5504,-3.5504,-3.5504,-3.5504,-3.5504,-3.5504,-3.5504,-3.5504,-3.5504,-3.5504,-3.5504,-3.5504,-3.5504,-3.5504,-3.5504,-3.5504,-3.5504,-3.5504,-3.5504,-3.5504,-3.5504,-3.5504,-3.5504,-3.5504,-3.5504,-3.5504,-3.5504,-3.5504,-3.5504,-3.5504,-3.528,-3.5055,-3.5055,-3.4831,-3.4322,-3.3275,-3.3066,-3.2856,-3.2168,-3.2049,-3.1929,-3.157,-3.1511,-3.1511,-3.1511,-3.1511,-3.1511,-3.1511,-3.1511,-3.1511,-3.1511,-3.1511,-3.1511,-3.1511,-3.1511,-3.1511,-3.1511,-3.1511,-3.1511,-3.1511,-3.1511,-3.1511,-3.1511,-3.1511,-3.1511,-3.1511,-3.1511,-3.1511,-3.1511,-3.1511,-3.1511,-3.1511,-3.1511,-3.1511,-3.1511,-3.1511,-3.1511,-3.1511,-3.1511,-3.1511,-3.1511,-3.1511,-3.1511,-3.16]},{"header":{"parameterUnit":"m.s-1","parameterCategory":1,"la1":30.6,"la2":28.766,"lo1":-90.7593,"lo2":-88.6598,"dy":0.0162,"dx":0.0183,"nx":116,"ny":114,"refTime":"2024-06-08T00:00:00:Z","depth":0,"parameterNumber":3,"parameterNumberName":"V-component_of_WINDS"},"data":[0.0,0.0,0.0,0.0,0.0,0.0,0.0,0.0,0.0,0.0,0.0,0.0,0.0,0.0,0.0,0.0,0.0,0.0,0.0,0.0,0.0,0.0,0.0,0.0,0.0,0.0,0.0,0.0,0.0,0.0,0.0,0.0,0.0,0.0,0.0,0.0,0.0,0.0,0.0,0.0,0.0,0.0,0.0,0.0,0.0,0.0,0.0,0.0,0.0,0.0,0.0,0.0,0.0,0.0,0.0,0.0,0.0,0.0,0.0,0.0,0.0,0.0,0.0,0.0,0.0,0.0,0.0,0.0,0.0,0.0,0.0,0.0,0.0,0.0,0.0,0.0,0.0,0.0,0.0,0.0,0.0,0.0,0.0,0.0,0.0,0.0,0.0,0.0,0.0,0.0,0.0,0.0,0.0,0.0,0.0,0.0,0.0,0.0,0.0,0.0,0.0,0.0,0.0,0.0,0.0,0.0,0.0,0.0,0.0,0.0,0.0,0.0,0.0,0.0,0.0,0.0,0.0,0.0,0.0,0.0,0.0,0.0,0.0,0.0,0.0,0.0,0.0,0.0,0.0,0.0,0.0,0.0,0.0,0.0,0.0,0.0,0.0,0.0,0.0,0.0,0.0,0.0,0.0,0.0,0.0,0.0,0.0,0.0,0.0,0.0,0.0,0.0,0.0,0.0,0.0,0.0,0.0,0.0,0.0,0.0,0.0,0.0,0.0,0.0,0.0,0.0,0.0,0.0,0.0,0.0,0.0,0.0,0.0,0.0,0.0,0.0,0.0,0.0,0.0,0.0,0.0,0.0,0.0,0.0,0.0,0.0,0.0,0.0,0.0,0.0,0.0,0.0,0.0,0.0,0.0,0.0,0.0,0.0,0.0,0.0,0.0,0.0,0.0,0.0,0.0,0.0,0.0,0.0,0.0,0.0,0.0,0.0,0.0,0.0,0.0,0.0,0.0,0.0,0.0,0.0,0.0,0.0,0.0,0.0,0.0,0.0,0.0,0.0,0.0,0.0,0.0,0.0,0.0,0.0,0.0,0.0,0.0,0.0,0.0,0.0,0.0,0.0,0.0,0.0,0.0,0.0,0.0,0.0,0.0,0.0,0.0,0.0,0.0,0.0,0.0,0.0,0.0,0.0,0.0,0.0,0.0,0.0,0.0,0.0,0.0,0.0,0.0,0.0,0.0,0.0,0.0,0.0,0.0,0.0,0.0,0.0,0.0,0.0,0.0,0.0,0.0,0.0,0.0,0.0,0.0,0.0,0.0,0.0,0.0,0.0,0.0,0.0,0.0,0.0,0.0,0.0,0.0,0.0,0.0,0.0,0.0,0.0,0.0,0.0,0.0,0.0,0.0,0.0,0.0,0.0,0.0,0.0,0.0,0.0,0.0,0.0,0.0,0.0,0.0,0.0,0.0,0.0,0.0,0.0,0.0,0.0,0.0,0.0,0.0,0.0,0.0,0.0,0.0,0.0,0.0,0.0,0.0,0.0,0.0,0.0,0.0,0.0,0.0,0.0,0.0,0.0,0.0,0.0,0.0,0.0,0.0,0.0,0.0,0.0,0.0,0.0,0.0,0.0,0.0,0.0,0.0,0.0,0.0,0.0,0.0,0.0,0.0,0.0,0.0,0.0,0.0,0.0,0.0,0.0,0.0,0.0,0.0,0.0,0.0,0.0,0.0,0.0,0.0,0.0,0.0,0.0,0.0,0.0,0.0,0.0,0.0,0.0,0.0,0.0,0.0,0.0,0.0,0.0,0.0,0.0,0.0,0.0,0.0,0.0,0.0,0.0,0.0,0.0,0.0,0.0,0.0,0.0,0.0,0.0,0.0,0.0,0.0,0.0,0.0,0.0,0.0,0.0,0.0,0.0,0.0,0.0,0.0,0.0,0.0,0.0,0.0,0.0,0.0,0.0,0.0,0.0,0.0,0.0,0.0,0.0,0.0,0.0,0.0,0.0,0.0,0.0,0.0,0.0,0.0,0.0,0.0,0.0,0.0,0.0,0.0,0.0,0.0,0.0,0.0,0.0,0.0,0.0,0.0,0.0,0.0,0.0,0.0,0.0,0.0,0.0,0.0,0.0,0.0,0.0,0.0,0.0,0.0,0.0,0.0,0.0,0.0,0.0,0.0,0.0,0.0,0.0,0.0,0.0,0.0,0.0,0.0,0.0,0.0,0.0,0.0,0.0,0.0,0.0,0.0,0.0,0.0,0.0,0.0,0.0,0.0,0.0,0.0,0.0,0.0,0.0,0.0,0.0,0.0,0.0,0.0,0.0,0.0,0.0,0.0,0.0,0.0,0.0,0.0,0.0,0.0,0.0,0.0,0.0,0.0,0.0,0.0,0.0,0.0,0.0,0.0,0.0,0.0,0.0,0.0,0.0,0.0,0.0,0.0,0.0,0.0,0.0,0.0,0.0,0.0,0.0,0.0,0.0,0.0,0.0,0.0,0.0,0.0,0.0,0.0,0.0,0.0,0.0,0.0,0.0,0.0,0.0,0.0,0.0,0.0,0.0,0.0,0.0,0.0,0.0,0.0,0.0,0.0,0.0,0.0,0.0,0.0,0.0,0.0,0.0,0.0,0.0,0.0,0.0,0.0,0.0,0.0,0.0,0.0,0.0,0.0,0.0,0.0,0.0,0.0,0.0,0.0,0.0,0.0,0.0,0.0,0.0,0.0,0.0,0.0,0.0,0.0,0.0,0.0,0.0,0.0,0.0,0.0,0.0,0.0,0.0,0.0,0.0,0.0,0.0,0.0,0.0,0.0,0.0,0.0,0.0,0.0,0.0,0.0,0.0,0.0,0.0,0.0,0.0,0.0,0.0,0.0,0.0,0.0,0.0,0.0,0.0,0.0,0.0,0.0,0.0,0.0,0.0,0.0,0.0,0.0,0.0,0.0,0.0,0.0,0.0,0.0,0.0,0.0,0.0,0.0,0.0,0.0,0.0,0.0,0.0,0.0,0.0,0.0,0.0,0.0,0.0,0.0,0.0,0.0,0.0,0.0,0.0,0.0,0.0,0.0,0.0,0.0,0.0,0.0,0.0,0.0,0.0,0.0,0.0,0.0,0.0,0.0,0.0,0.0,0.0,0.0,0.0,0.0,0.0,0.0,0.0,0.0,0.0,0.0,0.0,0.0,0.0,0.0,0.0,0.0,0.0,0.0,0.0,0.0,0.0,0.0,0.0,0.0,0.0,0.0,0.0,0.0,0.0,0.0,0.0,0.0,0.0,0.0,0.0,0.0,0.0,0.0,0.0,0.0,0.0,0.0,0.0,0.0,0.0,0.0,0.0,0.0,0.0,0.0,0.0,0.0,0.0,0.0,0.0,0.0,0.0,0.0,0.0,0.0,0.0,0.0,0.0,0.0,0.0,0.0,0.0,0.0,0.0,0.0,0.0,0.0,0.0,0.0,0.0,0.0,0.0,0.0,0.0,0.0,0.0,0.0,0.0,0.0,0.0,0.0,0.0,0.0,0.0,0.0,0.0,0.0,0.0,0.0,0.0,0.0,0.0,0.0,0.0,0.0,0.0,0.0,0.0,0.0,0.0,0.0,0.0,0.0,0.0,0.0,0.0,0.0,0.0,0.0,0.0,0.0,0.0,0.0,0.0,0.0,0.0,0.0,0.0,0.0,0.0,0.0,0.0,0.0,0.0,0.0,0.0,0.0,0.0,0.0,0.0,0.0,0.0,0.0,0.0,0.0,0.0,0.0,0.0,0.0,0.0,0.0,0.0,0.0,0.0,0.0,0.0,0.0,0.0,0.0,0.0,0.0,0.0,0.0,0.0,0.0,0.0,0.0,0.0,0.0,0.0,0.0,0.0,0.0,0.0,0.0,0.0,0.0,0.0,0.0,0.0,0.0,0.0,0.0,0.0,0.0,0.0,0.0,0.0,0.0,0.0,0.0,0.0,0.0,0.0,0.0,0.0,0.0,0.0,0.0,0.0,0.0,0.0,0.0,0.0,0.0,0.0,0.0,0.0,0.0,0.0,0.0,0.0,0.0,0.0,0.0,0.0,0.0,0.0,0.0,0.0,0.0,0.0,0.0,0.0,0.0,0.0,0.0,0.0,0.0,0.0,0.0,0.0,0.0,0.0,0.0,0.0,0.0,0.0,0.0,0.0,0.0,0.0,0.0,0.0,0.0,0.0,0.0,0.0,0.0,0.0,0.0,0.0,0.0,0.0,0.0,0.0,0.0,0.0,0.0,0.0,0.0,0.0,0.0,0.0,0.0,0.0,0.0,0.0,0.0,0.0,0.0,0.0,0.0,0.0,0.0,0.0,0.0,0.0,0.0,0.0,0.0,0.0,0.0,0.0,0.0,0.0,0.0,0.0,0.0,0.0,0.0,0.0,0.0,0.0,0.0,0.0,0.0,0.0,0.0,0.0,0.0,0.0,0.0,0.0,0.0,0.0,0.0,0.0,0.0,0.0,0.0,0.0,0.0,0.0,0.0,0.0,0.0,0.0,0.0,0.0,0.0,0.0,0.0,0.0,0.0,0.0,0.0,0.0,0.0,0.0,0.0,0.0,0.0,0.0,0.0,0.0,0.0,0.0,0.0,0.0,0.0,0.0,0.0,0.0,0.0,0.0,0.0,0.0,0.0,0.0,0.0,0.0,0.0,0.0,0.0,0.0,0.0,0.0,0.0,0.0,0.0,0.0,0.0,0.0,0.0,0.0,0.0,0.0,0.0,0.0,0.0,0.0,0.0,0.0,0.0,0.0,0.0,0.0,0.0,0.0,0.0,0.0,0.0,0.0,0.0,0.0,0.0,0.0,0.0,0.0,0.0,0.0,0.0,0.0,0.0,0.0,0.0,0.0,0.0,0.0,0.0,0.0,0.0,0.0,0.0,0.0,0.0,0.0,0.0,0.0,0.0,0.0,0.0,0.0,0.0,0.0,0.0,0.0,0.0,0.0,0.0,0.0,0.0,0.0,0.0,0.0,0.0,0.0,0.0,0.0,0.0,0.0,0.0,0.0,0.0,0.0,0.0,0.0,0.0,0.0,0.0,0.0,0.0,0.0,0.0,0.0,0.0,0.0,0.0,0.0,0.0,0.0,0.0,0.0,0.0,0.0,0.0,0.0,0.0,0.0,0.0,0.0,0.0,0.0,0.0,0.0,0.0,0.0,0.0,0.0,0.0,0.0,0.0,0.0,0.0,0.0,0.0,0.0,0.0,0.0,0.0,0.0,0.0,0.0,0.0,0.0,0.0,0.0,0.0,0.0,0.0,0.0,0.0,0.0,0.0,0.0,0.0,0.0,0.0,0.0,0.0,0.0,0.0,0.0,0.0,0.0,0.0,0.0,0.0,0.0,0.0,0.0,0.0,0.0,0.0,0.0,0.0,0.0,0.0,0.0,0.0,0.0,0.0,0.0,0.0,0.0,0.0,0.0,0.0,0.0,0.0,0.0,0.0,0.0,0.0,0.0,0.0,0.0,0.0,0.0,0.0,0.0,0.0,0.0,0.0,0.0,0.0,0.0,0.0,0.0,0.0,0.0,0.0,0.0,0.0,0.0,0.0,0.0,0.0,0.0,0.0,0.0,0.0,0.0,0.0,0.0,0.0,0.0,0.0,0.0,0.0,0.0,0.0,0.0,0.0,0.0,0.0,0.0,0.0,0.0,0.0,0.0,0.0,0.0,0.0,0.0,0.0,0.0,0.0,0.0,0.0,0.0,0.0,0.0,0.0,0.0,0.0,0.0,0.0,0.0,0.0,0.0,0.0,0.0,0.0,0.0,0.0,0.0,0.0,0.0,0.0,0.0,0.0,0.0,0.0,0.0,0.0,0.0,0.0,0.0,0.0,0.0,0.0,0.0,0.0,0.0,0.0,0.0,0.0,0.0,0.0,0.0,0.0,0.0,0.0,0.0,0.0,0.0,0.0,0.0,0.0,0.0,0.0,0.0,0.0,0.0,0.0,0.0,0.0,0.0,0.0,0.0,0.0,0.0,0.0,0.0,0.0,0.0,0.0,0.0,0.0,0.0,0.0,0.0,0.0,0.0,0.0,0.0,0.0,0.0,0.0,0.0,0.0,0.0,0.0,0.0,0.0,0.0,0.0,0.0,0.0,0.0,0.0,0.0,0.0,0.0,1.1188,0.0,0.0,0.0,0.0,0.0,0.0,0.0,0.0,0.0,0.0,0.0,0.0,0.0,0.0,0.0,0.0,0.0,0.0,0.0,0.0,0.0,0.0,0.0,0.0,0.2357,0.2578,0.2886,0.3158,0.3258,0.3131,0.0,0.0,0.0,0.0,0.0,0.3921,0.4037,0.4122,0.416,0.4283,0.4411,0.4536,0.471,0.4763,0.4732,0.0,0.0,0.0,0.0,0.0,0.0,0.0,0.0,0.0,0.0,0.0,0.0,0.0,0.0,0.0,0.0,0.0,0.0,0.0,0.0,0.0,0.0,0.0,0.0,0.0,0.0,0.0,0.0,0.0,0.0,0.0,0.0,0.0,0.0,0.0,0.0,0.0,0.0,0.0,0.0,0.0,0.0,0.0,0.0,0.0,0.0,0.0,0.0,0.0,0.0,0.0,0.0,0.0,0.0,0.0,0.0,0.0,0.0,0.0,0.0,0.0,0.0,0.0,0.0,0.0,0.0,0.0,0.0,0.0,0.0,0.0,1.2153,0.0,0.0,0.0,0.0,0.0,0.0,0.0,0.0,0.0,0.0,0.0,0.0,0.0,0.0,0.0,0.0,0.0,0.0,0.0,0.0,0.0,0.1825,0.2095,0.2172,0.2313,0.2589,0.2665,0.2676,0.2621,0.2918,0.0,0.0,0.0,0.3474,0.3432,0.365,0.3814,0.3908,0.428,0.4593,0.4825,0.5096,0.5233,0.5203,0.4922,0.0,0.0,0.0,0.0,0.0,0.0,0.0,0.0,0.0,0.0,0.0,0.0,0.0,0.0,0.0,0.0,0.0,0.0,0.0,0.0,0.0,0.0,0.0,0.0,0.0,0.0,0.0,0.0,0.0,0.0,0.0,0.0,0.0,0.0,0.0,0.0,0.0,0.0,0.0,0.0,0.0,0.0,0.0,0.0,0.0,0.0,0.0,0.0,0.0,0.0,0.0,0.0,0.0,0.0,0.0,0.0,0.0,0.0,0.0,0.0,0.0,0.0,0.0,1.1993,1.22,1.22,1.2202,1.244,1.2879,1.3167,1.3546,1.3867,0.0,0.0,0.0,0.0,0.0,0.0,0.0,0.0,0.0,0.0,0.0,0.0,0.0,0.0,0.0,0.0,0.0,0.0,0.0,0.0,0.1485,0.1814,0.2062,0.2215,0.2259,0.2535,0.2578,0.228,0.2783,0.0,0.0,0.3234,0.3393,0.3153,0.3185,0.3324,0.3573,0.4362,0.4799,0.4887,0.4939,0.508,0.5282,0.4955,0.4979,0.5231,0.0,0.0,0.0,0.0,0.0,0.0,0.0,0.0,0.0,0.0,0.0,0.0,0.0,0.0,0.0,0.0,0.0,0.0,0.0,0.0,0.0,0.0,0.0,0.0,0.0,0.0,0.0,0.0,0.0,0.0,0.0,0.0,0.0,0.0,0.0,0.0,0.0,0.0,0.0,0.0,0.0,0.72,0.7586,0.0,0.0,0.0,0.0,0.0,0.0,0.0,0.0,0.0,0.0,0.0,0.0,0.0,1.1369,1.191,1.3289,1.4005,1.405,1.4969,1.5388,1.5388,1.5388,1.5421,1.5477,1.5026,0.0,1.3666,1.2647,0.0,0.0,0.0,0.0,0.0,0.0,0.0,0.0,0.0,0.0,0.0,0.0,0.0,0.0,0.0,0.0,0.0,0.0,0.0,0.0,0.0,0.193,0.2123,0.2191,0.2435,0.2446,0.2109,0.2578,0.2734,0.2436,0.2826,0.2993,0.2875,0.2955,0.3211,0.3673,0.4539,0.4991,0.5017,0.5287,0.5679,0.6135,0.5835,0.5717,0.5693,0.4977,0.0,0.0,0.0,0.0,0.0,0.0,0.0,0.0,0.0,0.0,0.0,0.0,0.0,0.0,0.0,0.0,0.0,0.0,0.0,0.0,0.0,0.0,0.0,0.0,0.0,0.0,0.0,0.0,0.0,0.0,0.0,0.0,0.0,0.0,0.0,0.0,0.0,0.0,0.0,0.676,0.7211,0.8043,0.7732,0.751,0.0,0.0,0.0,0.0,0.0,0.0,0.0,0.0,0.0,1.0249,1.1141,1.1947,1.2594,1.3715,1.428,1.428,1.4272,1.4258,1.4231,1.3803,1.3571,1.358,1.3303,1.3209,1.3248,1.3059,1.2925,1.2753,0.0,0.0,0.0,0.0,1.0939,1.0895,0.0,0.0,0.0,0.0,0.0,0.0,0.0,0.0,0.0,0.0,0.0,0.0,0.1405,0.1801,0.2061,0.2096,0.2347,0.2386,0.215,0.2442,0.2515,0.2266,0.2542,0.2673,0.2628,0.2873,0.3297,0.3908,0.4701,0.5176,0.5338,0.5486,0.6038,0.6853,0.6474,0.6349,0.6416,0.5737,0.5406,0.5295,0.0,0.0,0.0,0.0,0.0,0.0,0.0,0.0,0.0,0.0,0.0,0.0,0.0,0.0,0.0,0.0,0.0,0.0,0.0,0.0,0.0,0.0,0.0,0.0,0.0,0.0,0.0,0.0,0.0,0.0,0.0,0.0,0.0,0.0,0.0,0.0,0.0,0.7036,0.7533,0.8222,0.8059,0.785,0.0,0.0,0.0,0.0,0.0,0.0,0.9136,0.9813,1.028,1.0431,1.1514,1.234,1.2886,1.3833,1.427,1.428,1.3792,1.3534,1.3534,1.2919,1.2544,1.2346,1.2346,1.2553,1.2959,1.3276,1.3286,1.301,1.2569,1.2086,1.1724,1.1875,1.1686,1.1409,0.0,0.0,0.0,0.0,0.0,0.0,0.0,0.0,0.0,0.0,0.0,0.0921,0.0935,0.1686,0.2088,0.184,0.2233,0.2491,0.2477,0.2439,0.2408,0.2388,0.2589,0.2609,0.242,0.298,0.3577,0.4187,0.4789,0.5395,0.5945,0.5262,0.5712,0.7044,0.6328,0.6543,0.7365,0.6518,0.5972,0.5605,0.4765,0.0,0.0,0.0,0.0,0.0,0.0,0.0,0.0,0.0,0.0,0.0,0.0,0.0,0.0,0.0,0.0,0.0,0.0,0.0,0.0,0.0,0.0,0.0,0.0,0.0,0.0,0.0,0.0,0.0,0.0,0.0,0.0,0.0,0.0,0.0,0.0,0.0,0.0,0.8088,0.9056,0.0,0.0,0.0,0.0,0.8803,0.914,0.9659,1.0448,1.0845,1.1218,1.161,1.2396,1.285,1.2895,1.4145,1.4746,1.4784,1.5099,1.5255,1.5255,1.5226,1.4808,1.4052,1.4052,1.3665,1.2984,1.2958,1.3247,1.3688,1.3085,1.2717,1.2466,1.1919,1.1288,1.0752,0.0,0.0,0.0,0.0,0.0,0.0479,0.019,0.0145,0.0145,0.0145,0.0398,0.0632,0.0754,0.1553,0.2066,0.2058,0.2558,0.2819,0.2644,0.2527,0.2463,0.2463,0.2406,0.2483,0.2721,0.3108,0.3472,0.3821,0.4773,0.5101,0.4855,0.514,0.582,0.6769,0.6509,0.7022,0.8013,0.7094,0.6546,0.6199,0.5324,0.469,0.0,0.0,0.0,0.0,0.0,0.0,0.0,0.0,0.0,0.0,0.0,0.0,0.0,0.0,0.0,0.0,0.0,0.0,0.0,0.0,0.0,0.0,0.0,0.0,0.0,0.0,0.0,0.0,0.0,0.0,0.0,0.0,0.0,0.0,0.0,0.0,0.0,0.8883,0.8951,0.0,0.8959,0.9141,0.9399,0.9784,1.0441,1.0793,1.0673,1.0768,1.0799,1.0659,1.1665,1.2264,1.2456,1.3625,1.4226,1.4235,1.3827,1.367,1.3638,1.3074,1.2685,1.24,1.24,1.2538,1.2798,1.2774,1.2803,1.285,1.2329,1.2089,1.1925,1.1279,1.1006,1.0902,0.0,0.0,0.0,0.0,0.0324,0.0179,-0.0089,-0.0056,-0.0034,-0.0128,0.0183,0.0415,0.0453,0.1235,0.185,0.2041,0.252,0.281,0.2825,0.2627,0.2498,0.2498,0.2459,0.2619,0.303,0.3327,0.3576,0.3805,0.4552,0.4947,0.501,0.5112,0.5955,0.7316,0.6831,0.7306,0.8502,0.7776,0.7248,0.6834,0.6057,0.5447,0.4958,0.0,0.0,0.0,0.0,0.0,0.0,0.0,0.0,0.0,0.0,0.0,0.0,0.0,0.0,0.0,0.0,0.0,0.0,0.0,0.0,0.0,0.0,0.0,0.0,0.0,0.0,0.0,0.0,0.0,0.0,0.0,0.0,0.0,0.0,0.0,0.8349,0.9049,0.908,0.9097,0.9186,0.9542,0.9868,1.0084,1.077,1.0986,1.053,1.0679,1.0681,1.0408,1.1502,1.2181,1.2364,1.3375,1.3892,1.3892,1.3369,1.3109,1.3076,1.2497,1.2098,1.1833,1.1833,1.2003,1.2274,1.2274,1.2196,1.205,1.2055,1.1864,1.1533,1.1095,1.0818,1.0577,0.0,0.0,0.0,0.039,0.0168,-0.009,-0.0345,-0.0168,-0.0092,-0.0348,0.0063,0.0287,0.0033,0.0776,0.1419,0.1763,0.2045,0.2457,0.3056,0.2716,0.2501,0.2511,0.2785,0.305,0.3313,0.3653,0.3951,0.4197,0.4227,0.5041,0.6507,0.5171,0.6036,0.8672,0.7235,0.7429,0.8791,0.8536,0.8074,0.7477,0.6874,0.6459,0.6115,0.0,0.0,0.0,0.0,0.0,0.0,0.0,0.0,0.0,0.0,0.0,0.0,0.0,0.0,0.0,0.0,0.0,0.0,0.0,0.0,0.0,0.0,0.0,0.0,0.0,0.0,0.0,0.0,0.0,0.0,0.0,0.0,0.0,0.7405,0.8616,0.922,0.852,0.9535,1.0009,0.9293,0.9526,0.9735,0.9755,0.9987,1.0117,1.0123,1.0695,1.1009,1.1009,1.209,1.2661,1.2661,1.3459,1.3858,1.3858,1.3858,1.3858,1.3858,1.3858,1.3433,1.2683,1.2683,1.2201,1.1415,1.1415,1.1415,1.1484,1.2316,1.2139,1.1389,1.1389,1.0757,0.9771,0.0,0.0,0.0112,0.0112,0.0045,-0.0022,-0.0101,-0.0045,-0.0023,-0.01,0.0013,0.0088,0.0,0.0596,0.1179,0.1627,0.1987,0.2424,0.2919,0.2678,0.2582,0.2774,0.3276,0.3585,0.3666,0.3944,0.4139,0.4197,0.4828,0.512,0.5089,0.5167,0.5928,0.7182,0.6777,0.7429,0.8804,0.8717,0.8591,0.837,0.7571,0.6941,0.6439,0.0,0.0,0.0,0.0,0.0,0.0,0.0,0.0,0.0,0.0,0.0,0.0,0.0,0.0,0.0,0.0,0.0,0.0,0.0,0.0,0.0,0.0,0.0,0.0,0.0,0.0,0.0,0.0,0.0,0.0,0.0,0.0,0.8477,0.854,0.8806,0.9084,0.9321,0.9657,0.987,0.9853,0.9947,1.0174,1.0601,1.0708,1.0842,1.1022,1.1182,1.1309,1.1309,1.1833,1.213,1.213,1.2515,1.2734,1.2734,1.2734,1.2734,1.2734,1.2734,1.2627,1.2418,1.2418,1.2274,1.2058,1.2058,1.161,1.1015,1.1549,1.1594,1.1389,1.1389,1.0757,0.9771,0.0,0.0502,0.0134,0.0022,0.0,-0.0034,-0.0145,-0.0067,-0.0035,-0.015,-0.0067,0.0,0.0,0.0313,0.0813,0.1545,0.1736,0.2134,0.2859,0.2761,0.2826,0.3174,0.3575,0.3849,0.3954,0.4216,0.4338,0.4338,0.4821,0.503,0.4921,0.503,0.5628,0.6588,0.6285,0.6961,0.8348,0.8348,0.8507,0.8758,0.8237,0.7772,0.7316,0.6908,0.6532,0.6198,0.6052,0.5869,0.5685,0.5685,0.0,0.0,0.0,0.0,0.0,0.0,0.0,0.0,0.0,0.0,0.0,0.0,0.0,0.0,0.0,0.0,0.0,0.0,0.0,0.0,0.0,0.0,0.0,0.0,0.8432,0.9034,0.9416,0.9302,0.9345,0.9806,0.9866,1.0027,1.0441,1.0488,1.0675,1.1142,1.1176,1.1249,1.1382,1.1543,1.161,1.161,1.1897,1.2087,1.2087,1.2218,1.2305,1.2305,1.2305,1.2305,1.2305,1.2305,1.2305,0.0,1.2305,1.2305,1.2268,1.1848,1.1316,0.0,0.0,0.0,0.0,0.0,0.9805,0.9444,0.0,0.0635,0.0313,0.0045,0.0,-0.0078,-0.0324,-0.0157,-0.0081,-0.0323,-0.0148,0.0,0.0,0.0,0.0426,0.147,0.1398,0.176,0.2835,0.2922,0.3144,0.3583,0.3748,0.3947,0.419,0.4389,0.4491,0.4491,0.4491,0.4814,0.5378,0.4787,0.5199,0.6448,0.5787,0.6276,0.7589,0.767,0.8076,0.8672,0.8778,0.8637,0.8342,0.7799,0.7571,0.7504,0.72,0.6794,0.6391,0.6391,0.0,0.0,0.0,0.0,0.0,0.0,0.0,0.0,0.0,0.0,0.0,0.0,0.0,0.0,0.0,0.0,0.0,0.0,0.0,0.0,0.0,0.0,0.0,0.0,0.8724,0.9225,0.9977,0.992,0.988,1.0134,1.0163,1.0421,1.0942,1.1022,1.1162,1.145,1.1442,1.1455,1.1489,0.0,0.0,0.0,0.0,1.2305,1.2305,1.2305,1.2305,1.2305,1.2305,1.2305,1.2305,1.2305,1.2305,1.2305,1.2305,1.2305,1.2224,1.1199,1.0671,1.0484,1.0596,1.0078,0.9183,0.8161,0.8351,0.8846,0.0,0.0635,0.0313,0.0045,0.0,-0.0022,-0.0067,-0.0034,-0.0023,-0.0075,-0.0027,0.0,0.0,0.0,0.0365,0.127,0.1315,0.176,0.2835,0.3095,0.3337,0.3593,0.3927,0.4133,0.4194,0.4389,0.4491,0.4491,0.4491,0.457,0.4677,0.457,0.4924,0.5706,0.5569,0.5977,0.6858,0.7456,0.7777,0.7969,0.8566,0.8637,0.8389,0.8268,0.8049,0.7812,0.7752,0.7659,0.7566,0.7566,0.7034,0.6345,0.6266,0.5765,0.0,0.0,0.0,0.0,0.0,0.0,0.0,0.0,0.0,0.0,0.0,0.0,0.0,0.0,0.0,0.0,0.0,0.0,0.0,0.8696,0.9365,0.9897,1.0094,1.0305,1.0445,1.0499,1.0681,1.0868,1.0982,1.1209,1.1463,1.1799,1.1784,1.1884,1.2118,1.2184,0.0,1.2218,1.2271,1.2305,1.2305,1.2305,1.2305,1.2305,0.0,0.0,1.2305,1.2305,1.2305,1.2305,1.2305,1.2305,1.2224,1.1199,0.9847,0.8461,0.9253,0.9485,0.9183,0.8161,0.7936,0.7936,0.1014,0.077,0.0558,0.0257,0.009,0.0,0.0,0.0,0.0,0.0,0.0,0.0,0.0,0.0,0.0274,0.0947,0.1453,0.2081,0.2849,0.3239,0.3565,0.3792,0.4062,0.4257,0.4355,0.4453,0.4491,0.4491,0.4491,0.4491,0.4491,0.4491,0.468,0.5003,0.5003,0.5382,0.6064,0.6438,0.7036,0.7723,0.8103,0.8397,0.8591,0.8591,0.8497,0.8345,0.8345,0.8277,0.815,0.815,0.7756,0.7186,0.6901,0.6506,0.6012,0.0,0.0,0.0,0.0,0.0,0.0,0.0,0.0,0.0,0.0,0.0,0.0,0.0,0.0,0.815,0.0,0.0,0.9185,0.942,0.9826,1.0167,1.0314,1.0499,1.0646,1.0787,1.0909,1.1109,1.1437,1.1563,1.177,1.2064,1.2084,1.2151,1.2291,1.2305,1.2305,1.2305,1.2305,1.2305,1.2305,1.2305,1.2305,1.2305,1.2305,1.2378,1.2563,1.2563,1.2296,1.1883,1.1883,1.1569,1.0906,0.9922,0.8578,0.718,0.7719,0.8168,0.8428,0.7403,0.7365,0.7668,0.1083,0.0936,0.0781,0.0391,0.0145,0.0,0.0,0.0,0.0,0.0,0.0,0.0,0.0,0.0,0.0211,0.0727,0.1625,0.2371,0.2861,0.3331,0.371,0.3984,0.4166,0.4345,0.4487,0.4491,0.4491,0.4491,0.4491,0.4491,0.4491,0.4491,0.4491,0.4491,0.4491,0.4787,0.5324,0.5597,0.6389,0.7503,0.7803,0.8262,0.8804,0.8804,0.8804,0.8798,0.8744,0.8571,0.8395,0.8335,0.809,0.7732,0.7239,0.7046,0.6807,0.5825,0.5658,0.0,0.0,0.0,0.0,0.0,0.0,0.0,0.0,0.0,0.8107,0.8906,0.8877,0.8923,0.9499,0.948,0.9537,1.001,1.0214,1.0367,1.064,1.0673,1.0787,1.1042,1.1076,1.1263,1.1772,1.1919,1.2087,1.2285,1.2305,1.2305,1.2305,1.2305,1.2305,1.2305,1.2305,1.2331,1.2385,1.2385,1.2418,1.2478,1.2478,1.2605,1.2878,1.2878,1.2362,1.1484,1.1244,1.0474,0.934,0.8533,0.7552,0.6555,0.6555,0.6958,0.7496,0.6627,0.6795,0.7403,0.0,0.1061,0.0715,0.0146,0.0022,0.0,0.0,0.0,0.0,0.0,0.0,0.0,0.0,0.0,0.0281,0.0994,0.1641,0.2279,0.2854,0.3331,0.371,0.3984,0.4287,0.4474,0.4491,0.4491,0.4491,0.4491,0.4491,0.4491,0.4491,0.4491,0.4491,0.4491,0.4491,0.4546,0.468,0.5932,0.6561,0.6831,0.8156,0.8725,0.8804,0.8804,0.8804,0.8778,0.8543,0.8429,0.8362,0.8045,0.7776,0.7531,0.7457,0.7235,0.6926,0.6553,0.6298,0.6129,0.6062,0.6265,0.6573,0.6827,0.721,0.7795,0.0,0.0,0.8998,0.9508,0.9572,0.9591,0.968,0.9849,1.001,1.0077,1.0555,1.0902,1.0942,1.0949,1.1049,1.1309,1.1342,1.1369,1.1435,1.1951,1.2265,1.2298,1.2305,1.2305,1.2305,1.2305,1.2305,1.2305,1.2305,1.2425,1.273,1.2737,1.2871,1.3106,1.3106,1.3126,1.316,1.316,1.256,1.1444,1.0353,0.9299,0.8369,0.8246,0.7585,0.6675,0.6675,0.6747,0.6781,0.6434,0.6377,0.6451,0.0,0.1208,0.1005,0.0592,0.0235,0.0056,0.0213,0.0234,0.0234,0.0234,0.0231,0.0177,0.0012,0.0,0.026,0.0926,0.1461,0.2054,0.2744,0.33,0.371,0.3984,0.42,0.4375,0.4487,0.4491,0.4491,0.4491,0.4491,0.4491,0.4491,0.4491,0.4491,0.4515,0.4893,0.5085,0.5136,0.6177,0.6858,0.7289,0.791,0.8427,0.8791,0.8617,0.8557,0.8537,0.8442,0.8263,0.0,0.7945,0.7819,0.7702,0.7544,0.7261,0.6946,0.6673,0.662,0.0,0.733,0.7558,0.7718,0.0,0.8288,0.8655,0.9098,0.9316,0.9453,0.9663,0.982,0.9933,0.9933,1.0174,1.0428,0.0,1.0835,1.1049,1.1223,1.1102,1.1035,1.1156,1.1176,1.1309,1.165,1.1904,1.2124,1.2285,1.2305,1.2378,1.2589,1.2596,1.2645,1.2826,1.2826,1.2893,1.3013,1.3019,1.308,1.3213,1.3213,1.326,1.342,1.342,1.255,1.0878,0.8985,0.7928,0.755,0.755,0.7286,0.6834,0.6834,0.678,0.6685,0.6563,0.6515,0.6505,0.0,0.1296,0.1219,0.0948,0.0537,0.0314,0.0512,0.0535,0.0501,0.0412,0.0401,0.0301,0.0034,0.0067,0.0324,0.0859,0.1362,0.1935,0.2608,0.3201,0.3629,0.3887,0.4099,0.4271,0.4402,0.447,0.4491,0.4491,0.4491,0.4491,0.4491,0.4491,0.4491,0.4515,0.5003,0.5324,0.5542,0.6285,0.702,0.7723,0.791,0.8277,0.8664,0.8482,0.8167,0.7859,0.7979,0.7862,0.7632,0.7473,0.7442,0.7415,0.729,0.7074,0.6894,0.6868,0.7101,0.7522,0.8096,0.843,0.0,0.8778,0.9058,0.9357,0.9437,0.9646,0.9826,0.9936,1.0094,1.0241,1.0241,1.0445,1.0687,1.0949,1.1062,1.1216,1.151,1.1296,1.1109,1.1109,1.0969,1.1136,1.1725,1.1859,1.2027,1.2278,1.2378,1.2556,1.277,1.2864,1.3018,1.32,1.3213,1.3253,1.3327,1.3327,1.3373,1.3454,1.3454,1.3561,1.3726,1.3383,1.2289,1.0481,0.8488,0.7401,0.7095,0.7095,0.7038,0.6943,0.6943,0.6876,0.682,0.682,0.677,0.6685,0.0,0.0,0.1219,0.0948,0.0881,0.087,0.0881,0.0881,0.077,0.0446,0.0401,0.0301,0.0034,0.0234,0.0523,0.087,0.1445,0.1997,0.2479,0.3003,0.3404,0.361,0.3991,0.4197,0.4204,0.4392,0.4491,0.4491,0.4491,0.4491,0.4491,0.4491,0.4491,0.4491,0.4515,0.4893,0.5542,0.6285,0.702,0.775,0.848,0.8611,0.8409,0.8402,0.7594,0.6508,0.6891,0.704,0.6946,0.6419,0.625,0.6297,0.6553,0.6613,0.0,0.7296,0.7886,0.8301,0.7992,0.0,0.9124,0.8878,0.9239,0.9746,0.9997,1.007,1.018,1.0506,1.0573,1.0579,1.0579,1.0586,1.0687,1.0949,1.1229,1.1516,1.1852,1.1597,1.1375,1.1375,1.0915,1.0834,0.0,1.1697,1.2027,1.2278,1.2603,1.277,1.2784,1.3033,1.32,1.3213,1.3213,1.3307,1.3586,1.3586,1.3733,1.4062,1.4062,1.4068,1.4033,1.2881,1.1718,1.0524,0.9362,0.8189,0.7095,0.7095,0.7095,0.7088,0.7088,0.7088,0.7082,0.7082,0.6903,0.6702,0.0,0.0,0.0,0.1513,0.1502,0.1502,0.1502,0.1305,0.1127,0.1016,0.0646,0.0,0.0,0.0,0.0,0.0,0.1474,0.1897,0.2465,0.2832,0.3195,0.3587,0.3816,0.3967,0.4068,0.4217,0.4294,0.4294,0.4443,0.4491,0.4491,0.4491,0.4491,0.4515,0.4976,0.5296,0.5565,0.6794,0.7477,0.7738,0.8307,0.8489,0.8325,0.7616,0.7111,0.6721,0.0,0.6003,0.6021,0.6163,0.6196,0.6243,0.6519,0.6472,0.6492,0.7278,0.7779,0.8159,0.8645,0.0,0.9284,0.9577,0.9826,1.0047,1.0372,1.0445,1.0412,1.0287,1.0267,1.0207,1.0043,1.0134,1.0361,1.0687,1.1109,1.153,1.1866,1.1784,1.1724,1.1724,1.1376,0.0,0.0,0.0,0.0,1.2265,1.2616,1.2878,1.3046,1.334,1.3587,1.3788,1.3794,1.3841,1.3935,1.3941,1.3988,1.4088,1.4088,1.4088,1.4046,1.2851,1.1681,1.0524,0.9405,0.8233,0.7095,0.7095,0.7095,0.7095,0.7095,0.7095,0.7095,0.7095,0.7034,0.6937,0.0,0.0,0.0,0.0,0.0,0.0,0.0,0.0,0.0,0.0,0.0,0.0,0.0,0.0,0.0,0.0,0.0,0.1905,0.2297,0.2645,0.2957,0.3266,0.3522,0.3703,0.3778,0.3906,0.4008,0.4058,0.4178,0.4276,0.4331,0.4331,0.4331,0.4357,0.5009,0.5321,0.5448,0.681,0.7416,0.7526,0.7918,0.8007,0.7809,0.7036,0.6566,0.0,0.576,0.5394,0.5251,0.5716,0.5947,0.6084,0.6486,0.6774,0.7103,0.7651,0.8083,0.8492,0.9058,0.9364,0.9617,0.999,1.02,1.0358,1.0546,1.0512,1.0347,1.0123,1.0033,0.9907,0.9719,0.9833,1.0094,1.0526,1.0962,1.141,1.1852,1.1906,1.1906,1.1906,1.1603,1.1543,0.0,0.0,0.0,1.2265,1.2717,1.3038,1.32,1.3587,1.3895,1.4082,1.4088,1.4088,1.4088,1.4088,1.4088,1.4088,1.4088,1.3864,1.3428,1.2632,1.1466,0.9966,0.9235,0.8233,0.7095,0.7095,0.7095,0.7095,0.7095,0.7095,0.7095,0.7095,0.7095,0.7085,0.0,0.0,0.0,0.0,0.0,0.0,0.0,0.0,0.0,0.0,0.0,0.0,0.0,0.0,0.0,0.0,0.0,0.0,0.1999,0.2415,0.2679,0.2686,0.3131,0.3368,0.3368,0.3508,0.3658,0.3768,0.3778,0.3856,0.3971,0.3971,0.3971,0.3999,0.4587,0.4902,0.5089,0.6213,0.6823,0.7032,0.7309,0.7255,0.6953,0.6653,0.5957,0.5178,0.5536,0.5215,0.4714,0.5183,0.5521,0.5845,0.0,0.7422,0.8332,0.839,0.8784,0.9204,0.9244,0.9664,1.009,1.0134,1.0354,1.0586,1.0573,1.0321,1.01,1.003,0.9833,0.9655,0.0,0.0,0.9856,1.0432,1.0807,1.1196,1.1799,1.1906,1.1933,0.0,0.0,0.0,0.0,0.0,0.0,1.2325,0.0,1.322,1.3233,1.3774,1.4088,1.4088,1.4088,1.4088,1.4088,1.4088,1.4088,1.4088,1.4088,1.347,1.2285,1.2285,1.1042,0.889,0.889,0.8233,0.7095,0.7095,0.7095,0.7095,0.7095,0.7095,0.7095,0.7095,0.7095,0.7095,0.0,0.0,0.0,0.0,0.0,0.0,0.0,0.0,0.0,0.0,0.0,0.0,0.0,0.0,0.0,0.0,0.0,0.0,0.1992,0.2211,0.2398,0.2537,0.2856,0.3022,0.3022,0.3297,0.3447,0.342,0.3578,0.3675,0.3693,0.3693,0.3693,0.3716,0.3872,0.3941,0.4028,0.4875,0.543,0.5787,0.6169,0.6455,0.6627,0.6023,0.5688,0.5514,0.5323,0.5206,0.5216,0.0,0.0,0.0,0.0,0.7246,0.7407,0.0,0.0,0.9031,0.9684,0.997,1.0167,1.0419,1.0539,1.0533,1.0281,1.0174,0.9933,0.9279,0.9078,0.8898,0.0,0.0,0.0,0.9484,1.0374,0.0,1.1483,1.1917,0.0,1.2536,0.0,1.2569,1.2839,1.2872,0.0,0.0,1.3126,1.3307,1.348,1.3888,1.4088,1.4088,1.4088,1.4088,1.4088,1.4088,1.4088,1.4088,1.4088,1.347,1.2285,1.2285,1.1042,0.889,0.889,0.8233,0.7095,0.7095,0.7095,0.7095,0.7095,0.7095,0.7095,0.7095,0.7095,0.7095,0.0,0.0,0.0,0.0,0.0,0.0,0.0,0.0,0.0,0.0,0.0,0.0,0.0,0.0,0.0,0.0,0.0,0.0,0.0,0.2043,0.2161,0.2283,0.2489,0.2599,0.2599,0.3032,0.3213,0.3118,0.3506,0.3711,0.3765,0.356,0.3539,0.3695,0.3753,0.3625,0.3462,0.4569,0.5035,0.0,0.0,0.5976,0.6155,0.5615,0.5449,0.5495,0.5269,0.556,0.0,0.0,0.0,0.6754,0.7747,0.7772,0.766,0.8855,0.0,0.9492,0.998,1.0214,1.0354,1.0553,1.0492,1.0287,0.9993,0.9726,0.9365,0.8744,0.851,0.0,0.7965,0.0,0.0,0.0,0.0,0.0,1.1335,1.1931,1.2412,0.0,1.2784,0.0,1.318,1.3213,1.3267,0.0,1.336,1.3427,1.3593,1.3928,1.4088,1.4088,1.4088,1.4088,1.4088,1.4088,1.4088,1.4088,1.4088,1.347,1.2279,1.1766,1.0567,0.889,0.0,0.7709,0.7095,0.7095,0.7095,0.7095,0.7095,0.7095,0.7095,0.7095,0.7095,0.7095,0.0,0.0,0.0,0.0,0.0,0.0,0.0,0.0,0.0,0.0,0.0,0.0,0.0,0.0,0.0,0.0,0.0,0.0,0.0,0.0,0.1968,0.1968,0.21,0.2194,0.2222,0.2771,0.3003,0.2925,0.3483,0.382,0.392,0.3573,0.3549,0.384,0.3949,0.37,0.3305,0.4703,0.5035,0.4658,0.5295,0.559,0.5625,0.0,0.5293,0.5293,0.5293,0.5979,0.0,0.0,0.7207,0.7137,0.8404,0.8511,0.8389,0.942,0.9886,1.0127,1.0167,1.0399,1.0593,1.0593,1.0341,1.0027,0.9699,0.9172,0.8644,0.8295,0.0,0.7779,0.7739,0.8063,0.8504,0.9058,0.0,1.0747,1.1302,1.1897,1.2385,1.2797,1.2844,1.2985,1.3293,1.3327,1.3434,1.3646,1.366,1.366,1.366,1.3948,1.4088,1.4088,1.4088,1.4088,1.4088,1.4088,1.4088,1.4088,1.4088,1.347,1.2285,1.1295,1.0139,0.8846,0.0,0.0,0.7095,0.7095,0.7095,0.7095,0.7095,0.7095,0.7095,0.7095,0.7095,0.7095,0.0,0.0,0.0,0.0,0.0,0.0,0.0,0.0,0.0,0.0,0.2267,0.2106,0.0,0.0,0.0,0.0,0.0,0.0,0.0,0.0,0.0,0.1833,0.1967,0.2137,0.2361,0.2633,0.2875,0.3064,0.0,0.3564,0.3587,0.3792,0.392,0.3959,0.3993,0.3937,0.387,0.4138,0.4388,0.4609,0.4732,0.5029,0.5367,0.5313,0.0,0.0,0.5293,0.5759,0.6405,0.6921,0.7284,0.7679,0.8527,0.8511,0.8389,0.942,0.9886,1.0174,1.0445,1.0553,1.0593,1.0593,1.0341,0.995,0.9411,0.8864,0.0,0.0,0.7193,0.7086,0.6867,0.7468,0.8172,0.8765,0.0,0.0,0.0,0.0,1.2275,0.0,0.0,0.0,0.0,0.0,0.0,0.0,0.0,1.4008,1.4008,1.4055,1.4088,1.4088,1.4088,1.4088,1.4088,1.4088,1.4088,1.4088,1.4088,1.347,1.2279,1.2114,1.0869,0.889,0.8671,0.0,0.7095,0.7095,0.7095,0.7095,0.7095,0.7095,0.7095,0.7095,0.7095,0.7095,0.0,0.0,0.0,0.0,0.0,0.0,0.0,0.2107,0.2391,0.2758,0.3001,0.3012,0.2709,0.2542,0.0,0.0,0.0,0.0,0.0,0.0,0.0,0.0,0.224,0.2424,0.2551,0.0,0.0,0.0,0.0,0.0,0.0,0.0,0.0,0.0,0.0,0.0,0.0,0.4215,0.4425,0.4612,0.0,0.0,0.0,0.0,0.0,0.0,0.0,0.0,0.6445,0.6707,0.7354,0.8183,0.8797,0.8625,0.8413,0.9568,1.0007,1.018,1.0512,1.0593,1.0593,1.0593,1.0251,0.9733,0.9118,0.0,0.0,0.0,0.6673,0.6593,0.6606,0.7061,0.0,0.8457,0.0,0.0,0.0,0.0,0.0,0.0,0.0,0.0,0.0,0.0,0.0,0.0,0.0,1.4088,1.4088,1.4088,1.4088,1.4088,1.4088,1.4088,1.4088,1.4088,1.4088,1.4088,1.4088,1.3779,1.3209,1.2589,1.1681,1.0654,1.0053,0.0,0.8013,0.8013,0.7665,0.7095,0.7095,0.7095,0.7095,0.7095,0.7095,0.7095,0.0,0.0,0.0,0.0,0.0,0.0,0.0,0.2511,0.289,0.3187,0.3678,0.3848,0.3422,0.3082,0.2737,0.0,0.0,0.0,0.0,0.0,0.0,0.0,0.0,0.0,0.0,0.0,0.0,0.0,0.0,0.0,0.0,0.0,0.0,0.0,0.0,0.0,0.0,0.0,0.0,0.0,0.0,0.0,0.0,0.0,0.0,0.0,0.0,0.0,0.0,0.0,0.7236,0.8127,0.8725,0.8696,0.8617,0.961,0.999,1.0167,1.0432,1.0546,1.0593,1.0593,1.0151,0.9532,0.8945,0.8063,0.0,0.0,0.6285,0.6189,0.6459,0.0,0.7293,0.0,0.8811,0.9531,0.0,0.0,0.0,0.0,0.0,0.0,0.0,0.0,0.0,0.0,0.0,0.0,1.4088,1.4088,1.4088,1.4088,1.4088,1.4088,1.4088,1.4088,1.4088,1.4088,1.4088,1.4088,1.4088,1.3118,1.2547,1.2237,1.1338,0.0,0.0,0.889,0.8193,0.7095,0.7095,0.7095,0.7095,0.7095,0.7095,0.7095,0.0,0.0,0.0,0.0,0.0,0.0,0.0,0.2873,0.335,0.4155,0.4102,0.4065,0.4257,0.3768,0.3319,0.0,0.0,0.0,0.0,0.0,0.0,0.0,0.0,0.0,0.0,0.0,0.0,0.0,0.0,0.0,0.0,0.0,0.0,0.0,0.0,0.0,0.0,0.0,0.0,0.0,0.0,0.0,0.0,0.0,0.0,0.0,0.0,0.0,0.0,0.0,0.0,0.6907,0.7752,0.852,0.9134,0.925,0.0,0.0,1.0147,1.0385,1.0593,1.0593,1.0151,0.9532,0.8945,0.0,0.0,0.635,0.5976,0.5845,0.6176,0.6647,0.7293,0.8255,0.8644,0.9259,0.0,0.0,0.0,0.0,0.0,0.0,0.0,0.0,0.0,0.0,0.0,0.0,1.4088,1.4088,1.4088,1.4088,1.4088,1.4088,1.4088,1.4088,1.4088,1.4088,1.4088,1.4088,1.4088,1.3997,1.3336,1.2279,1.2194,0.0,0.0,0.889,0.8193,0.7095,0.7095,0.7095,0.7095,0.7095,0.7095,0.7095,0.0,0.0,0.0,0.0,0.0,0.0,0.2493,0.2982,0.3565,0.4196,0.4402,0.4516,0.4621,0.4283,0.3786,0.3157,0.0,0.0,0.0,0.0,0.0,0.0,0.0,0.0,0.0,0.0,0.0,0.0,0.0,0.0,0.0,0.0,0.0,0.0,0.0,0.0,0.0,0.0,0.0,0.0,0.0,0.0,0.0,0.0,0.0,0.0,0.0,0.0,0.0,0.0,0.0,0.0,0.6827,0.7468,0.0,0.0,0.9399,0.9893,1.0067,1.0334,1.0546,1.0341,0.9987,0.9514,0.8744,0.0,0.6854,0.631,0.5936,0.5805,0.6135,0.6506,0.7054,0.7956,0.8179,0.8691,0.9896,0.0,0.0,0.0,0.0,0.0,0.0,0.0,0.0,0.0,0.0,0.0,1.4088,1.4088,1.4088,1.4088,1.4088,1.4088,1.4088,1.4088,1.4088,1.4088,1.4088,1.4088,1.4088,1.4088,1.3822,1.3379,1.3379,0.0,0.0,1.0956,1.026,0.9139,0.8448,0.8189,0.8105,0.736,0.7095,0.7095,0.0,0.0,0.0,0.0,0.0,0.2435,0.2687,0.3254,0.3799,0.4209,0.4505,0.4681,0.4681,0.4436,0.4034,0.3421,0.3277,0.0,0.0,0.0,0.0,0.0,0.0,0.0,0.0,0.0,0.0,0.0,0.0,0.0,0.0,0.0,0.0,0.0,0.0,0.0,0.0,0.0,0.0,0.0,0.0,0.0,0.0,0.0,0.0,0.0,0.0,0.0,0.0,0.0,0.0,0.0,0.0,0.0,0.7404,0.0,0.8965,0.9492,0.975,1.0074,1.0278,1.004,0.9766,0.9345,0.0,0.7675,0.686,0.6405,0.5979,0.5832,0.625,0.6472,0.6854,0.7662,0.7846,0.8258,0.9285,0.9573,0.0,0.0,0.0,0.0,0.0,0.0,0.0,0.0,0.0,0.0,0.0,1.4088,1.4088,1.4088,1.4088,1.4088,1.4088,1.4088,1.4088,1.4088,1.4088,1.4088,1.4088,1.4088,1.4088,1.4088,0.0,0.0,0.0,1.2285,1.1638,1.0481,0.9366,0.889,0.8759,0.7533,0.7095,0.7095,0.0,0.0,0.0,0.0,0.0,0.0,0.3406,0.3771,0.4087,0.4356,0.4409,0.4409,0.4409,0.4161,0.3998,0.3992,0.3683,0.0,0.0,0.0,0.0,0.0,0.0,0.0,0.0,0.0,0.0,0.0,0.0,0.0,0.0,0.0,0.0,0.0,0.0,0.0,0.0,0.0,0.0,0.0,0.0,0.0,0.0,0.0,0.0,0.0,0.0,0.0,0.0,0.0,0.0,0.0,0.0,0.6398,0.6774,0.7652,0.8332,0.8878,0.9144,0.9466,0.9722,0.9715,0.9466,0.9064,0.8536,0.7675,0.692,0.6647,0.6119,0.5892,0.6473,0.6606,0.6801,0.7397,0.7729,0.8112,0.8731,0.9319,0.0,0.0,0.0,0.0,0.0,0.0,0.0,0.0,0.0,0.0,0.0,1.4088,1.4088,1.4088,1.4088,1.4088,1.4088,1.4088,1.4088,1.4088,1.4088,1.4088,1.4088,1.4088,1.4088,0.0,0.0,0.0,0.0,1.2285,1.1638,1.0481,0.9366,0.889,0.8759,0.7533,0.7095,0.7095,0.0,0.0,0.0,0.0,0.0,0.0,0.0,0.3357,0.3774,0.408,0.4133,0.4194,0.4382,0.4154,0.3992,0.3992,0.3694,0.0,0.0,0.0,0.0,0.0,0.0,0.0,0.0,0.0,0.4489,0.4668,0.5268,0.0,0.0,0.0,0.0,0.0,0.0,0.0,0.0,0.0,0.0,0.0,0.0,0.0,0.0,0.0,0.0,0.0,0.0,0.0,0.0,0.0,0.0,0.0,0.0,0.0,0.0,0.6593,0.7591,0.0,0.8624,0.9005,0.9257,0.8911,0.8744,0.849,0.7913,0.7375,0.692,0.6653,0.644,0.6373,0.6553,0.6754,0.7148,0.798,0.8194,0.8437,0.0,0.0,0.0,0.0,0.0,0.0,0.0,0.0,0.0,0.0,0.0,0.0,0.0,1.4088,1.4088,1.4088,1.4088,1.4088,1.4088,1.4088,1.4088,1.4088,1.4088,1.4088,1.4088,1.4088,0.0,0.0,0.0,0.0,0.0,1.3512,1.3343,1.2784,1.0832,1.0053,0.9836,0.7837,0.7095,0.7095,0.0,0.0,0.0,0.0,0.0,0.0,0.0,0.3287,0.3572,0.3781,0.3819,0.3926,0.4221,0.3993,0.3859,0.3985,0.3694,0.0,0.0,0.0,0.0,0.0,0.0,0.0,0.0,0.4304,0.4747,0.4988,0.5618,0.6153,0.6572,0.6572,0.0,0.0,0.0,0.0,0.0,0.0,0.0,0.0,0.0,0.0,0.0,0.0,0.0,0.0,0.0,0.0,0.0,0.0,0.0,0.0,0.0,0.0,0.0,0.0,0.6747,0.7631,0.7966,0.8383,0.8631,0.8297,0.821,0.8049,0.7457,0.7194,0.699,0.6731,0.6681,0.6704,0.6815,0.6922,0.7186,0.7769,0.8056,0.0,0.0,0.0,0.0,0.0,0.0,0.0,0.0,0.0,0.0,0.0,0.0,0.0,0.0,1.4088,1.4088,1.4088,1.4088,1.4088,1.4088,1.4088,1.4088,1.4088,1.4088,1.4088,1.4088,1.4088,0.0,0.0,0.0,0.0,0.0,1.4088,1.4088,1.3913,1.1992,1.1252,1.095,0.8619,0.7797,0.7709,0.0,0.0,0.0,0.0,0.0,0.0,0.0,0.3485,0.3495,0.3495,0.3495,0.3623,0.3931,0.3683,0.363,0.3938,0.0,0.0,0.0,0.0,0.0,0.0,0.0,0.0,0.0,0.4656,0.5122,0.5388,0.606,0.6639,0.7127,0.7127,0.7378,0.7817,0.0,0.0,0.0,0.0,0.0,0.0,0.0,0.0,0.0,0.0,0.0,0.0,0.0,0.0,0.0,0.0,0.0,0.0,0.0,0.0,0.0,0.0,0.0,0.0,0.0,0.7605,0.7806,0.7786,0.7779,0.7632,0.7109,0.7062,0.0,0.6837,0.6793,0.6867,0.7131,0.7093,0.7053,0.712,0.7619,0.0,0.0,0.0,0.0,0.0,0.0,0.0,0.0,0.0,0.0,0.0,0.0,0.0,0.0,1.4088,1.4088,1.4088,1.4088,1.4088,1.4088,1.4088,1.4088,1.4088,1.4088,1.4088,1.4088,1.4088,0.0,0.0,0.0,0.0,0.0,1.4088,1.4088,1.3997,1.2766,1.2285,1.2023,0.984,0.8978,0.8759,0.0,0.0,0.0,0.0,0.0,0.0,0.0,0.0,0.0,0.0,0.3495,0.3532,0.361,0.3546,0.3532,0.0,0.0,0.0,0.0,0.0,0.0,0.0,0.0,0.0,0.0,0.4636,0.5403,0.6213,0.6947,0.7661,0.8389,0.8389,0.8334,0.8242,0.7824,0.0,0.0,0.0,0.0,0.0,0.0,0.0,0.0,0.0,0.0,0.0,0.0,0.6564,0.0,0.0,0.0,0.0,0.0,0.0,0.0,0.0,0.6053,0.6315,0.6521,0.0,0.6854,0.6653,0.6593,0.665,0.0,0.6631,0.6505,0.6757,0.6715,0.6724,0.7004,0.7225,0.7611,0.8277,0.0,0.0,0.0,0.0,0.0,0.0,0.0,0.0,0.0,0.0,0.0,0.0,0.0,0.0,0.0,1.4088,1.4088,1.4088,1.4088,1.4088,1.4088,1.4088,1.4088,1.4088,1.4088,1.4088,1.4088,1.4088,0.0,0.0,0.0,0.0,1.4088,1.4088,1.4088,1.3997,1.2766,1.2285,1.2109,1.074,0.9666,0.8846,0.0,0.0,0.0,0.0,0.0,0.0,0.0,0.0,0.0,0.0,0.0,0.0,0.0,0.0,0.0,0.0,0.0,0.0,0.0,0.0,0.0,0.0,0.0,0.0,0.4123,0.5006,0.5858,0.668,0.7484,0.8305,0.9115,0.9115,0.8958,0.8643,0.7841,0.0,0.0,0.0,0.0,0.0,0.0,0.0,0.0,0.0,0.0,0.0,0.6561,0.6646,0.0,0.6325,0.6167,0.6145,0.0,0.0,0.0,0.0,0.5851,0.6079,0.5891,0.6297,0.6754,0.6613,0.668,0.6821,0.6868,0.6767,0.6682,0.679,0.6848,0.6953,0.7217,0.7398,0.0,0.0,0.0,0.0,0.0,0.0,0.0,0.0,0.0,0.0,0.0,0.0,0.0,0.0,0.0,0.0,0.0,1.4088,1.4088,1.4088,1.4088,1.4088,1.4088,1.4088,1.4088,1.4088,1.4088,1.4088,1.4088,1.4088,1.4088,0.0,0.0,0.0,1.4088,1.4088,1.4088,1.4039,1.3379,1.3118,1.2984,1.1815,1.0999,1.0313,0.0,0.0,0.0,0.0,0.0,0.0,0.0,0.0,0.0,0.0,0.0,0.0,0.0,0.0,0.0,0.0,0.0,0.0,0.0,0.0,0.0,0.0,0.0,0.4168,0.4626,0.553,0.6375,0.7123,0.7981,0.8839,0.9617,0.9681,0.946,0.8958,0.7804,0.7262,0.0,0.0,0.0,0.0,0.0,0.0,0.0,0.0,0.0,0.0,0.0,0.0,0.0,0.6518,0.6544,0.6525,0.6183,0.0,0.0,0.0,0.0,0.0,0.5609,0.6255,0.6966,0.6833,0.7081,0.7311,0.707,0.7076,0.7076,0.6951,0.71,0.7327,0.0,0.7664,0.0,0.0,0.0,0.0,0.0,0.0,0.0,0.0,0.0,0.0,0.0,0.0,0.0,0.0,0.0,0.0,0.0,1.4088,1.4088,1.4088,1.4088,1.4088,1.4088,1.4088,1.4088,1.4088,1.4088,1.4088,1.4088,1.4088,1.4088,0.0,0.0,0.0,1.4088,1.4088,1.4088,1.4088,1.4088,1.4088,1.3997,1.2942,1.2456,1.198,0.0,0.0,0.0,0.0,0.0,0.0,0.0,0.0,0.0,0.0,0.0,0.0,0.0,0.0,0.0,0.0,0.0,0.0,0.0,0.0,0.0,0.0,0.4222,0.4715,0.5726,0.5917,0.6706,0.8169,0.8994,0.9655,1.0166,1.0524,1.0089,0.8984,0.8438,0.7975,0.7598,0.0,0.0,0.0,0.0,0.0,0.0,0.0,0.0,0.0,0.0,0.0,0.0,0.6611,0.6723,0.699,0.6931,0.0,0.0,0.0,0.0,0.0,0.6545,0.6772,0.682,0.6081,0.6319,0.6807,0.711,0.6922,0.6845,0.7357,0.0,0.0,0.0,0.8261,0.8711,0.0,0.0,0.0,0.0,0.0,0.0,0.0,0.0,0.0,0.0,0.0,0.0,0.0,0.0,0.0,0.0,1.4088,1.4088,1.4088,1.4088,1.4088,1.4088,1.4088,1.4088,1.4088,1.4088,1.4088,1.4088,1.4088,1.4088,0.0,0.0,1.4088,1.4088,1.4088,1.4088,1.4088,1.4088,1.4088,1.4088,1.3913,1.316,1.2114,0.0,0.0,0.0,0.0,0.0,0.0,0.0,0.0,0.0,0.0,0.0,0.0,0.0,0.0,0.0,0.0,0.0,0.0,0.0,0.0,0.0,0.4872,0.5029,0.5388,0.5984,0.6614,0.7622,0.9053,0.9678,1.0205,1.0615,1.0117,0.9561,0.8975,0.832,0.7905,0.7695,0.0,0.0,0.0,0.0,0.0,0.0,0.0,0.0,0.0,0.0,0.0,0.0,0.0,0.6804,0.6809,0.7031,0.0,0.0,0.0,0.0,0.0,0.6032,0.6387,0.6693,0.6286,0.6874,0.7616,0.7812,0.7562,0.7399,0.769,0.0,0.0,0.0,0.0,0.0,0.0,0.0,0.0,0.0,0.0,0.0,0.0,0.0,0.0,0.0,0.0,0.0,0.0,0.0,0.0,0.0,0.0,1.4088,1.4088,1.4088,1.4088,1.4088,1.4088,1.4088,1.4088,1.4088,1.4088,1.4088,1.4088,1.4088,1.4088,0.0,1.4088,1.4088,1.4088,1.4088,1.4088,1.4088,1.4088,1.4088,1.4088,1.3336,1.2242,0.0,0.0,0.0,0.0,0.0,0.0,0.0,0.0,0.0,0.0,0.0,0.0,0.0,0.0,0.0,0.0,0.0,0.0,0.0,0.0,0.472,0.5456,0.578,0.6138,0.6559,0.7305,0.8318,0.9592,1.0068,1.0518,1.0889,0.9805,0.9199,0.8975,0.8197,0.7807,0.7695,0.7695,0.7695,0.0,0.0,0.0,0.0,0.0,0.0,0.0,0.0,0.0,0.0,0.0,0.0,0.0,0.0,0.0,0.0,0.6152,0.6037,0.5966,0.5607,0.6109,0.6759,0.6801,0.7504,0.8241,0.8456,0.825,0.8065,0.8272,0.8312,0.0,0.0,0.0,0.0,0.0,0.0,0.0,0.0,0.0,0.0,0.0,0.0,0.0,0.0,0.0,0.0,0.0,0.0,0.0,0.0,0.0,1.4015,1.4082,1.4088,1.4088,1.4088,1.4088,1.4088,1.4088,1.4088,1.4088,1.4088,1.4088,1.4088,1.4088,1.4088,1.4088,1.4088,1.4088,1.4088,1.4088,1.4088,1.4088,1.4088,1.4088,1.3512,1.2723,0.0,0.0,0.0,0.0,0.0,0.0,0.0,0.0,0.0,0.0,0.0,0.0,0.0,0.0,0.0,0.0,0.0,0.0,0.0,0.0,0.4998,0.574,0.6152,0.6953,0.8203,0.7885,0.8318,0.9592,1.0068,1.0518,1.0898,1.042,0.9766,0.8984,0.8551,0.8105,0.7695,0.7695,0.7695,0.0,0.0,0.0,0.0,0.0,0.0,0.0,0.0,0.0,0.0,0.0,0.0,0.0,0.0,0.0,0.6975,0.657,0.6457,0.6418,0.6187,0.6628,0.72,0.7392,0.7491,0.7772,0.8584,0.855,0.8603,0.9414,0.9559,0.0,0.0,0.0,0.0,0.0,0.0,0.0,0.0,0.0,0.0,0.0,0.0,0.0,0.0,0.0,0.0,0.0,0.0,0.0,0.0,0.0,0.0,1.4082,1.4088,1.4088,1.4088,1.4088,1.4088,1.4088,1.4088,1.4088,1.4088,1.4088,1.4088,1.4088,1.4088,1.4088,1.4088,1.4088,1.4088,1.4088,1.4088,1.4088,1.4088,1.4088,1.4039,1.3955,0.0,0.0,0.0,0.0,0.0,0.0,0.0,0.0,0.0,0.0,0.0,0.0,0.0,0.0,0.0,0.0,0.0,0.0,0.0,0.0,0.5029,0.5773,0.6182,0.6777,0.7583,0.8203,0.9133,1.041,1.0332,1.0381,1.0518,0.9559,0.8943,0.861,0.8164,0.7866,0.7695,0.7695,0.7549,0.733,0.0,0.0,0.0,0.0,0.0,0.0,0.0,0.0,0.0,0.0,0.6309,0.6748,0.7184,0.722,0.7065,0.6916,0.6691,0.6423,0.6107,0.6597,0.7203,0.7194,0.7475,0.7943,0.8644,0.9005,0.936,0.9846,0.9953,0.0,0.0,0.0,0.0,0.0,0.0,0.0,0.0,0.0,0.0,0.0,0.0,0.0,0.0,0.0,0.0,0.0,0.0,0.0,0.0,0.0,0.0,1.354,1.354,1.3627,1.3808,1.3808,1.3901,1.4088,1.4088,1.4088,1.4088,1.4088,1.4088,1.4088,1.4088,1.4088,1.4088,1.4088,1.4088,1.4088,1.4088,1.4088,1.4088,1.4088,1.4088,1.4088,0.0,0.0,0.0,0.0,0.0,0.0,0.0,0.0,0.0,0.0,0.0,0.0,0.0,0.0,0.0,0.0,0.0,0.0,0.0,0.4775,0.512,0.5773,0.6066,0.6553,0.7271,0.8139,0.9143,1.0312,1.0156,1.001,0.9882,0.8864,0.8463,0.8561,0.7963,0.7773,0.7905,0.7754,0.7544,0.7291,0.7291,0.0,0.0,0.0,0.0,0.0,0.0,0.0,0.0,0.0,0.5988,0.6309,0.6914,0.7013,0.6941,0.7058,0.6947,0.669,0.6294,0.6823,0.7435,0.7221,0.7666,0.8312,0.8805,0.9325,0.982,1.0294,1.0394,1.0421,1.0483,0.0,0.0,0.0,0.0,0.0,0.0,0.0,0.0,0.0,0.0,0.0,0.0,0.0,0.0,0.0,0.0,0.0,0.0,0.0,0.0,0.0,1.3213,1.3307,1.3467,1.3467,1.3613,1.3948,1.3948,1.3995,1.4088,1.4088,1.4088,1.4088,1.4088,1.4088,1.4088,1.4088,1.4088,1.4088,1.4088,1.4088,1.4088,1.4088,1.4088,1.4088,0.0,0.0,0.0,0.0,0.0,0.0,0.0,0.0,0.0,0.0,0.0,0.0,0.0,0.0,0.0,0.0,0.0,0.0,0.4696,0.4952,0.5312,0.5774,0.5803,0.6387,0.7656,0.7686,0.8129,0.9004,0.9406,0.9396,0.8984,0.859,0.862,0.8955,0.81,0.7954,0.8356,0.7895,0.7695,0.7695,0.7695,0.717,0.0,0.0,0.0,0.0,0.0,0.0,0.0,0.0,0.5803,0.5949,0.6816,0.6828,0.6584,0.6986,0.7253,0.7334,0.6916,0.7434,0.801,0.7609,0.815,0.8884,0.9158,0.9479,0.9947,1.0822,1.1002,1.1089,1.1335,0.0,0.0,0.0,0.0,0.0,0.0,0.0,0.0,0.0,0.0,0.0,0.0,0.0,0.0,0.0,0.0,0.0,0.0,0.0,0.0,0.0,1.32,1.32,1.3206,1.3206,1.3313,1.36,1.36,1.3753,1.4088,1.4088,1.4088,1.4088,1.4088,1.4088,1.4088,1.4088,1.4088,1.4088,1.4088,1.4088,1.4088,1.4088,1.4088,1.4088,0.0,0.0,0.0,0.0,0.0,0.0,0.0,0.0,0.0,0.0,0.0,0.0,0.0,0.0,0.0,0.0,0.0,0.0,0.4971,0.5059,0.5156,0.5302,0.5626,0.5978,0.636,0.6963,0.7852,0.9004,0.9114,0.8975,0.8581,0.8453,0.8281,0.81,0.8164,0.8086,0.7895,0.7754,0.7544,0.7271,0.7271,0.6758,0.0,0.0,0.0,0.0,0.0,0.0,0.0,0.0,0.0,0.0,0.6436,0.6951,0.7363,0.7486,0.8004,0.8286,0.7171,0.7757,0.8512,0.7921,0.0,0.9211,0.9717,1.0247,1.0795,0.0,1.1645,1.157,1.1415,0.0,0.0,0.0,0.0,0.0,0.0,0.0,0.0,0.0,0.0,0.0,0.0,0.0,0.0,0.0,0.0,0.0,0.0,0.0,0.0,0.0,1.2572,1.2672,1.2918,1.2924,1.3033,1.33,1.33,1.3601,1.4088,1.4088,1.4088,1.4088,1.4088,1.4088,1.4088,1.4088,1.4088,1.4088,1.4088,1.4088,1.4088,1.4088,1.4088,1.4088,0.0,0.0,0.0,0.0,0.0,0.0,0.0,0.0,0.0,0.0,0.0,0.0,0.0,0.0,0.0,0.0,0.0,0.0,0.0,0.0,0.5098,0.5098,0.5371,0.5684,0.6027,0.6895,0.7632,0.8252,0.8252,0.8115,0.7886,0.8047,0.8164,0.8227,0.8506,0.8389,0.7973,0.7973,0.7646,0.7119,0.7271,0.6924,0.6301,0.0,0.0,0.0,0.0,0.0,0.0,0.0,0.0,0.0,0.6025,0.6523,0.7047,0.754,0.8125,0.8473,0.7852,0.8338,0.8919,0.8518,0.8911,0.9604,1.0416,0.0,0.0,0.0,1.1986,1.1886,1.1784,0.0,0.0,0.0,0.0,0.0,0.0,0.0,0.0,0.0,0.0,0.0,0.0,0.0,0.0,0.0,0.0,0.0,0.0,0.0,0.0,0.0,1.2305,1.2385,1.2603,1.2603,1.2764,1.3026,1.3026,1.3273,1.3748,1.3861,1.3975,1.4088,1.4088,1.4088,1.4088,1.4088,1.4088,1.4088,1.4088,1.4088,1.4088,1.4088,1.4088,1.4088,0.0,0.0,0.0,0.0,0.0,0.0,0.0,0.0,0.0,0.0,0.0,0.0,0.0,0.0,0.0,0.0,0.0,0.0,0.0,0.0,0.5098,0.5098,0.5176,0.5584,0.6375,0.7184,0.7408,0.7041,0.7119,0.7139,0.7109,0.7593,0.8197,0.888,0.8975,0.873,0.0,0.8277,0.7798,0.707,0.7437,0.734,0.6934,0.6514,0.0,0.0,0.0,0.0,0.0,0.0,0.0,0.0,0.5655,0.5832,0.6086,0.7291,0.7849,0.8199,0.8749,0.9059,0.923,0.9296,0.9528,0.0,1.1136,1.1389,1.1555,1.2184,0.0,1.2027,0.0,0.0,0.0,0.0,0.0,0.0,0.0,0.0,0.0,0.0,0.0,0.0,0.0,0.0,0.0,0.0,0.0,0.0,0.0,0.0,0.0,1.2305,1.2305,1.2305,1.2305,1.2305,1.2438,0.0,1.2744,1.2904,1.318,1.3427,1.3713,1.4008,1.4035,1.4048,1.4048,1.4075,1.4088,1.4088,1.4088,1.4088,1.4088,1.4088,1.4088,1.4088,0.0,0.0,0.0,0.0,0.0,0.0,0.0,0.0,0.0,0.0,0.0,0.0,0.0,0.0,0.0,0.0,0.0,0.0,0.0,0.0,0.5098,0.5098,0.575,0.6209,0.6396,0.6579,0.6638,0.6553,0.7242,0.7408,0.7129,0.8223,0.8451,0.8012,0.8685,0.8398,0.7373,0.7373,0.7061,0.6562,0.6638,0.6436,0.6066,0.5958,0.5645,0.0,0.0,0.0,0.0,0.0,0.0,0.0,0.5655,0.6017,0.6396,0.7051,0.7969,0.8801,0.8813,0.9109,0.0,0.995,1.0239,1.0593,1.1263,1.1389,1.1555,1.2184,1.2251,0.0,0.0,0.0,0.0,0.0,0.0,0.0,0.0,0.0,0.0,0.0,0.0,0.0,0.0,0.0,0.0,0.0,0.0,0.0,0.0,0.0,0.0,1.2305,1.2305,1.2305,1.2305,1.2305,1.2338,0.0,1.2398,1.2596,1.2898,1.3166,1.334,1.3414,1.3641,1.37,1.372,1.3988,1.4088,1.4088,1.4088,1.4088,1.4088,1.4088,1.4088,1.4088,0.0,0.0,0.0,0.0,0.0,0.0,0.0,0.0,0.0,0.0,0.0,0.0,0.0,0.0,0.0,0.0,0.0,0.0,0.0,0.0,0.5098,0.5098,0.5741,0.6115,0.6115,0.6115,0.6211,0.6394,0.6862,0.7184,0.7408,0.8301,0.8682,0.862,0.9084,0.8577,0.7388,0.7388,0.6895,0.6135,0.6328,0.6279,0.6066,0.5881,0.5645,0.54,0.5185,0.0,0.0,0.0,0.0,0.0,0.0,0.0,0.624,0.6904,0.77,0.8448,0.877,0.9157,0.0,0.9937,0.0,1.0707,1.1122,1.1223,1.1383,1.1971,0.0,0.0,0.0,0.0,0.0,0.0,0.0,0.0,0.0,0.0,0.0,0.0,0.0,0.0,0.0,0.0,0.0,0.0,0.0,0.0,0.0,1.2305,1.2305,1.2305,1.2305,1.2305,1.2305,1.2305,1.2305,1.2305,1.2305,1.2385,1.2589,1.3006,1.3213,1.322,1.3367,1.34,1.342,1.3754,1.3874,1.3888,1.4035,1.4088,1.4088,1.4088,1.4088,1.4088,0.0,0.0,0.0,0.0,0.0,0.0,0.0,0.0,0.0,0.0,0.0,0.0,0.0,0.0,0.0,0.0,0.0,0.0,0.0,0.5098,0.5137,0.5215,0.5596,0.5832,0.59,0.5842,0.6037,0.6511,0.6377,0.6891,0.8036,0.835,0.8857,0.9485,0.9485,0.8802,0.7588,0.7501,0.6774,0.5704,0.6045,0.617,0.6131,0.5812,0.5675,0.5636,0.5234,0.5098,0.5108,0.5195,0.0,0.0,0.0,0.0,0.595,0.666,0.7213,0.7749,0.8495,0.9077,0.9501,0.9659,1.0117,0.0,1.0915,1.0995,1.1142,0.0,0.0,0.0,0.0,0.0,0.0,0.0,0.0,0.0,0.0,0.0,0.0,0.0,0.0,0.0,0.0,0.0,0.0,0.0,0.0,0.0,1.2305,1.2305,1.2305,1.2305,1.2305,1.2305,1.2305,1.2305,1.2305,1.2305,1.2305,1.2305,1.2318,1.2826,1.3053,1.306,1.3113,1.3133,1.3153,1.3407,1.3553,1.3626,1.3915,1.4041,1.4088,1.4088,1.4088,1.4088,0.0,0.0,0.0,0.0,0.0,0.0,0.0,0.0,0.0,0.0,0.0,0.4785,0.502,0.5078,0.0,0.0,0.0,0.0,0.5098,0.0,0.0,0.5685,0.5774,0.5958,0.6318,0.5978,0.6193,0.7012,0.6252,0.707,0.934,0.9045,0.8984,0.9075,0.9075,0.8379,0.7158,0.6735,0.6043,0.5205,0.5253,0.5273,0.5263,0.5215,0.5195,0.5185,0.5117,0.5098,0.5156,0.5566,0.5743,0.0,0.0,0.0,0.0,0.5939,0.6555,0.7283,0.7727,0.0,0.9381,0.0,0.9933,1.0321,0.0,0.0,1.1089,0.0,0.0,0.0,0.0,0.0,0.0,0.0,0.0,0.0,0.0,0.0,0.0,0.0,0.0,0.0,0.0,0.0,0.0,0.0,0.0,0.0,1.2305,1.2305,1.2305,1.2305,1.2305,1.2305,1.2305,1.2305,1.2305,1.2305,1.2305,1.2305,1.2305,1.2385,1.2425,1.2438,1.2737,1.2844,1.2871,1.314,1.3373,1.3606,1.3646,1.382,1.4088,1.4088,1.4088,1.4088,0.0,0.0,0.0,0.0,0.0,0.0,0.0,0.0,0.0,0.0,0.0,0.4971,0.5088,0.5098,0.0,0.0,0.0,0.0,0.531,0.5175,0.0,0.0,0.5491,0.5488,0.5662,0.5497,0.5723,0.6369,0.5989,0.6982,0.926,0.9092,0.9512,1.042,0.9678,0.8899,0.8096,0.6891,0.6055,0.5469,0.5205,0.5555,0.6141,0.539,0.5565,0.6131,0.537,0.5098,0.5176,0.5645,0.5949,0.6095,0.5872,0.0,0.0,0.0,0.6232,0.69,0.7799,0.8574,0.917,0.0,0.975,1.0157,1.0441,0.0,0.0,0.0,0.0,0.0,0.0,0.0,0.0,0.0,0.0,0.0,0.0,0.0,0.0,0.0,0.0,0.0,0.0,0.0,0.0,0.0,0.0,1.2305,1.2305,1.2305,1.2305,1.2305,1.2305,1.2305,1.2305,1.2305,1.2305,1.2305,1.2305,1.2305,1.2305,1.2305,1.2305,1.2311,1.2476,1.2536,1.2556,1.2864,1.3126,1.3373,1.354,1.378,1.4088,1.4088,1.4088,1.4088,0.0,0.0,0.0,0.0,0.0,0.0,0.0,0.0,0.0,0.0,0.0,0.0,0.5098,0.0,0.0,0.0,0.0,0.0,0.5377,0.0,0.0,0.0,0.0,0.5098,0.5098,0.5098,0.5332,0.5803,0.5803,0.6956,0.9143,0.9143,1.0137,1.1858,1.0537,0.9581,0.8916,0.0,0.0,0.625,0.5896,0.6353,0.7164,0.6382,0.6716,0.7432,0.6197,0.5769,0.0,0.0,0.0,0.0,0.0,0.0,0.0,0.0,0.0,0.6357,0.0,0.0,0.8664,0.9054,0.9568,0.998,0.0,0.0,0.0,0.0,0.0,0.0,0.0,0.0,0.0,0.0,0.0,0.0,0.0,0.0,0.0,0.0,0.0,0.0,0.0,0.0,0.0,0.0,0.0,1.2305,1.2305,1.2305,1.2305,1.2305,1.2305,1.2305,1.2305,1.2305,1.2305,1.2305,1.2305,1.2305,1.2305,1.2305,1.2305,1.2305,1.2305,1.2305,1.2318,1.2583,1.2859,1.3233,1.3407,1.3761,1.4088,1.4088,1.4088,1.4088,0.0,0.0,0.0,0.0,0.0,0.0,0.0,0.0,0.0,0.0,0.0,0.0,0.0,0.0,0.0,0.0,0.0,0.0,0.0,0.0,0.0,0.0,0.0,0.0,0.5098,0.5098,0.5332,0.5803,0.5803,0.709,0.9563,0.9563,1.0752,1.2778,1.1436,1.0156,0.8975,0.0,0.0,0.0,0.7569,0.7608,0.7744,0.85,0.8848,0.8789,0.7895,0.0,0.0,0.0,0.0,0.0,0.0,0.0,0.6228,0.0,0.0,0.0,0.0,0.7382,0.0,0.8752,0.9318,0.0,0.0,0.0,0.0,0.0,0.0,0.0,0.0,0.0,0.0,0.0,0.0,0.0,0.0,0.0,0.0,0.0,0.0,0.0,0.0,0.0,0.0,0.0,0.0,1.2305,1.2305,1.2305,1.2305,1.2305,1.2305,1.2305,1.2305,1.2305,1.2305,1.2305,1.2305,1.2305,1.2305,1.2305,1.2305,1.2305,1.2305,1.2305,1.2305,1.2318,1.2679,1.3213,1.3227,1.3581,1.4088,1.4088,1.4088,1.4088,0.0,0.0,0.0,0.0,0.0,0.0,0.0,0.0,0.0,0.0,0.0,0.0,0.0,0.5098,0.5098,0.5098,0.5098,0.0,0.0,0.0,0.0,0.0,0.0,0.0,0.0,0.5098,0.5185,0.5351,0.5351,0.6382,0.8376,0.8376,0.925,1.0761,1.0596,1.04,1.0127,0.8587,0.0,0.0,0.0,0.8633,0.9346,0.9102,0.9512,1.0078,0.0,0.0,0.0,0.0,0.0,0.0,0.6992,0.665,0.6228,0.5361,0.5497,0.602,0.0,0.0,0.0,0.7945,0.8592,0.923,0.0,0.0,0.0,0.0,0.0,0.0,0.0,0.0,0.0,0.0,0.0,0.0,0.0,0.0,0.0,0.0,0.0,0.0,0.0,0.0,0.0,0.0,0.0,0.0,1.2305,1.2305,1.2305,1.2305,1.2305,1.2305,1.2305,1.2305,1.2305,1.2305,1.2305,1.2305,1.2305,1.2305,1.2305,1.2305,1.2305,1.2305,1.2305,1.2305,1.2545,1.2971,1.3133,1.3454,1.3828,1.4015,1.4088,1.4088,0.0,0.0,0.0,0.0,0.0,0.0,0.0,0.0,0.0,0.5098,0.0,0.0,0.0,0.0,0.5098,0.5098,0.5098,0.5175,0.5349,0.0,0.0,0.0,0.0,0.0,0.0,0.5098,0.5098,0.5098,0.5253,0.6082,0.7505,0.7627,0.8376,0.9592,0.9474,0.9902,0.0,0.0,0.0,0.905,0.0,0.0,1.0478,1.0352,1.083,0.0,0.0,0.0,0.0,0.0,0.0,0.0,0.0,0.6914,0.6055,0.5322,0.5624,0.6206,0.6196,0.0,0.0,0.0,0.0,0.8878,0.0,0.0,0.0,0.0,0.0,0.0,0.0,0.0,0.0,0.0,0.0,0.0,0.0,0.0,0.0,0.0,0.0,0.0,0.0,0.0,0.0,0.0,0.0,0.0,1.2004,1.2004,1.2004,1.2004,1.2104,1.2158,1.2158,1.2258,1.2305,1.2305,1.2305,1.2305,1.2305,1.2305,1.2305,1.2305,1.2305,1.2305,1.2305,1.2305,1.2516,1.2817,1.3093,1.3347,1.364,1.3975,1.4088,1.4088,0.0,0.0,0.0,0.0,0.0,0.0,0.0,0.0,0.5117,0.5117,0.0,0.0,0.0,0.0,0.0,0.5117,0.5117,0.5117,0.5098,0.5098,0.0,0.0,0.0,0.0,0.0,0.5098,0.5098,0.5098,0.5557,0.6213,0.707,0.7466,0.8318,0.9466,0.823,0.8626,1.0224,0.0,1.0254,1.0332,0.0,1.0897,1.1084,0.0,0.0,0.0,1.1937,1.1636,0.0,1.0635,0.0,0.0,0.0,0.7224,0.5743,0.5273,0.5478,0.5929,0.0,0.0,0.0,0.0,0.0,0.0,0.0,0.0,0.0,0.0,0.0,0.0,0.0,0.0,0.0,0.0,0.0,0.0,0.0,0.0,0.0,0.0,0.0,0.0,0.0,0.0,0.0,0.0,0.0,1.1389,1.1389,1.1389,1.1389,1.1389,1.171,1.1893,1.1893,1.2138,1.2278,1.2285,1.2285,1.2291,1.2305,1.2305,1.2305,1.2305,1.2305,1.2305,1.2305,1.2305,1.2472,1.2804,1.3073,1.3333,1.3626,1.3968,1.4082,1.4088,0.0,0.0,0.0,0.0,0.0,0.5498,0.5146,0.539,0.5606,0.0,0.0,0.0,0.5793,0.5685,0.5606,0.5606,0.5606,0.5469,0.5117,0.5098,0.5098,0.5098,0.5098,0.5098,0.5098,0.5098,0.5098,0.5098,0.5234,0.5596,0.6164,0.6281,0.6846,0.7768,0.7418,0.769,0.8422,0.8422,0.0,1.0312,1.043,1.1025,0.0,0.0,0.0,0.0,0.0,1.2314,1.2012,0.0,1.116,1.0283,0.0,0.0,0.665,0.617,0.6579,0.7057,0.654,0.0,0.0,0.0,0.0,0.0,0.0,0.0,0.0,0.0,0.0,0.0,0.0,0.0,0.0,0.0,0.0,0.0,0.0,0.0,0.0,0.0,0.0,0.0,0.0,0.0,0.0,0.0,1.1389,1.1389,1.1389,1.1389,1.1389,1.1389,1.151,1.155,1.155,1.1623,1.1777,1.2027,1.2027,1.2098,1.2305,1.2305,1.2305,1.2305,1.2305,1.2305,1.2305,1.2305,1.2351,1.2452,1.2797,1.306,1.3367,1.362,1.3901,1.4088,0.0,0.0,0.0,0.0,0.0,0.5957,0.5682,0.5879,0.6056,0.0,0.0,0.0,0.6056,0.6546,0.6666,0.6095,0.589,0.5685,0.541,0.5215,0.5098,0.5098,0.5098,0.5098,0.5098,0.5098,0.5098,0.5098,0.5098,0.5244,0.5508,0.5508,0.5879,0.6543,0.6345,0.6706,0.7437,0.7242,0.0,0.0,1.0547,0.0,0.0,1.2353,1.2656,0.0,0.0,0.0,1.2529,1.2681,1.2061,0.0,0.0,0.8564,0.7983,0.7184,0.7564,0.0,0.7422,0.0,0.0,0.0,0.0,0.0,0.0,0.7869,0.0,0.0,0.0,0.0,0.0,0.0,0.0,0.0,0.0,0.0,0.0,0.0,0.0,0.0,0.0,0.0,0.0,0.0,0.0,1.1062,1.1062,1.1062,1.1062,1.1062,1.1062,1.1062,1.1182,1.1243,1.1243,1.1329,1.1516,1.1683,1.1846,1.1993,1.2124,1.2245,1.2305,1.2305,1.2305,1.2305,1.2305,1.2305,1.2305,1.2331,1.267,1.2971,1.3247,1.3493,1.3793,1.4088,0.0,0.0,0.5823,0.5851,0.6201,0.6484,0.6484,0.6484,0.6514,0.0,0.667,0.6729,0.6826,0.7769,0.7945,0.6797,0.6242,0.5919,0.5861,0.5429,0.5146,0.5098,0.5098,0.5098,0.5098,0.5098,0.5098,0.5098,0.5098,0.5098,0.5098,0.5098,0.5322,0.5704,0.5283,0.5789,0.6934,0.667,0.0,0.9141,1.0733,1.1477,0.0,0.0,1.2842,0.0,1.3359,1.3271,1.3032,1.3379,1.2729,0.0,0.0,0.9796,0.9505,0.8328,0.8568,0.0,0.8718,0.8913,0.0,0.0,0.0,0.0,0.8645,0.8229,0.0,0.0,0.0,0.0,0.0,0.0,0.0,0.0,0.0,0.0,0.0,0.0,0.0,0.0,0.0,0.0,0.0,1.0593,1.0593,1.0593,1.0593,1.0593,1.0593,1.0593,1.0593,1.0593,1.0841,1.0949,1.0949,1.1202,1.1349,1.1349,1.1643,1.1846,1.1913,1.2138,1.2271,1.2305,1.2305,1.2305,1.2305,1.2305,1.2305,1.2325,1.263,1.2924,1.3193,1.3447,1.374,1.4041,0.0,0.5957,0.59,0.6221,0.666,0.6963,0.6963,0.6963,0.7217,0.7915,0.8291,0.876,0.9471,0.8855,0.8424,0.8496,0.748,0.6689,0.6309,0.59,0.5498,0.5117,0.5098,0.5098,0.5098,0.5098,0.5098,0.5098,0.5098,0.5098,0.5098,0.5098,0.5146,0.5234,0.5137,0.5458,0.6115,0.0,0.0,0.9062,0.9718,0.0,1.2096,1.2272,1.2578,1.2964,1.3359,1.3457,1.3398,0.0,1.3115,1.2475,0.0,0.0,0.0,0.9951,0.0,1.0449,1.0048,1.0215,1.0371,0.9714,0.0,0.0,0.0,0.8288,0.0,0.0,0.0,0.0,0.0,0.0,0.0,0.0,0.0,0.0,0.0,0.0,0.0,0.0,0.0,0.0,0.0,1.0593,1.0593,1.0593,1.0593,1.0593,1.0593,1.0593,1.0593,1.0593,1.0646,1.0673,1.0673,1.0734,1.0842,1.1082,1.1136,1.1444,1.1906,1.196,1.2084,1.2305,1.2305,1.2305,1.2305,1.2305,1.2305,1.2311,1.2365,1.261,1.2911,1.318,1.348,1.3726,0.0,0.6426,0.6572,0.6979,0.7432,0.7827,0.8018,0.8057,0.8281,0.8916,0.9746,1.0215,0.998,0.9766,0.9385,0.875,0.791,0.7213,0.6787,0.6154,0.5694,0.5459,0.5224,0.5215,0.5449,0.5224,0.5215,0.5449,0.5215,0.5098,0.5098,0.5098,0.5341,0.574,0.5536,0.6055,0.7123,0.0,0.8324,0.9377,1.0244,0.0,1.2233,1.2447,1.2695,1.2983,1.3594,1.3955,1.4072,1.3652,1.3369,0.0,0.0,1.2093,1.1807,0.0,1.1385,1.1453,1.1056,1.1095,1.1154,1.0703,0.0,0.0,0.0,0.0,0.8626,0.0,0.0,0.0,0.0,0.0,0.0,0.0,0.0,0.0,0.0,0.0,0.0,0.0,0.0,0.0,0.0,1.0151,1.0211,1.0327,1.0506,1.0593,1.0593,1.0593,1.0593,1.0593,1.0593,1.0593,1.0593,1.0593,1.0667,1.0814,1.0922,1.1223,1.1657,1.1839,1.2067,1.2305,1.2305,1.2305,1.2305,1.2305,1.2305,1.2305,1.2305,1.2485,1.2804,1.2958,1.326,1.3626,0.0,0.6846,0.7236,0.7627,0.8086,0.8541,0.8945,0.9004,0.9201,0.9786,1.088,1.1252,1.0332,1.0702,1.0518,0.9246,0.847,0.7895,0.749,0.6653,0.6135,0.6047,0.5605,0.5527,0.59,0.5468,0.538,0.5665,0.5283,0.5098,0.5098,0.5098,0.5526,0.6279,0.6027,0.0,0.0,0.0,0.0,1.0079,0.0,1.1751,1.2008,1.2559,1.2812,1.3023,1.3899,1.4541,1.4775,1.3916,0.0,1.3545,1.3037,1.2905,0.0,0.0,0.0,0.0,0.0,0.0,0.0,0.0,0.0,1.066,0.0,0.0,0.0,0.9606,0.0,0.0,0.0,0.0,0.0,0.0,0.0,0.0,0.0,0.0,0.0,0.0,0.0,0.0,0.0,0.9633,0.9778,1.0186,1.0292,1.0447,1.068,1.0562,1.0533,1.0593,1.0593,1.0593,1.0593,1.0593,1.0593,1.0593,1.0827,1.1062,1.1322,1.165,1.2051,1.251,1.2565,1.2696,1.2842,1.2666,1.2556,1.2556,1.2372,1.2489,1.2703,1.2764,1.3053,1.3447,0.6855,0.707,0.7236,0.7627,0.8086,0.8541,0.8945,0.9004,0.9424,1.0605,1.1252,1.1851,0.0,0.0,0.0,0.0,0.0,0.0,0.8818,0.0,0.733,0.6973,0.6501,0.6277,0.6328,0.5929,0.5537,0.5185,0.5127,0.5098,0.5098,0.5098,0.538,0.588,0.6191,0.0,0.0,0.0,0.9833,0.0,1.1547,1.1379,0.0,1.196,1.2549,1.3071,1.4268,1.498,1.5205,0.0,1.4036,1.3899,0.0,1.2905,1.2895,0.0,0.0,0.0,0.0,0.0,0.0,0.0,1.2103,0.0,0.0,0.0,1.0022,0.9686,0.0,0.0,0.0,0.0,0.0,0.0,0.0,0.0,0.0,0.0,0.0,0.0,0.0,0.0,0.0,0.0,0.9631,1.0573,0.9847,0.9865,1.098,1.0488,1.0287,1.0586,1.0593,1.0593,1.0593,1.0593,1.0593,1.0593,1.0626,1.0794,1.1049,1.1343,1.2082,1.3194,1.3439,1.4063,1.4807,1.3918,1.3528,1.3455,1.2629,1.2325,1.2385,1.269,1.2831,1.2965,0.7031,0.71,0.7314,0.7988,0.8268,0.862,0.925,1.001,1.0704,1.1242,1.1917,0.0,0.0,0.0,0.0,0.0,0.0,1.0361,0.0,0.0,0.8281,0.7876,0.7178,0.6911,0.7141,0.626,0.5822,0.5847,0.5351,0.5098,0.5108,0.538,0.6006,0.692,0.7353,0.0,0.9853,0.0,1.0527,0.0,0.0,0.0,0.0,1.2515,1.3389,1.4053,1.4627,1.5049,1.5322,0.0,1.4346,0.0,0.0,0.0,0.0,0.0,0.0,0.0,0.0,0.0,0.0,0.0,0.0,0.0,1.0673,0.0,0.9908,0.0,0.0,0.0,0.0,0.0,0.0,0.0,0.0,0.0,0.0,0.0,0.0,0.0,0.0,0.0,0.0,0.0,0.0,0.0,0.0,1.0127,1.0828,1.0746,1.0579,1.0332,1.0506,1.0593,1.0593,1.0593,1.0832,1.1288,1.1288,1.1668,1.2409,1.28,1.3338,1.4024,1.4407,1.4807,1.5163,1.4736,1.4557,1.4522,1.4127,1.3302,1.2318,1.2445,1.2636,1.2817,0.708,0.0,0.0,0.8096,0.8316,0.8718,0.965,1.0703,1.1486,1.1731,0.0,0.0,1.3027,1.3047,0.0,0.0,1.2181,1.1623,0.0,0.0,0.9395,0.9099,0.8145,0.0,0.0,0.6924,0.6348,0.6394,0.5653,0.5341,0.5458,0.5694,0.6416,0.7574,0.8252,0.9365,1.0752,0.0,0.0,1.1475,1.1819,1.2175,1.2553,1.3359,1.4141,1.4805,1.4912,1.5156,1.5352,1.4932,1.457,0.0,1.4541,0.0,0.0,0.0,0.0,0.0,1.2964,0.0,0.0,0.0,0.0,0.0,0.0,0.0,0.0,0.0,0.0,0.0,0.0,0.0,0.0,0.0,0.0,0.0,0.0,0.0,0.0,0.0,0.0,0.0,0.0,0.0,0.0,0.0,0.0,0.0,1.0816,1.0936,1.0723,1.0114,1.0439,1.0713,1.0926,1.0926,1.132,1.2143,1.2143,1.2546,1.3311,1.3843,1.4355,1.4799,1.534,1.5728,1.5948,1.5693,1.5587,1.5552,1.5305,1.4163,1.2666,1.2666,1.2841,1.3017,0.7012,0.7408,0.0,0.0,0.0,0.8825,1.0087,1.0645,1.124,0.0,0.0,0.0,0.0,0.0,0.0,0.0,0.0,1.3051,1.2174,0.0,1.084,1.083,0.9619,0.8955,0.0,0.81,0.7242,0.6394,0.5988,0.5978,0.6357,0.5978,0.6272,0.7178,0.8428,0.9473,1.0371,1.1234,1.2054,1.2846,1.2856,1.361,1.4639,0.0,1.4367,1.4834,1.5244,0.0,0.0,1.4932,1.4803,0.0,0.0,0.0,0.0,0.0,0.0,0.0,0.0,0.0,0.0,1.2025,0.0,0.0,0.0,0.0,1.1545,0.0,0.0,0.0,0.0,0.0,0.0,0.9706,0.0,0.0,0.0,0.0,0.0,0.0,0.0,0.0,0.0,0.0,0.0,0.0,0.0,0.0,1.1176,1.0936,1.053,1.0107,1.0439,1.0982,1.1741,1.1772,1.2174,1.2948,1.2948,1.2978,1.305,1.376,1.4615,1.5513,1.6224,1.707,1.7828,1.6922,1.6567,1.6463,1.5544,1.4557,1.3673,1.3673,1.3644,1.3638,0.0,0.0,0.0,0.0,0.0,0.8825,1.0107,1.1133,0.0,0.0,0.0,0.0,0.0,1.4355,1.4414,0.0,0.0,1.3994,1.3135,1.2539,0.0,0.0,0.0,1.0264,0.0,0.0,0.8412,0.8125,0.7139,0.6729,0.6865,0.6719,0.6963,0.7574,0.915,1.0166,0.0,0.0,0.0,0.0,0.0,1.4141,1.4766,0.0,0.0,1.5215,1.5361,1.541,0.0,1.5244,1.501,1.4805,1.4941,1.4562,1.4133,1.4316,1.4248,0.0,0.0,0.0,1.4219,1.2817,0.0,0.0,0.0,0.0,0.0,0.0,0.0,0.0,0.0,0.0,0.9554,0.9229,0.8898,0.0,0.0,0.0,0.0,0.0,0.0,0.0,0.0,0.0,0.0,0.0,0.0,0.0,0.0,1.1702,1.1611,1.1308,1.1612,1.2048,1.2604,1.2604,1.3,1.3786,1.3786,1.4055,1.4617,1.5164,1.5729,1.6325,1.6887,1.7466,1.7974,1.7647,1.7535,1.7501,1.7192,1.6472,1.5473,1.4163,1.331,1.2829,0.862,0.0,0.0,0.0,0.0,0.0,0.0,0.0,0.0,0.0,1.3691,0.0,1.5175,0.0,1.5332,0.0,1.5478,1.5049,1.4033,1.3711,0.0,1.2691,1.1992,0.0,0.0,0.0,0.9619,0.9004,0.8184,0.7613,0.731,0.731,0.7535,0.0,0.0,1.0518,1.0996,0.0,1.2993,0.0,0.0,1.4619,0.0,0.0,1.5176,1.541,0.0,1.541,1.541,1.541,1.5234,1.5049,1.5322,1.5001,1.4582,1.4746,1.4697,1.4494,1.4192,1.4453,0.0,1.3414,1.3105,0.0,1.1619,0.0,0.0,0.0,0.0,0.0,0.0,0.0,0.0,0.9463,0.9108,0.0,0.0,0.0,0.0,0.0,0.0,0.0,0.0,0.0,0.8524,1.0293,0.0,0.0,0.0,0.0,1.2192,1.1914,1.2217,1.2742,1.3425,1.3433,1.3816,1.4628,1.4628,1.4903,1.543,1.5889,1.6309,1.6726,1.7197,1.7627,1.8008,1.8008,1.8008,1.8008,1.8008,1.7432,1.6419,1.4807,1.3703,1.3012,0.0,0.0,0.0,0.0,0.9785,0.0,0.0,0.0,1.3213,0.0,1.4561,1.5195,1.6036,1.6124,1.6269,1.6668,1.6697,0.0,1.4961,1.4844,0.0,0.0,1.3184,1.2744,1.2311,0.0,0.0,0.0,0.9053,0.8568,0.7763,0.7744,0.0,0.0,0.9725,0.0,1.0967,1.2285,1.3115,1.3613,1.4473,1.5049,1.541,1.541,1.541,1.541,1.541,1.541,1.541,1.541,1.541,1.541,1.541,1.541,1.5332,1.4932,1.5098,1.5234,1.4387,1.4502,1.4619,1.3779,0.0,0.0,0.0,0.0,1.3418,0.0,0.0,0.0,0.0,0.0,0.0,1.0437,1.0147,0.0,0.0,0.0,0.0,0.0,0.0,0.0,0.0,0.0,0.7883,0.9926,0.946,0.0,0.0,0.0,1.2184,1.2017,1.2315,1.307,1.4234,1.4273,1.4628,1.541,1.541,1.541,1.543,1.5889,1.6309,1.6726,1.7197,1.7627,1.8008,1.8008,1.8008,1.8008,1.8008,1.7432,1.6498,1.5552,1.4824,1.4178,0.9893,1.0488,1.0929,0.0,1.0841,1.1006,0.0,0.0,0.0,0.0,1.5302,1.5977,1.6504,1.6562,1.658,1.6687,1.6697,0.0,0.0,0.0,0.0,1.4932,1.4182,1.3734,1.3627,1.2574,0.0,1.1375,0.0,0.0,0.8655,0.8359,0.0,0.0,0.0,0.0,1.0547,1.1836,1.2983,1.4026,1.4902,1.5312,0.0,0.0,1.541,1.541,1.541,1.541,1.541,1.541,1.541,1.541,1.541,1.541,1.5391,1.5283,1.5322,1.5361,1.5118,1.5166,1.5127,1.459,1.4209,1.3802,0.0,0.0,0.0,0.0,0.0,0.0,0.0,0.0,0.0,0.0,0.0,0.0,0.0,0.0,0.0,0.0,0.0,0.0,0.0,0.0,0.9074,0.9677,0.0,0.0,0.0,0.0,0.0,1.3501,1.3624,1.4119,1.507,1.5079,1.5196,1.541,1.541,1.541,1.543,1.5889,1.6309,1.6726,1.7197,1.7627,1.8008,1.8008,1.8008,1.8008,1.8008,1.7432,1.6498,1.5552,1.5278,1.538,1.0508,0.0,0.0,1.1907,0.0,0.0,1.272,0.0,0.0,1.4922,1.5674,0.0,1.6648,1.7038,1.7262,1.7262,1.7262,0.0,1.6726,0.0,0.0,1.5439,1.5127,1.4805,1.4424,1.35,0.0,1.1943,0.0,0.0,0.873,0.0,0.0,0.0,0.0,1.0205,0.0,1.233,1.3451,1.4182,1.504,0.0,0.0,1.541,1.541,1.541,1.541,1.541,1.541,1.541,1.541,1.541,1.541,1.541,1.541,1.541,1.541,1.541,1.541,1.541,1.5352,1.5117,1.4873,1.4552,1.416,1.4248,1.4346,0.0,0.0,0.0,0.0,0.0,0.0,0.0,0.0,0.0,0.0,0.0,0.0,0.0,0.0,0.0,0.0,0.0,0.0,0.0,0.0,0.0,0.0,0.0,0.0,1.4065,1.4104,1.4523,1.5371,1.541,1.541,1.541,1.541,1.541,1.543,1.5889,1.6309,1.6726,1.7197,1.7627,1.8008,1.8008,1.8008,1.8008,1.8008,1.7681,1.7166,1.681,1.658,1.6435,0.0,0.0,0.0,0.0,0.0,0.0,0.0,1.3799,0.0,1.543,0.0,1.6465,1.6824,1.7568,1.8008,1.8008,0.0,1.7695,1.6911,1.7207,1.6875,1.5723,1.5977,1.5801,1.4999,1.4387,0.0,0.0,0.0,0.0,0.8473,0.0,0.0,0.0,0.0,0.0,0.0,1.3237,1.4143,1.426,1.5059,1.541,1.541,1.541,1.541,1.541,1.541,1.541,1.541,1.541,1.541,1.541,1.541,1.541,1.541,1.541,1.541,1.541,1.541,1.541,1.541,1.541,1.541,1.5312,1.4951,1.4891,1.4891,1.4891,1.4561,1.4484,0.0,0.0,0.0,0.0,0.0,0.0,0.0,0.0,0.0,0.0,0.0,0.0,0.0,0.0,0.0,0.0,0.0,0.0,0.0,0.0,0.0,1.3997,1.4075,0.0,1.5322,0.0,1.541,1.541,1.541,1.541,1.543,1.5958,1.6367,1.6726,1.7246,1.7676,1.8008,1.8008,1.8008,1.8008,1.8008,1.8047,1.8144,1.8529,1.8207,1.7542,0.0,0.0,0.0,0.0,0.0,1.4319,1.498,1.541,1.583,1.6395,1.7187,1.7695,1.774,1.792,1.8008,1.8008,1.8008,0.0,0.0,0.0,0.0,1.7051,1.6768,1.6377,1.588,1.4717,1.3627,0.0,0.0,0.0,0.8887,0.0,0.0,0.0,0.0,0.0,1.2067,1.35,0.0,1.4717,1.5205,1.541,1.541,1.541,1.541,1.541,1.541,1.541,1.541,1.541,1.541,1.541,1.541,1.541,1.541,1.541,1.541,1.541,1.541,1.541,1.541,1.541,1.541,1.5391,1.5322,1.5303,1.5303,1.5303,1.5234,1.5127,1.4932,0.0,0.0,0.0,0.0,0.0,0.0,0.0,0.0,0.0,0.0,0.0,0.0,0.0,0.0,0.0,0.0,0.0,0.0,0.0,0.0,0.0,1.3929,0.0,0.0,0.0,1.541,1.541,1.541,1.541,1.5439,1.6219,1.6629,1.6746,1.7559,1.7939,1.8008,1.8008,1.8008,1.8008,1.8008,1.8188,1.8549,1.9014,1.9275,1.9408,0.0,0.0,0.0,0.0,0.0,0.0,0.0,1.7307,0.0,1.6789,1.7058,1.7321,1.7321,1.7744,1.8008,1.8008,1.8008,1.8008,1.8008,1.7822,1.7607,1.7393,1.7178,0.0,1.6416,1.5352,1.4358,1.3525,0.0,0.0,0.9299,0.8906,0.0,0.8453,0.0,1.1143,0.0,0.0,0.0,1.4852,1.5244,1.541,1.541,1.541,1.541,1.5439,1.5664,1.5752,1.5743,1.5488,1.541,1.541,1.541,1.541,1.541,1.541,1.541,1.541,1.541,1.541,1.541,1.541,1.541,1.541,1.541,1.541,1.541,1.541,1.541,1.5283,1.4863,1.4434,0.0,0.0,0.0,0.0,0.0,0.0,0.0,0.0,0.0,0.0,0.0,0.0,0.0,0.0,0.0,0.0,0.0,0.0,0.0,0.0,0.0,0.0,0.0,0.0,0.0,1.541,1.541,1.5527,1.5771,1.6395,1.6824,1.7109,1.7734,1.8008,1.8008,1.8008,1.8008,1.8008,1.8008,1.8237,1.8656,1.9131,1.9551,1.9941,0.0,1.4762,0.0,0.0,1.742,0.0,1.8259,1.8874,1.8747,1.7174,1.697,1.697,1.697,1.7607,1.8008,1.8008,1.8008,1.8008,1.8008,1.8008,1.7861,1.7529,1.7519,1.7314,1.6853,1.5996,1.5078,0.0,0.0,0.0,0.0,0.9473,0.0,0.0,0.0,0.0,0.0,0.0,1.4658,1.5116,1.5518,1.5693,1.5693,1.5693,1.5693,1.5732,1.6084,1.6242,1.6183,1.5811,1.5693,1.5693,1.5693,1.5693,1.5693,1.5693,1.5625,1.5547,1.5547,1.5488,1.541,1.541,1.541,1.541,1.541,1.541,1.541,1.541,1.541,1.5283,1.4863,1.458,0.0,0.0,0.0,0.0,0.0,0.0,0.0,0.0,0.0,0.0,0.0,0.0,0.0,0.0,0.0,0.0,1.0254,1.0939,0.0,0.0,0.0,1.427,1.4648,0.0,1.541,1.541,1.5508,1.5732,1.6114,1.6621,1.7061,1.7402,1.7832,1.8008,1.8008,1.8008,1.8008,1.8008,1.8008,1.833,1.8783,1.916,1.9619,2.0098,0.0,0.0,0.0,0.0,0.0,0.0,0.0,1.9327,1.8964,1.7998,1.7891,1.7891,1.7891,1.7959,1.8008,1.8008,1.8008,1.8008,1.8008,1.8008,1.7988,1.7959,1.7949,1.7754,1.7334,1.6486,1.5391,0.0,0.0,0.0,0.0,1.0361,0.0,0.0,0.0,0.0,0.0,1.4766,1.5547,1.6007,1.6426,1.658,1.658,1.658,1.658,1.658,1.6619,1.6638,1.6638,1.659,1.658,1.658,1.658,1.658,1.658,1.658,1.6318,1.6036,1.6036,1.5713,1.541,1.541,1.541,1.541,1.541,1.541,1.541,1.541,1.541,1.5283,1.4863,1.5059,1.5011,0.0,0.0,0.0,0.0,0.0,0.0,0.0,0.0,0.0,0.0,0.0,0.0,0.0,0.0,0.0,1.0234,1.0381,1.1203,1.2905,0.0,1.4124,1.4172,1.4981,1.541,1.542,1.584,1.6056,1.6124,1.6975,1.7376,1.7402,1.7832,1.8008,1.8008,1.8008,1.8008,1.8008,1.8008,1.8506,1.9238,1.9268,1.9805,2.0546,0.0,0.0,0.0,0.0,0.0,0.0,0.0,2.0943,2.0396,1.896,1.8779,1.8779,1.8779,1.8779,1.8672,1.8373,1.8354,1.8247,1.8027,1.8008,1.8008,1.8008,1.8008,1.793,1.7764,1.7168,1.6369,0.0,0.0,1.2779,1.1677,1.1511,0.0,0.0,0.0,1.3987,1.4697,1.5478,1.6064,1.6484,1.6629,1.6697,1.6697,1.6697,1.6697,1.6736,1.7031,1.7119,1.7168,1.7412,1.7126,1.6697,1.6697,1.6697,1.6697,1.6697,1.6602,1.6465,1.6465,1.6307,1.6102,1.5869,1.5831,1.5762,1.5469,1.541,1.541,1.541,1.541,1.5361,1.5186,1.5088,1.5,0.0,0.0,0.0,0.0,0.0,0.0,0.0,0.0,0.0,0.0,0.0,0.0,0.0,0.0,0.0,0.0,0.0,0.0,1.2418,0.0,1.4104,1.4104,1.4952,1.541,1.542,1.5889,1.6232,1.6484,1.71,1.7519,1.7773,1.7939,1.8008,1.8008,1.8008,1.8008,1.8037,1.8256,1.876,1.9316,1.957,2.0049,2.0605,2.1617,0.0,2.1415,0.0,2.2744,2.2091,2.2011,2.1767,2.1144,1.9844,1.9668,1.957,1.9316,1.9287,1.916,1.8822,1.8828,1.8701,1.8408,1.8389,1.8389,1.8389,1.8262,0.0,1.8193,1.7666,1.7012,1.629,1.5215,0.0,1.3139,0.0,0.0,0.0,1.4512,1.5039,1.5644,1.6242,1.6662,1.6934,1.7028,1.7077,1.7077,1.7077,1.7077,1.7116,1.7461,1.7568,1.7607,1.791,1.7574,1.7077,1.7077,1.7077,1.7077,1.7077,1.6989,1.6924,1.6924,1.6804,1.6619,1.6338,1.6193,1.6007,1.5674,1.5508,1.541,1.541,1.541,1.541,1.541,1.5166,1.5029,1.5205,0.0,0.0,0.0,0.0,0.0,0.0,0.0,1.2012,0.0,0.0,0.0,0.0,0.0,0.0,0.0,0.0,0.0,0.0,0.0,0.0,0.0,1.502,1.5478,1.5605,1.6045,1.6494,1.6911,1.7373,1.7734,1.8008,1.8008,1.8008,1.8008,1.8008,1.8008,1.8047,1.8432,1.8906,1.9336,1.9756,2.0195,2.0605,2.3284,2.284,2.2765,2.4649,2.3334,2.1996,2.2017,2.1211,2.0624,2.0586,2.0586,2.0263,1.9375,1.9287,1.9287,1.9277,1.9277,1.9277,1.9268,1.9268,1.9268,0.0,0.0,1.8598,1.8598,1.7812,1.7168,1.6697,0.0,0.0,1.5371,0.0,1.5381,1.541,1.588,1.6075,1.6144,1.7024,1.7406,1.7445,1.7822,1.7988,1.7988,1.7988,1.7988,1.7998,1.7998,1.8008,1.8008,1.8008,1.8008,1.7988,1.7988,1.7988,1.7988,1.7988,1.7705,1.7373,1.7373,1.7061,1.6697,1.6697,1.6387,1.6095,1.6085,1.5723,1.541,1.541,1.541,1.541,1.541,1.541,1.5264,1.4863,0.0,0.0,0.0,0.0,0.0,0.0,1.2122,1.1937,1.2807,0.0,0.0,0.0,0.0,0.0,0.0,0.0,0.0,1.3437,1.388,0.0,1.4803,1.5205,1.5625,1.6095,1.6514,1.6953,1.7425,1.7812,1.8008,1.8008,1.8008,1.8008,1.8008,1.8008,1.8008,1.8047,1.8432,1.8906,1.9336,1.9756,2.0195,2.0605,2.5351,2.4783,2.4495,2.5812,2.5499,2.4612,2.322,2.2776,2.2113,2.0789,2.0605,2.0498,2.0224,2.0194,2.0077,0.0,1.9717,1.959,0.0,1.9287,1.9287,1.9287,1.916,1.9082,1.9082,1.8818,1.833,1.7607,0.0,0.0,0.0,1.5889,1.6016,1.6297,1.6768,1.6995,1.7034,1.7568,1.7812,1.7822,1.7959,1.8008,1.8008,1.8008,1.8008,1.8008,1.8008,1.8008,1.8008,1.8008,1.8008,1.8008,1.8008,1.8008,1.8008,1.8008,1.791,1.7812,1.7812,1.7705,1.7539,1.7246,1.707,1.6838,1.6232,1.5723,1.541,1.541,1.541,1.541,1.541,1.541,1.5371,1.5234,1.4582,0.0,0.0,0.0,0.0,0.0,0.0,1.2592,0.0,1.1858,0.0,0.0,0.0,0.0,0.0,0.0,0.0,0.0,1.4053,0.0,1.4813,1.5527,1.5958,1.6105,1.6816,1.7402,1.7812,1.7949,1.8008,1.8008,1.8008,1.8008,1.8008,1.8008,1.8149,1.8442,1.8906,1.9346,1.9766,2.0195,2.0488,2.0605,2.6383,2.5699,2.5075,2.5323,2.5052,2.4277,2.2675,2.2414,2.1973,2.075,2.0605,2.0605,2.0605,2.0605,0.0,2.0185,2.0156,2.0049,1.9785,1.9803,1.9803,1.9803,1.9609,1.9521,1.9521,0.0,0.0,1.8496,1.8066,1.7568,1.7021,1.6865,1.6943,1.7194,1.75,1.7617,1.7637,1.79,1.8105,1.8242,1.8242,1.834,1.8477,1.8276,1.8242,1.8223,1.8066,1.8008,1.8008,1.8008,1.8008,1.8008,1.8008,1.8008,1.8008,1.8008,1.8008,1.8008,1.8008,1.8008,1.7949,1.7686,1.75,1.7181,1.629,1.588,1.5605,1.5449,1.541,1.541,1.541,1.541,1.5361,1.5205,1.4562,1.4055,1.3899,0.0,0.0,0.0,0.0,0.0,0.0,1.269,0.0,0.0,0.0,0.0,0.0,0.0,0.0,1.333,1.4434,0.0,1.5292,1.5997,1.6396,1.6604,1.7275,1.7754,1.8008,1.8008,1.8008,1.8008,1.8008,1.8008,1.8018,1.8149,1.8364,1.8656,1.9287,1.9678,1.9971,2.0449,2.0605,2.0605,2.6499,2.5699,0.0,0.0,2.2813,0.0,2.0857,2.0712,2.0693,2.0644,2.0625,2.0625,2.0693,2.0644,2.0615,2.0644,0.0,0.0,0.0,2.0605,2.0605,2.0605,2.0176,1.9961,1.9961,1.957,1.9365,1.9336,1.8896,1.8646,1.8637,1.8281,1.8096,1.8096,1.8096,1.8096,1.8096,1.8096,1.833,1.8646,1.8646,1.8926,1.9248,1.8802,1.8646,1.8598,1.8208,1.8096,1.8096,1.8096,1.8096,1.8096,1.8096,1.8076,1.8047,1.8018,1.8008,1.8008,1.8008,1.8008,1.8008,1.8008,1.7695,1.72,1.6378,1.6163,1.6016,1.5547,1.5459,1.5449,1.542,1.541,1.5273,1.4882,1.4424,1.3958,1.3564,0.0,0.0,0.0,0.0,0.0,0.0,1.3652,1.3743,0.0,0.0,0.0,0.0,0.0,1.3418,1.4172,1.5019,1.5664,1.6134,1.6553,1.697,1.7465,1.7822,1.8008,1.8008,1.8008,1.8008,1.8008,1.8008,1.8027,1.8086,1.8442,1.8637,1.8773,1.9563,1.9932,2.001,2.0458,2.0605,2.0605,0.0,0.0,2.4933,2.4671,2.4456,2.3708,2.1924,2.1669,2.1535,2.1105,2.0781,2.086,2.1504,2.1016,2.0703,2.1045,2.0762,2.0605,2.0605,2.0605,2.0605,2.0605,2.0507,2.0449,2.0449,2.0351,2.0136,1.9766,1.9346,1.9131,1.9131,1.9033,1.8984,1.8984,1.8984,1.8984,1.8984,1.8984,1.9043,1.9131,1.9131,1.9189,1.9277,1.918,1.9131,1.9121,1.9023,1.8984,1.8984,1.8984,1.8984,1.8984,1.8984,1.876,1.8393,1.8105,1.8008,1.8008,1.8008,1.8008,1.8008,1.8008,1.7695,1.7357,1.7151,1.6816,1.6445,1.6026,1.5938,1.5811,1.5469,1.541,1.5273,1.4882,1.4424,1.3958,1.3564,1.3418,0.0,0.0,1.3704,1.3919,1.3821,1.3704,1.3549,0.0,0.0,0.0,0.0,1.4336,1.4902,1.5079,1.5625,1.6153,1.6541,1.7012,1.7441,1.7861,1.7959,1.8008,1.8008,1.8008,1.8008,1.8008,1.8008,1.8159,1.8461,1.8559,1.8987,1.9592,1.9834,2.0117,2.0458,2.0566,2.0605,2.0605,2.6383,2.606,2.5619,2.5409,2.5385,2.4936,2.3672,2.3476,2.3343,2.3085,2.2846,2.2888,2.3362,2.2993,2.2793,2.3016,2.1537,2.0605,2.0605,2.0605,2.0789,2.1231,2.1221,2.1451,2.1935,2.1935,2.1809,2.1559,2.1146,2.0963,2.0952,2.0743,2.0638,2.0638,2.0638,2.04,1.9991,1.9991,1.9823,1.957,1.957,1.9687,1.9891,1.9648,1.957,1.9551,1.9355,1.9287,1.9287,1.9287,1.9287,1.9287,1.9287,1.9131,1.8887,1.8662,1.832,1.8008,1.8008,1.8008,1.8008,1.8008,1.7842,1.7617,1.7432,1.7197,1.6904,1.6465,1.6367,1.6353,1.6256,1.6224,1.6066,1.5527,1.5227,1.482,1.4129,1.4272,0.0,1.4397,1.5007,1.5358,1.5159,1.5295,1.5211,1.4854,1.5185,0.0,1.4878,1.5729,1.5968,1.542,1.623,1.6819,1.7031,1.7451,1.7783,1.8008,1.8008,1.8008,1.8008,1.8008,1.8008,1.8018,1.8178,1.8393,1.8627,1.9026,1.9455,1.9932,2.0137,2.04,2.0605,2.0605,2.0605,2.0605,2.6738,2.6738,2.6584,2.6008,2.5934,2.5755,2.5258,2.521,2.5233,2.5273,2.5255,2.5266,2.5374,2.5261,2.5233,2.5284,2.2829,2.1258,2.1149,2.1149,2.1484,2.2188,2.2215,2.2627,2.3478,2.3514,2.3514,2.3514,2.3147,2.2981,2.2969,2.2577,2.2421,2.2421,2.2421,2.1934,2.1204,2.1204,2.0897,2.0442,2.0442,2.0671,2.1009,2.0591,2.0442,2.0392,2.0069,1.9829,1.973,1.9866,1.9829,1.972,1.9902,1.979,1.9667,1.9803,1.9163,1.8389,1.832,1.8353,1.8395,1.8395,1.8395,1.8305,1.7968,1.779,1.7573,1.7254,1.6975,1.689,1.7168,1.7212,1.6905,1.6037,1.6117,1.5894,1.4739,0.0,1.5712,1.5609,1.6474,1.6965,1.661,1.7098,1.7195,1.6565,1.7178,1.7277,1.6587,1.7229,1.7085,1.591,1.7009,1.7632,1.7701,1.7899,1.8008,1.8008,1.8008,1.8008,1.8008,1.8008,1.8047,1.8125,1.8451,1.8676,1.8851,1.9572,1.9951,2.0049,2.042,2.0605,2.0605,2.0605,2.0605,2.0605,2.7846,2.7846,2.7555,2.6657,2.647,2.6205,2.5354,2.521,2.5318,2.5644,2.543,2.5487,2.6199,2.5639,2.534,2.5666,2.4948,2.4255,2.3748,2.3726,2.3577,2.3268,2.3257,2.3331,2.3514,2.3514,2.3514,2.3514,2.3447,2.3414,2.3414,2.3324,2.329,2.329,2.329,2.3218,2.3072,2.3072,2.3043,2.2926,2.2926,2.297,2.3036,2.2959,2.2926,2.2915,2.2875,2.2301,2.1716,2.2559,2.2264,2.1742,2.2596,2.2033,2.1251,2.2081,2.1417,2.025,1.9741,1.9883,2.0204,2.0204,2.0204,2.0182,2.0116,1.9521,1.9068,1.9342,1.8268,1.731,1.7348,1.729,1.6589,1.474,1.5796,1.6184,1.4219,0.0,1.6612,1.6146,1.6927,1.7487,1.742,1.6948,1.6786,1.705,1.7294,1.7205,1.6691,1.8454,1.906,1.8124,1.8311,1.8612,1.8996,1.8331,1.8008,1.8008,1.8008,1.8008,1.8008,1.8008,1.8203,1.851,1.8568,1.9017,1.9727,1.9826,2.0127,2.0507,2.0576,2.0605,2.0605,2.0605,2.0605,2.0605,2.8109,2.7946,2.7837,2.7853,2.779,2.7713,2.7681,2.7663,2.7747,2.7936,2.7807,2.7843,2.8243,2.7912,2.7747,2.7948,2.7795,2.7423,2.6834,2.5543,2.4899,2.5147,2.5161,2.5304,2.5553,2.5278,2.5134,2.5134,2.5134,2.5134,2.5134,2.5134,2.5134,2.5134,2.5134,2.4803,2.4301,2.4301,2.4,2.3514,2.3514,2.3514,2.3514,2.3514,2.3514,2.3514,2.3514,2.3184,2.2888,2.3331,2.3184,2.2888,2.3331,2.3029,2.2634,2.3081,2.244,2.1496,2.1221,2.1085,2.1015,2.1015,2.0824,2.059,2.059,2.0301,2.0041,2.0236,1.9651,1.9158,1.9321,1.9062,1.8577,1.777,1.7897,0.0,0.0,1.7714,1.8416,1.8165,1.9075,1.9694,1.9694,1.9403,1.9272,1.9488,1.9586,1.9447,1.9054,1.9962,2.0242,1.9704,1.9233,1.9089,1.9299,1.8428,1.8008,1.8008,1.8008,1.8091,1.8315,1.8315,1.8539,1.8994,1.9228,1.9514,1.9932,2.0166,2.0381,2.0605,2.0605,2.0605,2.0605,2.0605,2.0605,2.0605,2.8499,2.8309,2.8334,2.9001,2.9026,2.9151,2.9704,2.9792,2.9792,2.9792,2.9792,2.9792,2.9792,2.9792,2.9792,2.9792,2.9792,2.9603,2.9126,2.7311,2.6467,2.6926,2.6951,2.7115,2.7482,2.709,2.6876,2.6876,2.6751,2.6688,2.6688,2.6549,2.6499,2.6499,2.6499,2.606,2.5335,2.5335,2.4886,2.4217,2.4217,2.4217,2.4217,2.4217,2.4217,2.4217,2.4217,2.4036,2.3891,2.4108,2.4036,2.3891,2.4108,2.4036,2.3891,2.4145,2.3734,2.3109,2.2743,2.2409,2.2195,2.2195,2.1781,2.138,2.138,2.1129,2.0942,2.1132,2.0878,2.0687,2.0983,2.0677,2.0347,2.0238,0.0,0.0,0.0,1.967,2.015,2.0012,2.0878,2.1493,2.1493,2.1425,2.1374,2.1374,2.1497,2.1384,2.092,2.1289,2.1407,2.1184,2.0139,1.9595,1.9595,1.8944,1.8586,1.863,1.8731,1.8954,1.9243,1.9379,1.9672,2.0153,2.0202,2.0289,2.0419,2.0536,2.0605,2.0605,2.0605,2.0605,2.0605,2.0605,2.0605,2.0605,2.9666,2.9641,2.9654,2.9716,2.9716,2.9729,2.9779,2.9792,2.9792,2.9792,2.9792,2.9792,2.9792,2.9792,2.9792,2.9792,2.9792,2.9779,2.9729,2.9563,2.9037,2.8037,2.7987,2.8011,2.8047,2.8009,2.7984,2.7984,2.7469,2.7218,2.7241,2.6738,2.6499,2.6499,2.6499,2.6452,2.6383,2.6383,2.6349,2.6267,2.6267,2.6267,2.6267,2.6267,2.6267,2.6267,2.6267,2.5687,2.504,2.5943,2.5652,2.504,2.599,2.5652,2.5075,2.6025,2.6217,2.5859,2.4441,2.4308,2.4551,2.4551,2.414,2.3742,2.3742,2.2748,2.2002,2.2763,2.1667,2.0719,2.1116,2.1045,2.0458,1.8982,0.0,0.0,1.9115,2.0326,2.1207,2.0691,2.1157,2.1493,2.1493,2.1217,2.1039,2.1039,2.1546,2.1522,2.0662,2.2084,2.2937,2.2914,2.1353,2.0494,2.0494,2.043,2.0398,2.0398,2.0918,2.1152,2.1208,2.1721,2.2201,2.2564,2.1673,2.1486,2.1759,2.0952,2.0605,2.0605,2.0605,2.0605,2.0605,2.0605,2.0605,2.0605,2.9792,2.9792,2.9792,2.9792,2.9792,2.9792,2.9792,2.9792,2.9792,2.9792,2.9792,2.9792,2.9792,2.9792,2.9792,2.9792,2.9792,2.9792,2.9792,2.9792,2.9603,2.9164,2.8812,2.8612,2.8612,2.8285,2.8109,2.8109,2.7896,2.7795,2.7783,2.7582,2.7482,2.7482,2.7482,2.7482,2.7482,2.7482,2.7482,2.7482,2.7482,2.7482,2.7482,2.7482,2.7482,2.7482,2.7482,2.703,2.6484,2.6862,2.6519,2.599,2.6383,2.6245,2.6025,2.6383,2.6499,2.638,2.5812,2.5443,2.531,2.531,2.4908,2.4418,2.4079,2.3598,2.3183,2.311,2.2586,2.2188,2.2358,2.2068,2.1722,2.143,0.0,2.1372,2.1048,2.1578,2.192,2.1707,2.2171,2.2481,2.2481,2.239,2.2309,2.2309,2.2506,2.2506,2.2175,2.275,2.2884,2.2384,2.2218,2.1896,2.1396,2.0878,2.059,2.0602,2.1149,2.1542,2.1778,2.2363,2.2857,2.3245,2.2882,2.2798,2.2888,2.2563,2.2414,2.2339,2.1707,2.1479,2.1413,2.0828,2.0605,2.0605,2.9792,2.9792,2.9792,2.9792,2.9792,2.9792,2.9792,2.9792,2.9792,2.9792,2.9792,2.9792,2.9792,2.9792,2.9792,2.9792,2.9792,2.9792,2.9792,2.9792,2.9792,2.9792,2.9415,2.9202,2.9202,2.8825,2.8637,2.8637,2.8448,2.836,2.836,2.8185,2.8109,2.8109,2.8109,2.8109,2.8109,2.8109,2.8109,2.8109,2.8109,2.8109,2.8109,2.8109,2.8109,2.8109,2.8109,2.7858,2.7544,2.7544,2.7329,2.7014,2.7014,2.6889,2.6713,2.6549,2.6499,2.6499,2.6499,2.6197,2.5862,2.5862,2.546,2.4958,2.4582,2.4368,2.4142,2.371,2.3634,2.3584,2.3409,2.307,2.2869,2.307,2.2468,2.2133,2.2493,2.2543,2.2543,2.2543,2.2882,2.3108,2.3108,2.3108,2.3108,2.3108,2.3108,2.3108,2.3108,2.3108,2.2854,2.2279,2.2823,2.294,2.2546,2.1958,2.1672,2.1672,2.2369,2.2871,2.3153,2.3758,2.4178,2.4433,2.4108,2.3963,2.3963,2.3624,2.3514,2.3441,2.2739,2.2478,2.2403,2.1745,2.1527,2.1451,2.9792,2.9792,2.9792,2.9792,2.9792,2.9792,2.9792,2.9792,2.9792,2.9792,2.9792,2.9792,2.9792,2.9792,2.9792,2.9792,2.9792,2.9792,2.9792,2.9792,2.9792,2.9792,2.9792,2.9792,2.9792,2.9792,2.9792,2.9792,2.9214,2.89,2.8888,2.8373,2.8122,2.8122,2.8122,2.8122,2.8122,2.8122,2.8122,2.8122,2.8122,2.8122,2.8122,2.8122,2.8122,2.8122,2.8122,2.8109,2.8109,2.8109,2.8109,2.8109,2.8109,2.772,2.718,2.6663,2.6499,2.6499,2.6499,2.6499,2.6499,2.6499,2.6059,2.5598,2.5598,2.5197,2.48,2.4788,2.4788,2.4625,2.4104,2.4004,2.3816,2.3208,2.3108,2.3108,2.3108,2.3108,2.3108,2.3108,2.3108,2.3108,2.3108,2.3108,2.3108,2.3108,2.3108,2.3108,2.3108,2.3108,2.3108,2.3108,2.3108,2.3396,2.4004,2.4004,2.4004,2.4017,2.5084,2.5598,2.5611,2.6223,2.6499,2.6452,2.5441,2.5004,2.4933,2.3927,2.3514,2.3514,2.3514,2.3514,2.3514,2.3514,2.3514,2.3368,2.9792,2.9792,2.9792,2.9792,2.9792,2.9792,2.9792,2.9792,2.9792,2.9792,2.9792,2.9792,2.9792,2.9792,2.9792,2.9792,2.9792,2.9792,2.9792,2.9792,2.9792,2.9792,2.9792,2.9792,2.9792,2.9792,2.9792,2.9792,2.9616,2.9528,2.9528,2.9365,2.9289,2.9289,2.9289,2.9289,2.9289,2.9289,2.9289,2.9289,2.9289,2.9289,2.9289,2.9289,2.9289,2.9289,2.9289,2.9026,2.865,2.865,2.8423,2.8109,2.8109,2.7996,2.7821,2.7657,2.7379,2.7065,2.7065,2.6788,2.6499,2.6499,2.6361,2.6135,2.5686,2.5473,2.5259,2.4863,2.4788,2.4738,2.4575,2.4569,2.4393,2.3828,2.374,2.3572,2.3158,2.3108,2.3108,2.3108,2.3108,2.3108,2.3108,2.3108,2.3108,2.3108,2.3108,2.3108,2.3108,2.3496,2.374,2.374,2.4086,2.4374,2.4569,2.4192,2.4192,2.4582,2.5272,2.5598,2.5611,2.6223,2.6499,2.6487,2.6164,2.606,2.6025,2.5721,2.5616,2.5534,2.4814,2.4564,2.4456,2.3745,2.3514,2.3441,2.9792,2.9792,2.9792,2.9792,2.9792,2.9792,2.9792,2.9792,2.9792,2.9792,2.9792,2.9792,2.9792,2.9792,2.9792,2.9792,2.9792,2.9792,2.9792,2.9792,2.9792,2.9792,2.9792,2.9792,2.9792,2.9792,2.9792,2.9792,2.9792,2.9792,2.9792,2.9792,2.9792,2.9792,2.9792,2.9792,2.9792,2.9792,2.9792,2.9792,2.9792,2.9792,2.9792,2.9792,2.9792,2.9792,2.9792,2.9566,2.9277,2.9277,2.9051,2.8725,2.8499,2.8436,2.8386,2.8172,2.7871,2.7607,2.7607,2.7205,2.6826,2.6826,2.6663,2.6399,2.6047,2.5971,2.585,2.5536,2.5473,2.5398,2.5172,2.5134,2.4958,2.4406,2.433,2.4205,2.3822,2.3772,2.3684,2.3471,2.3446,2.3358,2.3133,2.3108,2.3195,2.3434,2.3647,2.3772,2.3772,2.4111,2.433,2.433,2.4612,2.4888,2.5121,2.4795,2.4795,2.5134,2.5674,2.5971,2.5984,2.6336,2.6499,2.6499,2.6499,2.6499,2.6499,2.6499,2.6499,2.6452,2.5838,2.5581,2.5511,2.4909,2.4696,2.4624,2.9792,2.9792,2.9792,2.9792,2.9792,2.9792,2.9792,2.9792,2.9792,2.9792,2.9792,2.9792,2.9792,2.9792,2.9792,2.9792,2.9792,2.9792,2.9792,2.9792,2.9792,2.9792,2.9792,2.9792,2.9792,2.9792,2.9792,2.9792,2.9792,2.9792,2.9792,2.9792,2.9792,2.9792,2.9792,2.9792,2.9792,2.9792,2.9792,2.9792,2.9792,2.9792,2.9792,2.9792,2.9792,2.9792,2.9792,2.9792,2.9792,2.9792,2.9792,2.9691,2.9126,2.8963,2.8863,2.8411,2.8222,2.8185,2.8185,2.777,2.7356,2.7356,2.6977,2.6549,2.6499,2.6499,2.6499,2.6499,2.6499,2.6336,2.5774,2.5674,2.5498,2.4938,2.4863,2.4838,2.48,2.4788,2.4632,2.413,2.4067,2.3866,2.3308,2.3258,2.3471,2.4029,2.4531,2.4788,2.4788,2.4838,2.4863,2.4863,2.4913,2.5197,2.5674,2.5674,2.5674,2.5686,2.6248,2.6499,2.6499,2.6499,2.6499,2.6499,2.6499,2.6499,2.6499,2.6499,2.6499,2.6499,2.6499,2.6499,2.6499,2.6499,2.6499,2.6383,2.9792,2.9792,2.9792,2.9792,2.9792,2.9792,2.9792,2.9792,2.9792,2.9792,2.9792,2.9792,2.9792,2.9792,2.9792,2.9792,2.9792,2.9792,2.9792,2.9792,2.9792,2.9792,2.9792,2.9792,2.9792,2.9792,2.9792,2.9792,2.9792,2.9792,2.9792,2.9792,2.9792,2.9792,2.9792,2.9792,2.9792,2.9792,2.9792,2.9792,2.9792,2.9792,2.9792,2.9792,2.9792,2.9792,2.9792,2.9792,2.9792,2.9792,2.9792,2.9767,2.9641,2.9603,2.9578,2.9465,2.9101,2.8712,2.8712,2.8348,2.7921,2.7921,2.7507,2.7027,2.66,2.6499,2.6499,2.6499,2.6499,2.6461,2.6336,2.6298,2.6122,2.5523,2.5423,2.5285,2.485,2.4788,2.475,2.4625,2.4644,2.4562,2.4437,2.4424,2.4474,2.4632,2.4725,2.4788,2.4788,2.5209,2.5423,2.5423,2.5896,2.6197,2.6298,2.6298,2.6298,2.6311,2.6436,2.6499,2.6499,2.6499,2.6499,2.6499,2.6499,2.6499,2.6499,2.6499,2.6499,2.6499,2.6499,2.6499,2.6499,2.6499,2.6499,2.6452,2.9792,2.9792,2.9792,2.9792,2.9792,2.9792,2.9792,2.9792,2.9792,2.9792,2.9792,2.9792,2.9792,2.9792,2.9792,2.9792,2.9792,2.9792,2.9792,2.9792,2.9792,2.9792,2.9792,2.9792,2.9792,2.9792,2.9792,2.9792,2.9792,2.9792,2.9792,2.9792,2.9792,2.9792,2.9792,2.9792,2.9792,2.9792,2.9792,2.9792,2.9792,2.9792,2.9792,2.9792,2.9792,2.9792,2.9792,2.9792,2.9792,2.9792,2.9792,2.9792,2.9792,2.9792,2.9792,2.9792,2.9578,2.934,2.934,2.8925,2.8461,2.8461,2.8084,2.7532,2.7014,2.6688,2.6499,2.6499,2.6499,2.6499,2.6499,2.6499,2.6399,2.6084,2.6047,2.5912,2.5636,2.5598,2.5498,2.5222,2.5197,2.5096,2.4813,2.5046,2.5197,2.5197,2.5448,2.5598,2.5598,2.5862,2.6047,2.6047,2.6336,2.6499,2.6499,2.6499,2.6499,2.6499,2.6499,2.6499,2.6499,2.6499,2.6499,2.6499,2.6499,2.6499,2.6499,2.6499,2.6499,2.6499,2.6499,2.6499,2.6499,2.6499,2.6499,2.6499,2.9792,2.9792,2.9792,2.9792,2.9792,2.9792,2.9792,2.9792,2.9792,2.9792,2.9792,2.9792,2.9792,2.9792,2.9792,2.9792,2.9792,2.9792,2.9792,2.9792,2.9792,2.9792,2.9792,2.9792,2.9792,2.9792,2.9792,2.9792,2.9792,2.9792,2.9792,2.9792,2.9792,2.9792,2.9792,2.9792,2.9792,2.9792,2.9792,2.9792,2.9792,2.9792,2.9792,2.9792,2.9792,2.9792,2.9792,2.9792,2.9792,2.9792,2.9792,2.9792,2.9792,2.9792,2.9792,2.9792,2.9792,2.9792,2.9792,2.944,2.9038,2.9038,2.8624,2.8134,2.767,2.7165,2.6751,2.665,2.6637,2.6612,2.6512,2.6499,2.6499,2.6499,2.6499,2.6499,2.6499,2.6499,2.6311,2.5799,2.5737,2.5573,2.5146,2.5485,2.5737,2.5737,2.6223,2.6499,2.6499,2.6499,2.6499,2.6499,2.6499,2.6499,2.6499,2.6499,2.6499,2.6499,2.6499,2.6499,2.6499,2.6499,2.6499,2.6499,2.6499,2.6499,2.6499,2.6499,2.6499,2.6499,2.6499,2.6499,2.6499,2.6499,2.6499,2.6512,2.9792,2.9792,2.9792,2.9792,2.9792,2.9792,2.9792,2.9792,2.9792,2.9792,2.9792,2.9792,2.9792,2.9792,2.9792,2.9792,2.9792,2.9792,2.9792,2.9792,2.9792,2.9792,2.9792,2.9792,2.9792,2.9792,2.9792,2.9792,2.9792,2.9792,2.9792,2.9792,2.9792,2.9792,2.9792,2.9792,2.9792,2.9792,2.9792,2.9792,2.9792,2.9792,2.9792,2.9792,2.9792,2.9792,2.9792,2.9792,2.9792,2.9792,2.9792,2.9792,2.9792,2.9792,2.9792,2.9792,2.9792,2.9792,2.9792,2.9729,2.9679,2.9679,2.9239,2.8762,2.8687,2.8285,2.7745,2.7304,2.7203,2.7065,2.6587,2.6499,2.6499,2.6499,2.6499,2.6499,2.6499,2.6499,2.6461,2.6386,2.6373,2.6348,2.6285,2.6336,2.6373,2.6373,2.6449,2.6499,2.6499,2.6499,2.6499,2.6499,2.6499,2.6499,2.6499,2.6499,2.6499,2.6499,2.6499,2.6499,2.6499,2.6499,2.6499,2.6499,2.6499,2.6499,2.6499,2.6499,2.6499,2.6499,2.6499,2.6499,2.6499,2.6499,2.6499,2.6562,2.9792,2.9792,2.9792,2.9792,2.9792,2.9792,2.9792,2.9792,2.9792,2.9792,2.9792,2.9792,2.9792,2.9792,2.9792,2.9792,2.9792,2.9792,2.9792,2.9792,2.9792,2.9792,2.9792,2.9792,2.9792,2.9792,2.9792,2.9792,2.9792,2.9792,2.9792,2.9792,2.9792,2.9792,2.9792,2.9792,2.9792,2.9792,2.9792,2.9792,2.9792,2.9792,2.9792,2.9792,2.9792,2.9792,2.9792,2.9792,2.9792,2.9792,2.9792,2.9792,2.9792,2.9792,2.9792,2.9792,2.9792,2.9792,2.9792,2.9792,2.9792,2.9792,2.9603,2.9415,2.9415,2.9227,2.88,2.7921,2.7745,2.757,2.7052,2.6952,2.6851,2.6549,2.6499,2.6499,2.6499,2.6499,2.6499,2.6499,2.6499,2.6499,2.6499,2.6499,2.6499,2.6499,2.6499,2.6499,2.6499,2.6499,2.6499,2.6499,2.6499,2.6499,2.6499,2.6499,2.6499,2.6499,2.6499,2.6499,2.6499,2.6499,2.6499,2.6499,2.6499,2.6499,2.6499,2.6499,2.6499,2.6499,2.6499,2.6499,2.6499,2.6499,2.6499,2.6575]}]]